GFSCGP_850_rhum_000.txt.gz
RH
47 43 40 31 29 26 28 26 24 18 24 23 26 24 18 14 15 16 14 17 18 18 19 20 19 18 18 21 24 27 31 35 41 46 48 47 41 40 38 29 24 27 27 31
46 43 26 23 26 27 27 27 26 22 22 26 26 25 16 15 15 15 19 22 24 24 26 28 28 21 20 19 19 24 28 33 36 41 43 49 48 42 42 38 32 32 36 39
39 29 22 30 33 31 30 31 31 31 25 28 27 30 22 17 18 19 22 25 27 28 32 32 28 22 21 20 22 21 26 32 38 42 46 48 56 64 64 55 64 70 73 73
28 27 30 32 32 30 34 27 29 31 34 40 27 39 25 23 26 26 26 28 28 30 30 31 30 26 22 22 22 24 25 28 37 44 50 55 59 63 60 65 67 66 66 59
33 35 34 34 30 26 37 29 28 29 34 34 29 37 27 26 31 30 28 28 29 30 30 29 30 29 28 25 25 26 29 30 32 40 44 51 58 61 61 69 73 71 69 68
30 24 26 27 28 27 27 28 30 30 35 45 26 28 31 28 30 33 29 29 31 32 31 29 29 28 28 29 28 29 29 29 28 29 35 42 45 50 55 57 66 68 67 69
31 26 21 21 27 25 29 36 48 53 52 45 23 32 30 21 26 29 32 31 31 33 33 34 34 32 31 31 31 32 31 31 32 32 32 32 36 47 60 69 77 79 79 78
48 48 29 23 26 30 31 33 51 57 52 39 25 39 28 20 19 22 27 31 33 35 34 39 43 43 40 38 38 38 38 36 35 35 36 36 35 34 33 35 39 52 65 73
44 46 28 28 23 23 32 43 28 40 32 44 35 25 22 20 23 22 26 31 34 35 35 41 46 45 41 40 42 45 44 45 43 41 40 39 39 39 39 40 41 40 39 38
40 52 33 31 25 22 23 23 37 40 45 44 36 28 32 26 25 25 30 31 34 36 38 43 46 47 46 47 48 49 50 51 50 46 45 51 53 52 51 51 51 49 47 47
44 45 51 37 41 36 32 32 28 30 32 43 42 36 24 26 23 24 32 33 35 37 41 46 49 50 50 50 51 51 50 50 50 50 48 47 50 58 60 60 61 60 57 56
53 53 60 51 38 37 31 31 30 42 39 38 41 43 25 28 33 31 32 35 36 38 45 49 50 49 49 52 52 51 52 52 53 49 44 45 50 53 52 50 46 40 38 35
51 52 67 64 50 43 47 36 33 39 42 53 46 40 26 28 32 31 32 36 38 43 48 46 46 47 45 48 52 54 56 52 52 48 57 60 61 59 58 54 48 44 42 40
50 50 52 53 46 40 49 46 42 45 52 46 43 38 29 29 33 29 25 37 39 44 45 45 47 46 49 48 54 59 58 63 72 68 59 54 55 54 47 44 42 40 42 46
52 50 44 43 38 35 38 41 40 50 45 51 35 35 28 25 26 25 34 41 42 43 47 47 48 50 51 57 66 73 76 80 76 66 63 61 66 60 53 48 45 44 45 49
50 51 41 41 31 27 34 32 29 34 37 38 37 37 26 25 36 38 37 39 46 48 46 48 49 52 62 74 84 74 77 81 80 73 68 68 71 68 63 60 60 64 66 63
46 44 43 44 33 38 49 38 38 36 33 33 39 32 29 31 40 41 42 43 45 49 50 50 59 65 70 64 64 71 77 80 70 68 62 68 63 58 58 61 62 64 62 60
48 48 48 56 48 68 38 31 32 38 33 32 33 33 33 41 44 44 44 46 50 56 55 63 58 51 50 62 76 78 72 63 58 56 59 55 51 53 53 56 58 57 56 62
34 46 54 69 65 51 44 36 37 38 42 34 38 36 33 49 46 43 45 51 59 66 63 58 60 64 71 73 71 65 60 59 51 53 45 36 37 37 38 41 46 43 46 54
52 43 57 98 82 86 40 40 36 35 60 45 41 42 50 48 64 60 56 62 70 68 78 78 72 70 73 69 59 53 45 33 34 26 23 23 23 25 29 31 34 37 44 38
72 66 72 68 76 65 41 42 36 58 58 47 46 44 48 59 51 54 60 69 78 80 76 74 74 70 63 47 39 27 22 20 25 23 21 20 20 26 26 31 33 41 34 42
71 84 83 71 71 82 35 42 50 45 39 43 50 48 42 42 49 61 71 76 78 82 85 84 62 50 33 23 19 16 17 19 18 16 14 14 18 22 26 36 40 37 35 38
65 52 60 67 74 45 37 38 41 44 45 47 46 45 45 50 56 62 72 78 81 90 89 69 44 21 10 13 17 16 14 18 18 21 22 25 28 31 37 40 37 39 41 39
54 41 58 56 41 42 40 40 50 51 50 48 46 47 50 55 58 68 76 87 98 97 72 44 15 9 14 17 18 16 17 21 26 30 31 31 32 36 33 37 46 44 46 48
59 59 61 62 54 48 45 49 57 60 61 59 56 55 56 62 68 76 87 99 98 76 38 14 15 18 16 16 18 18 23 30 33 32 28 28 32 33 35 41 50 57 54 54
64 66 74 69 49 55 54 54 56 59 65 67 67 69 68 74 92 98 100 90 57 33 21 20 21 17 14 16 18 20 25 33 37 36 33 33 40 43 44 56 61 55 68 73

GFSCGP_850_rhum_003.txt.gz
RH
81 84 73 54 43 38 37 36 35 25 25 26 30 32 28 19 17 22 23 24 26 26 25 19 17 17 18 18 24 27 36 46 44 43 46 45 43 42 42 40 38 43 53 57
72 73 49 36 36 37 35 35 34 26 26 27 29 31 20 17 20 26 28 28 29 28 27 24 20 18 17 18 19 21 26 33 40 50 46 46 44 47 51 54 60 64 65 66
73 56 38 34 36 38 33 33 36 36 32 29 31 37 21 23 25 28 28 29 31 33 33 30 24 21 19 18 19 22 22 28 34 40 51 53 55 58 53 51 56 63 72 76
51 32 37 38 39 34 35 30 30 33 39 47 33 47 28 30 31 35 31 30 31 32 33 31 28 26 24 24 24 24 25 28 34 41 47 55 62 62 64 66 69 73 78 81
43 38 37 40 34 31 38 31 30 30 36 38 34 41 36 35 38 39 38 32 31 30 32 33 33 32 31 28 28 28 27 25 26 30 38 43 48 54 57 63 69 72 75 77
35 29 31 33 29 30 31 31 32 36 42 54 41 39 37 39 40 39 37 33 32 31 32 37 37 36 34 34 32 31 31 31 33 34 34 34 36 39 41 46 56 66 74 78
32 25 20 24 30 25 30 43 58 57 60 59 30 36 36 28 35 34 41 36 34 33 33 34 34 36 37 36 36 35 34 33 36 37 39 40 41 41 42 43 43 42 41 41
55 48 27 23 28 34 35 42 64 64 63 50 29 40 31 25 31 30 32 35 35 35 36 36 39 42 43 44 45 43 42 41 41 40 39 41 42 43 47 52 55 55 53 50
49 49 30 28 24 26 35 45 37 45 43 52 47 34 23 32 38 39 38 37 36 36 36 39 43 45 46 48 48 49 49 49 47 45 44 45 45 43 45 51 55 57 56 54
43 55 35 32 27 24 26 27 41 49 48 48 47 33 39 32 34 36 45 40 38 38 39 42 44 46 48 51 51 50 50 50 49 44 39 39 41 42 49 55 53 51 45 39
48 53 55 38 41 42 40 36 30 39 47 52 53 43 30 27 29 35 41 39 38 39 41 43 47 50 51 53 53 51 50 49 38 31 34 41 44 45 50 54 55 52 46 40
54 61 70 56 39 38 35 36 36 48 45 49 49 45 28 39 36 36 39 37 39 40 43 47 50 51 53 56 55 55 54 49 32 41 47 53 53 49 51 50 48 47 44 40
52 60 77 62 48 45 48 42 38 44 50 53 49 45 30 37 40 35 41 40 39 41 48 51 51 48 52 53 52 51 51 43 43 50 55 60 60 56 56 56 53 48 42 39
48 50 52 60 48 49 54 48 44 48 59 52 53 42 34 34 34 33 32 36 43 46 50 48 48 51 54 57 56 54 45 38 55 63 61 72 70 64 62 58 49 43 40 39
50 49 45 41 38 34 38 42 44 56 53 51 32 37 31 32 34 33 34 42 45 49 49 49 50 54 58 58 58 48 43 48 56 61 66 65 61 55 51 43 38 38 39 45
50 53 39 37 33 33 34 34 36 39 42 49 47 44 32 29 28 41 45 44 47 50 49 50 53 55 56 56 46 50 58 62 64 62 52 47 46 40 25 16 14 19 29 38
50 46 47 43 44 44 49 42 41 39 34 34 43 34 31 33 38 43 44 47 52 50 52 54 54 52 50 54 54 56 60 58 48 40 33 27 16 5 5 7 9 13 18 20
55 52 56 60 52 68 39 36 34 41 40 38 37 37 39 40 49 47 46 48 52 55 58 56 53 59 59 58 56 55 50 39 27 12 7 6 6 8 9 11 14 17 22 27
46 55 60 71 74 59 46 47 42 41 45 42 41 47 54 49 46 61 50 52 57 60 60 57 60 64 65 64 58 46 32 14 4 5 9 10 10 10 12 14 16 20 25 28
55 57 62 92 82 78 54 42 38 39 56 47 46 48 54 47 62 62 65 62 65 66 67 70 68 83 80 64 43 23 8 7 10 11 12 12 14 16 18 20 22 24 26 25
76 73 75 79 82 71 52 42 38 53 55 46 49 48 50 64 57 59 70 70 72 75 72 67 80 80 64 40 15 9 12 13 13 15 16 16 18 20 20 22 24 30 35 36
79 89 86 80 82 84 43 44 50 53 53 52 50 49 49 55 61 66 68 68 69 69 75 86 90 66 38 15 14 15 14 15 17 19 18 19 20 21 21 27 29 34 40 45
62 64 77 76 73 48 47 48 50 50 50 51 49 49 48 56 62 61 59 65 75 82 90 95 82 44 15 13 15 12 14 18 19 20 21 21 22 23 24 30 32 40 42 46
58 52 67 60 51 51 53 57 54 57 58 59 59 57 54 54 58 65 71 76 83 88 97 87 57 12 12 14 12 14 17 20 22 24 24 25 28 28 29 33 39 43 48 62
68 65 71 74 59 51 50 52 55 61 62 62 64 66 64 63 61 66 77 89 91 99 97 56 14 14 14 12 14 16 20 23 24 27 29 29 30 32 33 34 38 46 53 80
69 73 86 87 60 62 58 55 57 59 62 66 71 71 69 70 71 78 94 98 95 63 36 16 16 14 13 15 16 18 22 25 28 30 31 36 43 43 46 50 49 47 59 86

GFSCGP_850_rhum_006.txt.gz
RH
98 93 91 74 44 45 42 40 41 36 30 32 36 33 31 26 24 26 28 30 31 29 26 22 21 21 23 21 23 28 31 38 47 49 48 47 46 46 45 45 49 57 64 73
99 93 74 59 52 42 41 43 44 36 29 26 28 30 31 21 28 30 31 32 30 29 25 23 22 23 22 23 24 23 25 28 31 38 49 52 51 51 53 59 65 68 70 74
83 74 64 50 44 46 46 46 42 40 35 32 32 40 24 27 31 34 33 32 33 33 31 28 25 24 23 21 22 22 24 28 32 36 42 51 58 60 63 72 76 75 79 82
71 51 56 54 46 40 48 37 35 34 39 44 35 53 31 34 36 37 36 32 34 35 36 35 32 28 28 29 29 28 28 32 36 41 46 53 63 67 66 64 63 67 71 73
69 51 54 46 42 39 39 34 32 32 39 40 38 45 41 37 40 43 43 34 34 37 37 36 35 34 33 31 30 31 31 31 33 34 38 42 44 45 45 46 51 59 68 78
47 35 40 40 34 34 36 33 44 47 48 57 45 45 42 44 37 42 43 35 34 38 38 36 38 37 35 36 35 35 34 36 37 38 39 40 42 44 42 43 44 45 44 43
62 32 24 29 33 27 36 46 61 59 62 61 39 43 38 32 38 34 44 38 35 35 33 35 36 36 38 38 38 41 43 43 44 44 44 44 44 46 49 52 55 55 53 52
72 49 31 24 33 37 40 45 64 64 70 55 33 42 32 30 32 32 35 35 36 35 33 32 35 39 42 43 44 46 46 46 45 43 41 41 41 43 50 55 58 57 53 49
49 49 32 29 24 32 37 48 40 50 49 55 49 40 26 45 51 46 44 39 37 35 35 37 38 43 47 49 50 50 49 49 47 40 31 32 36 38 42 46 50 50 50 48
47 53 38 32 27 26 35 34 46 55 54 53 50 41 41 42 53 53 53 42 38 37 39 40 44 49 52 52 53 52 51 50 46 28 28 37 39 38 42 44 45 47 48 47
49 52 53 37 42 45 39 39 35 45 53 54 55 47 36 36 45 49 49 40 38 38 41 45 49 53 54 55 55 55 55 52 39 25 31 37 40 45 50 50 51 52 52 48
54 63 70 53 40 37 38 40 38 48 45 54 52 46 30 37 34 37 40 37 39 40 44 50 53 54 57 58 57 54 51 45 32 34 40 40 37 38 46 50 51 52 46 39
53 68 80 60 52 47 50 42 40 47 52 56 55 49 35 43 36 36 41 42 40 43 50 54 54 54 54 53 52 51 50 40 37 41 42 44 48 52 52 47 40 32 24 18
47 54 59 63 54 55 58 55 47 45 59 49 57 40 34 36 38 41 38 32 41 50 53 52 52 53 55 55 53 52 43 41 43 43 45 47 44 40 34 22 10 4 2 2
44 49 45 42 39 39 45 49 56 57 50 46 39 44 33 35 34 32 31 34 47 53 51 50 52 58 59 56 54 43 47 50 50 49 44 36 27 13 3 3 3 4 4 4
48 51 37 36 35 36 36 35 37 44 48 52 47 43 33 31 32 41 43 48 50 53 51 53 57 58 56 51 47 54 56 54 50 41 26 10 3 3 4 4 4 5 5 6
47 43 41 38 48 44 45 44 44 38 36 34 36 31 35 37 48 52 50 49 50 51 51 55 57 59 50 56 60 62 61 55 38 18 4 4 6 5 6 7 8 10 11 11
53 55 58 56 51 60 38 40 39 40 39 37 39 42 46 52 51 45 47 49 50 50 57 64 60 55 61 71 72 67 56 35 11 4 6 6 6 8 10 11 12 13 15 16
52 58 68 69 70 56 46 44 42 41 52 50 51 48 50 49 50 47 45 49 50 57 64 62 62 67 80 79 75 59 34 11 6 6 6 8 10 12 13 14 14 16 19 20
58 60 60 90 80 69 47 42 40 37 54 52 52 52 55 54 74 66 56 55 58 65 69 68 69 80 83 76 62 36 12 8 8 7 9 11 14 16 17 18 19 21 23 26
69 70 72 81 81 72 53 47 41 54 50 60 55 53 56 66 62 58 59 66 74 75 72 71 78 85 85 73 41 14 10 9 9 12 13 15 18 20 21 22 23 24 28 33
74 87 82 83 81 80 48 47 52 55 57 51 49 50 50 49 51 55 58 66 66 67 73 79 85 88 89 46 14 11 10 12 14 15 16 17 20 22 23 25 26 28 31 39
68 72 80 72 72 54 47 50 50 50 52 53 54 53 52 54 54 57 66 73 75 78 84 90 85 88 71 19 15 12 14 16 16 16 17 19 20 23 25 32 32 34 42 55
59 58 69 62 57 65 53 52 53 56 58 58 59 58 58 59 58 63 68 72 81 89 92 86 93 56 14 16 13 15 16 17 18 18 19 20 24 29 33 33 37 45 54 75
67 65 73 78 66 57 59 59 60 62 62 62 62 64 68 66 62 63 73 82 86 89 90 82 41 15 17 15 14 16 18 20 20 21 21 23 30 36 38 36 43 56 67 96
79 77 82 83 65 62 61 57 55 60 66 69 70 70 72 72 71 73 81 90 93 89 65 41 17 19 16 15 15 17 20 23 23 22 24 31 40 42 48 50 46 46 63 91

GFSCGP_850_rhum_009.txt.gz
RH
96 95 91 82 66 55 50 44 43 42 34 34 41 39 33 29 25 28 30 31 32 30 32 30 29 26 25 22 23 24 27 28 32 37 44 47 48 50 52 54 57 62 67 74
98 91 72 67 52 47 44 46 51 40 35 36 35 39 35 27 28 30 33 35 36 34 31 29 30 26 24 25 27 27 27 29 32 35 43 52 56 58 62 66 71 74 82 88
81 80 72 65 69 60 50 50 50 43 40 34 38 44 37 28 32 35 36 37 38 37 33 32 29 29 29 27 28 28 29 32 34 40 50 58 65 72 78 78 72 70 71 76
84 66 78 79 66 61 74 45 43 44 44 51 38 59 42 34 40 42 41 40 41 40 37 35 34 32 32 34 33 31 30 29 33 36 41 48 54 54 52 50 52 59 67 71
81 77 80 86 64 44 55 37 41 42 42 43 42 51 46 37 44 46 46 41 42 38 36 36 35 34 35 35 35 36 34 34 37 37 38 38 40 44 46 46 46 47 49 49
57 56 63 60 47 40 36 37 45 51 52 62 50 48 46 46 36 44 45 42 41 38 38 37 37 37 36 38 38 37 37 38 40 40 40 40 41 42 42 42 42 44 46 46
59 57 42 34 36 36 39 47 65 64 67 67 45 52 37 31 35 37 46 41 40 39 35 37 39 38 39 40 41 42 44 43 43 40 38 37 38 38 37 37 36 34 33 33
66 82 40 30 38 44 47 47 65 64 72 58 46 49 35 35 36 30 35 36 39 38 36 39 39 40 42 44 46 47 47 47 46 38 29 29 30 32 37 39 39 41 43 44
64 55 33 29 29 35 41 51 44 53 55 64 54 45 33 48 52 49 44 40 39 36 39 40 42 45 46 48 48 49 50 49 47 39 28 30 34 33 34 39 45 46 47 47
48 53 40 32 28 27 37 39 50 60 62 60 54 49 46 42 52 57 57 46 39 40 44 44 47 48 49 51 52 53 53 53 49 33 29 34 39 41 42 42 42 43 44 42
47 46 53 38 42 44 38 39 44 50 58 57 60 50 37 33 51 56 53 41 38 42 43 46 48 50 52 55 56 56 56 52 43 33 36 40 41 41 43 43 42 38 32 24
52 61 63 50 44 40 39 40 40 53 48 57 58 50 36 44 45 50 47 42 42 41 43 47 52 54 56 57 59 58 53 49 40 40 44 45 46 44 41 34 26 15 5 2
57 68 80 63 56 51 50 44 40 50 54 60 57 48 35 45 40 41 45 43 41 41 46 52 55 56 59 62 59 56 53 43 44 49 50 49 44 36 25 11 3 2 3 3
47 62 60 57 59 60 60 55 48 47 62 55 58 43 33 43 42 41 40 36 40 45 49 52 57 62 62 60 58 56 46 50 55 58 54 44 30 14 4 4 4 4 4 5
42 50 47 46 46 52 54 58 57 52 47 48 40 50 34 33 36 31 32 34 39 48 55 56 58 60 63 66 58 49 55 58 62 60 44 26 8 4 5 5 5 6 6 7
46 54 39 38 40 36 35 37 60 57 52 51 50 46 38 34 36 42 46 46 47 54 56 55 59 66 69 58 54 61 67 68 63 46 23 7 5 5 6 6 7 7 8 8
44 45 40 38 47 42 41 46 42 37 39 39 36 30 39 50 56 50 47 45 46 51 53 54 64 69 60 60 71 75 73 68 48 20 8 6 6 7 8 8 9 10 10 11
51 52 54 51 50 53 34 43 40 40 44 37 49 49 49 55 50 45 44 44 44 48 53 62 70 63 63 74 78 78 74 52 22 9 8 7 8 9 10 11 12 12 13 13
51 56 68 64 61 48 49 44 48 47 59 52 52 51 55 52 50 48 46 47 51 51 56 67 66 64 69 78 79 76 62 22 11 8 8 9 10 11 12 13 14 15 16 16
54 56 57 87 76 64 46 42 41 37 74 59 56 61 60 59 73 71 57 53 52 58 67 68 65 69 79 81 78 56 34 15 9 8 9 12 13 14 15 16 17 19 21 21
61 65 68 75 73 66 50 45 43 56 50 61 54 55 54 65 61 51 48 52 64 69 70 71 74 81 84 83 69 40 27 10 9 11 12 13 15 17 17 19 22 22 23 28
65 77 77 81 77 70 51 50 57 58 59 53 53 52 50 49 49 50 56 67 75 78 80 80 83 88 83 76 64 38 11 11 12 13 14 16 18 19 21 24 24 23 25 30
73 66 70 68 68 57 53 51 50 50 51 53 52 53 54 55 56 61 61 69 80 81 80 83 88 85 81 60 33 13 12 14 15 16 17 18 19 20 22 25 26 27 34 49
60 63 69 66 65 61 53 53 52 55 56 57 58 59 59 62 63 60 63 74 80 82 85 89 84 85 59 22 14 15 17 18 17 18 19 20 21 22 25 29 31 40 45 56
69 70 76 75 67 66 60 57 57 59 61 63 63 64 65 69 69 68 70 79 86 91 93 86 72 41 18 17 15 16 18 20 20 21 21 22 22 26 30 29 33 43 50 88
82 78 82 80 64 62 64 60 61 63 64 68 68 68 71 73 75 76 77 78 84 87 87 65 37 18 18 16 16 18 22 23 23 23 23 26 30 34 36 34 32 35 60 93

GFSCGP_850_rhum_012.txt.gz
RH
85 98 92 82 66 60 57 50 56 43 36 36 42 44 36 31 29 27 28 36 39 33 37 35 30 28 26 26 27 22 21 21 25 29 39 51 60 64 70 74 75 77 76 78
99 91 72 72 67 58 47 50 52 50 38 38 42 43 38 37 30 26 31 39 41 38 35 32 30 26 26 26 24 22 21 23 26 32 42 52 61 71 78 80 79 77 75 74
85 77 66 70 64 62 56 60 58 60 47 41 45 47 41 32 32 35 36 40 42 36 35 35 32 32 31 26 25 25 24 23 25 29 38 53 69 75 67 59 55 57 62 66
89 87 74 76 80 67 87 55 48 47 50 59 42 62 48 36 40 45 44 45 43 39 41 38 37 34 31 33 32 30 29 30 34 36 35 37 40 41 47 49 52 51 50 51
91 97 89 80 70 67 73 47 50 47 51 48 46 55 49 38 45 48 52 47 46 43 40 42 40 38 38 38 34 34 33 35 38 38 40 41 42 48 50 46 43 38 37 37
70 66 78 84 69 56 47 42 45 55 54 68 52 50 52 44 42 45 47 45 47 44 44 44 43 42 40 41 40 40 39 39 40 39 37 35 33 33 30 28 28 29 31 32
68 78 59 51 65 44 47 49 64 68 70 72 49 57 49 36 36 39 47 42 47 46 46 44 44 44 43 43 44 44 44 44 44 36 30 28 30 32 32 34 35 35 35 36
86 94 61 40 60 70 55 54 68 68 74 61 52 57 39 36 47 36 35 36 46 46 46 45 45 45 44 45 46 47 47 46 46 43 34 30 34 36 38 38 39 41 41 41
71 78 42 44 35 58 49 56 46 60 59 70 61 47 39 44 53 52 47 41 47 46 44 45 48 48 46 47 49 51 51 51 50 42 33 32 35 38 40 42 42 41 38 32
55 57 43 34 29 30 44 43 53 62 64 68 61 51 50 35 42 54 59 51 47 46 46 48 49 48 49 52 53 54 55 54 48 40 36 39 42 45 46 45 40 31 19 8
47 51 53 38 44 44 40 46 51 54 62 61 63 50 41 38 39 55 58 46 45 45 45 48 50 53 54 56 58 58 58 53 46 41 43 48 51 51 44 33 21 9 4 3
47 60 65 49 45 40 38 42 44 60 56 63 62 54 35 48 54 53 52 45 43 43 45 48 52 54 58 61 62 62 57 51 44 48 55 58 54 45 31 16 6 4 4 4
57 65 81 65 55 54 49 45 43 52 56 64 60 51 39 48 52 50 50 46 42 42 47 53 58 60 64 66 66 62 56 48 52 58 62 59 46 27 12 6 5 5 5 6
46 64 59 65 55 60 63 55 49 49 64 62 60 43 35 44 43 44 43 42 43 44 48 54 61 66 69 70 66 60 52 57 65 68 61 46 28 13 7 6 6 6 7 7
44 57 51 48 53 55 56 57 56 53 48 53 46 51 38 34 35 35 35 38 42 47 53 58 64 69 71 70 65 55 62 73 77 66 45 28 15 8 6 7 7 7 8 9
48 55 42 42 42 38 44 53 60 54 54 44 50 50 40 40 40 48 47 46 47 50 56 60 66 69 72 70 58 68 77 76 69 57 40 19 10 7 7 8 8 9 10 11
46 47 47 50 45 41 38 44 67 58 52 55 61 47 40 56 55 48 45 41 43 44 50 58 64 72 73 62 70 78 77 70 63 58 35 13 8 8 8 9 10 11 12 13
47 48 49 53 49 46 32 44 40 45 45 38 50 50 52 56 51 47 46 43 43 49 54 60 68 74 67 68 78 79 70 65 53 36 24 8 8 9 11 12 13 14 14 15
51 55 67 58 56 45 49 51 52 49 60 52 60 61 56 54 50 50 48 47 47 50 56 66 75 70 66 75 79 77 73 46 39 24 11 9 11 12 13 14 15 16 18 18
55 56 52 85 75 58 45 46 41 44 70 59 59 64 64 58 68 67 52 54 55 57 65 72 71 68 75 81 84 75 60 48 21 11 10 11 14 14 15 17 18 20 22 22
65 71 64 73 70 63 46 46 41 56 55 66 58 56 59 67 56 55 58 63 68 73 74 72 73 77 83 84 76 73 37 17 14 11 12 14 15 17 18 20 22 24 25 24
61 75 78 81 73 68 51 51 54 57 60 51 51 52 53 53 54 59 64 68 72 76 78 80 80 82 83 79 69 31 20 14 12 13 14 16 18 20 22 24 24 25 25 25
64 59 65 68 68 58 57 53 51 50 51 54 53 54 55 56 60 60 60 66 75 82 84 83 84 88 84 64 45 18 15 13 14 14 17 20 23 25 25 25 26 27 26 29
64 65 70 67 65 61 58 55 53 53 54 56 58 60 60 62 66 66 64 69 79 85 88 87 89 86 65 40 20 16 15 14 16 19 22 25 27 27 27 27 28 29 33 49
69 70 75 75 73 66 61 57 57 59 61 62 63 64 65 66 71 72 71 74 82 88 91 92 83 64 46 21 17 16 17 19 22 24 27 29 29 29 29 29 33 37 51 89
81 77 80 76 66 65 64 60 57 60 63 65 66 65 67 72 75 78 80 82 84 87 81 82 70 56 20 17 17 19 22 24 27 29 32 32 31 31 32 34 34 46 70 96

GFSCGP_850_rhum_015.txt.gz
RH
84 97 95 75 71 60 55 58 58 54 38 38 41 42 34 31 31 32 31 36 39 37 41 39 34 29 28 27 26 24 22 25 32 34 43 51 56 63 67 72 75 77 78 76
84 96 76 68 69 57 56 56 55 50 41 39 43 41 34 35 34 29 30 42 40 40 40 36 34 31 26 25 23 20 20 22 24 28 42 55 69 73 74 71 67 61 57 57
85 77 65 70 74 70 62 63 62 60 50 43 45 44 40 33 32 36 34 40 39 38 39 40 36 33 32 28 25 24 24 25 27 30 37 50 56 56 48 46 47 49 51 51
84 86 71 73 76 70 82 56 55 54 62 67 42 56 47 36 36 44 49 49 42 42 43 40 36 34 33 33 32 30 30 30 33 36 36 38 40 42 52 53 52 42 35 34
90 96 78 81 74 64 74 61 59 56 57 50 49 51 43 41 39 46 52 52 47 43 42 41 39 38 38 39 36 35 34 35 38 37 37 36 35 36 36 33 33 33 35 37
90 93 69 67 67 63 46 47 48 50 49 62 52 47 46 39 35 47 51 53 52 47 45 44 45 44 44 43 42 41 40 40 38 34 31 30 29 31 32 32 34 38 40 41
88 95 94 76 65 63 56 66 98 78 65 65 53 55 42 38 35 39 44 50 52 47 45 46 47 48 47 47 46 46 44 42 42 41 37 32 32 34 36 39 42 44 45 44
97 97 80 68 77 83 81 69 68 70 71 59 56 56 36 34 44 41 39 44 50 48 48 48 48 49 50 50 50 49 48 48 47 43 38 35 37 40 44 47 49 46 39 30
83 78 62 47 54 71 77 85 48 62 62 66 59 48 37 39 48 51 50 46 51 48 50 50 51 52 53 54 53 53 53 52 49 43 39 40 44 49 53 53 46 37 25 15
62 64 51 38 38 40 57 49 70 60 65 69 61 53 47 36 38 55 57 57 55 50 53 53 54 55 57 57 56 57 56 53 48 44 43 48 55 55 51 45 38 27 14 6
50 55 56 44 48 48 56 67 57 53 61 61 58 45 40 38 39 44 56 50 50 51 51 54 56 59 60 60 61 60 57 53 47 46 53 60 57 53 46 37 25 12 6 6
45 59 75 56 47 45 43 49 47 58 60 62 57 49 37 48 48 51 56 46 46 46 51 56 58 61 64 64 64 63 58 51 50 57 65 63 56 48 36 24 12 7 6 7
52 66 79 64 52 57 50 44 44 51 53 61 56 48 38 50 55 54 53 45 45 49 54 58 63 66 67 68 67 64 57 53 63 72 66 58 51 42 27 14 8 7 7 8
43 61 64 70 61 61 60 52 49 44 58 57 53 41 36 42 48 55 53 46 44 46 51 59 66 69 71 72 70 63 57 66 74 67 63 58 52 31 15 8 7 8 9 10
48 55 53 49 50 52 56 57 53 49 43 44 45 49 40 41 44 46 43 46 47 49 54 60 65 71 74 74 70 60 67 75 70 66 58 55 38 17 8 8 9 10 11 13
49 57 45 45 51 53 58 59 50 46 52 49 48 49 41 41 42 47 48 45 45 47 54 60 66 72 76 75 66 67 75 75 68 57 48 34 34 12 8 9 10 12 15 18
51 50 54 58 45 42 50 50 62 50 56 43 52 39 48 58 58 54 52 50 52 52 54 58 67 77 79 73 66 75 77 73 65 47 31 23 18 9 10 11 13 17 20 22
58 46 50 56 46 54 42 44 51 52 49 49 44 46 52 58 52 50 47 44 45 49 52 60 72 81 78 68 73 77 78 69 56 47 27 14 10 10 12 14 18 22 24 24
51 51 62 62 57 45 50 52 54 50 55 47 64 68 62 54 52 56 54 50 49 50 54 64 75 80 72 70 77 82 72 66 56 29 17 11 11 13 15 20 24 26 25 25
53 64 71 82 63 47 39 47 42 46 56 61 60 66 65 56 61 61 53 53 52 53 59 70 79 74 71 78 83 73 68 58 37 18 12 12 14 17 21 25 27 27 26 26
66 67 60 72 64 58 47 48 42 54 47 65 59 61 62 62 56 55 53 54 57 64 70 76 74 73 79 83 76 69 60 43 20 12 13 16 18 22 27 29 29 28 28 27
61 70 72 77 70 56 50 49 52 56 64 57 54 53 52 54 55 55 58 60 66 70 74 76 78 81 84 80 71 60 42 23 14 14 17 19 22 27 31 31 30 29 28 28
62 57 66 63 63 62 58 56 56 57 53 54 51 52 52 57 61 62 61 64 73 82 84 84 84 85 86 74 55 41 23 15 15 17 20 22 26 33 34 31 30 29 29 33
67 67 73 61 64 64 64 58 52 51 52 54 53 56 58 59 63 64 65 70 79 85 88 88 87 88 74 60 44 20 17 17 18 20 22 28 36 36 32 30 30 31 33 40
70 68 77 79 74 66 62 57 56 56 56 58 60 61 63 65 69 72 71 70 78 88 89 89 90 76 58 38 20 18 18 20 22 23 32 38 37 33 31 31 33 35 42 73
81 75 75 74 66 65 62 61 61 58 61 63 62 64 64 65 69 74 78 80 83 84 86 82 74 65 37 20 19 20 22 22 27 37 40 37 34 32 32 31 28 38 52 86

GFSCGP_850_rhum_018.txt.gz
RH
73 94 95 84 59 46 42 40 46 40 33 37 36 35 29 25 26 23 24 27 34 40 42 38 36 36 34 30 28 30 32 36 43 57 67 66 72 75 76 76 74 70 65 57
70 95 72 70 59 45 42 46 45 37 35 36 36 38 32 26 23 24 23 28 35 44 46 42 37 33 29 25 24 24 25 28 35 46 58 65 68 68 64 55 48 46 46 44
77 76 68 68 51 52 52 49 44 43 42 41 39 38 29 25 26 28 27 30 37 40 43 47 40 32 30 28 28 27 26 27 32 39 46 49 47 46 46 47 44 38 33 33
61 62 74 73 57 48 60 43 42 52 59 57 39 46 32 23 25 29 30 36 39 43 45 49 51 38 35 34 33 31 32 33 35 37 38 39 41 38 37 34 35 36 38 40
84 84 90 79 57 48 45 48 48 53 59 58 46 48 31 29 25 28 31 38 42 45 48 54 58 42 39 38 36 35 34 34 34 33 31 30 30 32 34 35 38 41 44 45
53 81 78 58 49 47 50 50 47 43 46 60 41 40 30 23 23 28 32 40 44 47 51 58 47 44 41 41 39 39 38 37 35 35 33 32 32 34 38 41 46 48 44 38
67 86 86 53 66 57 48 54 94 88 78 54 38 41 29 23 25 26 32 40 44 51 56 61 58 49 45 45 44 43 41 41 42 40 37 36 37 40 45 48 44 42 40 38
99 98 91 59 62 73 58 52 53 60 56 46 44 42 26 24 29 30 29 38 46 52 54 58 62 51 48 48 48 47 46 46 44 42 41 40 42 49 49 46 47 43 38 32
84 99 89 80 64 57 77 68 40 44 46 42 35 32 27 28 31 34 32 40 48 52 56 59 65 59 53 53 52 51 50 49 46 43 43 44 50 52 52 50 44 39 34 19
49 96 85 89 76 65 66 51 72 49 53 51 39 38 30 26 26 36 35 41 47 52 57 62 66 67 61 56 55 55 53 51 47 45 48 54 57 57 52 46 40 32 18 10
52 52 65 71 83 75 70 84 73 47 43 41 38 32 25 26 28 30 32 38 46 54 58 62 67 69 61 59 58 58 55 52 48 51 58 62 58 53 48 42 33 19 11 7
54 38 55 77 47 47 51 58 56 59 51 42 37 31 25 29 31 35 35 40 48 53 58 64 72 65 63 62 62 61 57 52 53 62 65 60 56 52 46 33 25 12 7 8
42 44 60 60 53 43 54 52 49 40 38 42 43 34 28 34 37 41 39 42 49 55 63 68 77 71 68 66 66 63 58 55 64 67 63 57 54 51 42 22 8 8 8 10
44 44 39 50 41 40 54 49 44 46 50 41 38 30 28 33 36 40 42 42 48 57 64 69 78 76 73 70 68 64 59 64 68 66 59 53 48 42 26 10 8 10 12 14
51 47 42 41 43 38 42 48 45 47 42 44 35 35 28 23 31 36 41 42 45 51 64 72 77 78 74 72 71 64 64 71 70 63 53 46 42 37 18 9 10 12 16 22
48 51 43 43 46 43 44 39 41 44 42 38 33 33 25 27 34 36 40 44 45 49 60 70 80 80 76 74 72 64 71 74 70 60 52 48 37 24 10 11 13 17 24 26
51 50 47 50 41 45 51 43 42 36 33 32 39 30 31 37 35 38 42 44 46 51 59 69 80 82 78 77 71 69 75 74 66 61 54 39 26 11 12 14 18 25 28 29
52 46 44 50 42 83 37 37 32 37 33 30 31 32 32 33 44 51 50 49 54 53 55 66 76 79 82 77 69 74 76 72 66 58 44 28 12 12 14 19 25 29 31 33
66 56 60 52 47 38 34 42 40 45 40 36 36 36 44 50 51 59 61 54 51 52 56 62 71 81 82 73 73 76 76 66 59 54 30 13 12 15 18 23 28 32 32 34
61 84 74 68 61 52 33 40 36 34 38 38 36 43 48 50 46 47 63 55 53 53 56 63 75 82 76 72 76 80 69 57 57 34 15 13 15 19 22 28 33 33 34 40
61 72 75 83 90 37 39 41 42 41 41 48 46 49 51 45 50 62 57 54 54 58 62 72 79 76 73 77 80 72 61 58 42 19 13 16 19 22 29 35 34 36 39 40
62 66 75 76 63 59 45 45 41 48 58 57 56 56 57 60 56 54 55 55 60 62 71 76 75 74 78 81 76 63 53 43 23 14 16 19 22 31 37 35 33 37 45 47
54 48 42 42 43 56 59 55 55 57 57 58 56 55 48 52 54 56 58 59 63 68 73 76 78 80 82 83 64 51 47 26 15 16 19 23 34 38 36 37 37 45 49 52
55 55 49 52 57 58 61 63 61 57 51 50 48 48 48 52 56 56 58 58 63 71 79 82 84 84 86 73 52 49 36 16 17 20 24 37 39 35 36 36 42 44 53 62
52 54 55 64 64 61 62 60 54 53 51 51 53 54 56 57 62 64 65 64 67 76 82 86 87 88 74 55 48 32 17 19 21 27 38 39 38 38 38 38 45 51 56 68
56 51 49 44 48 47 52 64 58 56 57 56 54 59 58 58 61 64 70 73 76 82 88 88 88 71 63 47 24 18 20 22 28 38 40 38 36 40 35 43 53 67 82 94

GFSCGP_850_rhum_021.txt.gz
RH
59 86 87 73 78 51 46 49 50 36 26 30 32 33 26 22 23 22 21 18 22 30 41 45 48 50 50 56 67 72 74 78 79 82 85 82 80 75 73 71 66 53 45 42
69 92 58 47 62 76 52 48 43 30 28 33 33 31 26 23 24 24 21 19 22 34 39 44 45 44 46 50 49 56 71 82 86 78 77 74 72 67 52 45 45 39 31 31
76 61 52 46 73 81 61 53 37 35 32 34 35 38 32 27 25 23 21 19 24 34 37 42 46 51 52 43 33 32 35 37 41 46 48 48 48 58 54 43 33 33 35 38
75 59 78 56 77 77 71 38 37 35 46 49 36 42 25 22 24 23 21 21 27 33 36 40 48 55 54 40 36 33 33 35 45 54 54 59 50 36 32 33 36 40 43 43
84 76 85 70 82 75 50 38 38 39 43 50 52 51 30 22 23 23 21 24 31 35 37 44 52 59 56 43 39 36 35 36 37 35 32 31 31 32 35 41 45 44 40 39
61 59 63 60 69 75 49 43 44 44 48 70 45 42 29 26 22 19 22 28 34 36 41 50 60 63 51 44 41 38 35 34 34 34 34 34 35 39 43 45 43 43 43 42
77 88 84 78 91 80 55 62 92 83 76 51 30 37 27 22 22 21 25 30 35 39 45 55 60 64 66 62 47 44 40 39 39 38 38 38 40 43 46 46 49 48 43 41
100 98 92 75 88 82 73 61 49 64 54 40 34 41 27 21 22 22 26 32 36 41 47 54 57 63 70 67 59 49 45 43 42 41 41 42 46 48 50 52 50 47 43 39
90 92 82 90 84 60 69 54 38 39 34 35 37 30 23 23 28 26 25 32 38 42 47 50 58 64 70 69 65 52 48 46 44 44 44 48 51 54 55 52 49 45 40 33
81 99 94 92 66 69 56 38 56 41 48 44 34 29 29 26 24 28 26 32 38 42 46 50 59 64 67 68 62 55 52 49 47 46 50 55 58 56 54 50 45 40 32 22
84 98 98 89 92 84 71 58 54 39 38 37 37 29 21 23 24 25 27 31 38 42 47 52 58 65 68 67 58 57 54 52 49 52 58 59 58 55 52 47 41 31 15 9
74 81 100 93 62 48 57 54 48 47 49 35 33 32 21 23 27 27 27 32 38 44 47 53 59 68 69 67 62 60 58 54 52 59 61 60 57 54 48 41 30 14 9 8
58 57 99 99 83 67 63 59 54 42 39 40 36 34 23 28 29 29 30 33 40 46 49 53 62 67 66 65 61 60 58 55 58 64 62 58 54 49 45 40 21 10 9 10
46 46 42 54 55 66 67 63 50 46 48 41 35 30 26 28 31 31 33 35 40 46 51 55 63 65 63 63 60 57 58 58 64 64 61 56 52 48 42 29 14 10 11 14
52 48 37 31 34 40 47 52 53 54 45 44 33 31 24 23 26 28 32 35 40 46 52 56 63 63 64 62 59 55 58 63 67 66 62 58 52 44 29 13 10 11 16 23
50 49 40 42 38 36 37 37 41 42 40 36 32 31 23 21 23 29 32 34 39 45 51 55 63 64 65 63 59 56 60 68 69 68 64 57 46 32 14 11 12 16 23 30
56 56 46 48 38 42 50 37 36 36 34 33 39 31 25 28 28 29 32 35 37 41 49 57 65 69 68 64 61 59 63 71 70 66 59 49 36 19 11 12 16 24 32 38
54 52 52 61 43 74 36 30 30 33 30 30 32 28 25 28 29 33 36 37 40 45 50 60 68 74 71 66 63 57 69 73 67 59 50 39 26 12 12 16 24 31 38 42
47 58 63 58 50 36 32 33 33 36 36 28 28 26 28 38 47 52 54 48 51 54 62 71 76 76 71 70 66 70 74 71 60 54 42 29 14 13 16 21 28 36 40 39
77 60 72 59 58 59 34 34 30 29 41 25 27 29 35 46 45 47 63 65 60 61 67 72 76 74 74 67 70 73 75 64 55 48 40 18 13 17 21 28 36 38 38 39
91 92 97 90 74 56 35 34 34 39 44 35 32 32 42 42 45 59 63 64 59 56 59 67 75 74 67 70 73 76 69 57 48 47 29 14 17 21 31 37 38 35 39 45
77 91 95 94 94 84 37 40 38 47 46 41 40 42 49 62 65 67 61 56 57 56 67 75 72 69 70 74 78 71 56 49 53 38 15 17 20 32 37 37 38 42 47 46
71 47 54 54 57 48 48 48 51 48 48 49 50 54 58 62 66 60 60 60 62 65 69 72 70 70 75 80 79 57 55 58 39 16 18 20 30 36 38 39 46 48 46 46
46 43 40 41 46 48 49 57 56 52 53 53 55 56 55 61 65 65 62 62 62 66 71 73 70 76 81 83 74 58 60 42 16 18 20 29 36 39 41 49 48 47 46 54
45 45 46 48 54 54 55 54 55 56 57 57 56 55 58 58 65 58 64 64 67 70 75 79 76 80 78 82 65 64 35 17 18 20 27 37 41 45 51 49 47 49 56 69
48 41 44 40 39 39 45 56 60 60 59 53 49 56 58 50 49 59 66 70 71 72 77 83 82 80 79 69 57 28 18 18 19 25 37 43 45 50 49 47 49 52 64 71

GFSCGP_850_rhum_024.txt.gz
RH
55 73 86 74 69 65 57 59 62 48 38 45 45 39 35 29 29 27 25 22 22 29 36 42 49 53 64 71 72 60 57 66 74 84 91 93 92 83 74 70 61 47 40 30
65 84 58 52 57 63 67 75 71 50 38 42 41 37 34 30 28 25 24 23 22 35 40 46 48 51 61 74 79 78 80 82 86 88 84 75 69 67 54 46 38 30 31 35
74 62 56 50 56 62 61 76 72 79 41 35 40 46 40 30 25 23 23 24 24 32 41 44 46 49 54 63 64 74 76 74 76 71 65 61 50 49 40 32 32 35 39 40
60 49 52 68 61 56 71 58 63 77 56 67 43 66 42 34 31 29 26 24 32 36 40 44 51 54 54 53 49 48 50 53 54 52 51 49 44 36 36 36 40 41 40 41
85 69 64 67 73 61 63 56 76 72 73 70 60 63 50 34 32 31 29 22 33 35 39 46 55 59 56 53 49 49 48 50 55 56 48 35 32 34 38 42 43 43 45 45
68 63 74 56 52 61 61 68 85 86 68 86 56 65 51 36 31 30 28 25 34 36 40 49 59 64 59 53 48 43 39 37 35 34 35 35 37 40 44 44 47 47 46 47
81 83 68 76 77 60 69 90 99 100 99 89 50 55 46 26 24 25 28 31 35 36 44 55 62 66 59 53 48 42 37 36 36 36 37 39 42 45 47 49 50 50 49 48
89 72 89 78 91 78 87 95 92 97 91 59 38 58 41 27 24 22 26 32 36 41 49 58 65 66 62 54 52 45 42 40 40 40 41 44 46 48 51 52 53 52 49 45
100 98 78 62 76 74 87 99 76 52 38 51 49 34 26 32 32 29 33 36 39 43 52 58 64 68 65 60 56 49 46 44 43 43 44 47 50 53 54 54 52 48 43 36
83 99 86 81 83 85 85 70 71 66 59 63 54 46 42 37 39 32 38 40 41 44 52 56 63 69 68 64 60 54 50 46 45 46 48 51 54 56 55 54 50 45 35 25
81 93 95 96 94 95 97 85 64 52 50 61 58 45 32 31 34 35 36 39 42 44 51 55 62 67 67 65 62 58 53 50 48 50 52 56 58 57 55 52 50 43 28 15
80 99 100 98 81 79 68 60 57 55 65 56 46 45 28 32 30 34 30 38 41 44 49 56 62 67 67 64 64 58 54 52 51 53 57 59 59 57 54 53 46 35 20 12
85 96 100 100 86 92 83 56 53 52 50 57 50 48 34 38 35 30 32 38 41 45 49 56 62 67 67 66 62 60 58 54 54 58 60 60 59 57 55 49 38 22 13 10
78 93 99 98 87 72 76 65 59 60 64 50 43 41 40 42 41 38 33 37 42 46 50 55 64 68 66 66 61 60 58 56 57 61 62 62 61 59 52 41 23 12 10 13
63 86 79 71 66 62 68 65 65 67 57 54 41 36 36 40 42 39 33 38 44 47 51 54 64 66 65 64 60 57 57 58 61 64 65 64 62 54 45 27 13 11 14 17
50 73 53 47 62 65 65 58 60 57 54 52 49 41 26 26 30 34 34 37 44 47 52 56 63 64 63 62 59 56 56 59 64 67 67 64 57 49 33 15 12 14 17 24
60 66 58 58 42 42 54 46 54 52 50 50 56 39 29 33 36 35 33 37 42 46 53 56 62 63 64 62 59 56 57 63 68 68 65 59 53 40 18 12 15 18 26 30
62 64 73 79 50 75 40 32 33 38 38 40 38 35 30 35 39 38 34 35 39 44 51 56 63 65 65 64 61 59 59 66 69 66 59 55 46 23 13 14 18 27 32 31
50 62 74 71 61 47 39 35 36 43 44 34 36 36 49 48 45 54 46 43 45 46 53 60 67 70 68 65 63 61 61 70 68 60 56 45 27 14 14 18 28 32 32 30
70 68 80 83 77 70 43 35 31 32 55 40 36 38 52 47 66 71 57 54 56 59 63 68 73 73 70 66 66 66 71 71 62 55 50 34 15 15 18 29 33 34 34 29
92 90 91 88 83 76 38 34 33 52 53 44 36 42 51 64 59 62 64 65 65 68 70 71 72 70 70 69 67 70 72 65 54 53 40 16 15 18 29 35 37 36 31 30
91 95 98 94 96 92 38 39 45 53 44 41 45 49 66 66 68 69 69 67 63 61 68 70 68 68 68 68 70 74 67 56 57 46 17 15 18 28 37 39 37 30 32 34
82 69 78 84 80 50 50 51 47 48 45 51 54 55 55 66 67 64 65 62 62 64 67 68 67 68 69 72 76 74 60 58 50 17 15 18 27 38 40 38 34 35 36 42
57 46 53 52 52 52 50 50 50 49 51 53 54 55 55 60 61 62 61 61 62 65 66 67 67 69 75 80 80 64 58 52 18 15 18 26 38 41 39 35 34 37 42 49
52 52 54 55 56 55 53 52 53 54 54 55 56 54 54 53 58 53 56 58 60 64 69 69 70 75 81 80 72 61 54 20 15 18 24 36 41 42 39 34 36 42 46 58
52 50 59 55 46 46 54 55 55 56 56 56 54 59 58 48 56 58 65 66 65 67 72 75 74 75 75 74 64 57 21 16 18 23 31 40 44 42 37 36 36 38 43 56

GFSCGP_850_rhum_027.txt.gz
RH
62 88 89 82 86 70 68 76 80 66 51 56 55 55 49 40 33 37 31 26 27 33 35 37 39 44 57 60 54 54 57 58 64 75 80 82 86 91 91 94 82 55 38 31
77 88 66 60 63 79 75 84 84 65 57 57 56 58 45 39 38 34 32 28 31 41 40 39 43 55 72 76 73 72 73 79 78 80 84 85 87 88 76 54 37 32 35 38
82 65 54 60 67 72 74 83 79 70 62 61 64 63 54 42 34 32 30 27 32 36 39 45 49 58 79 81 84 84 84 84 81 79 82 78 70 56 40 32 34 38 40 40
71 58 59 69 72 62 76 54 54 60 72 86 58 92 60 45 40 36 29 28 33 40 43 48 47 52 71 83 86 86 85 87 85 75 62 49 40 36 34 36 40 41 43 44
89 72 68 69 65 62 69 52 60 61 76 84 76 83 65 44 46 37 32 34 39 39 42 46 46 48 61 63 74 78 72 68 59 48 42 40 34 34 38 42 42 44 46 48
89 68 75 61 52 53 55 65 69 69 77 97 81 90 73 53 40 37 35 38 44 46 47 50 51 50 56 60 57 55 51 54 55 55 49 34 34 38 42 43 47 48 50 50
91 85 74 76 87 72 70 84 90 97 96 85 72 82 72 39 33 33 37 45 46 46 52 56 57 56 58 59 56 54 52 53 52 40 36 37 40 43 45 49 51 51 51 49
97 94 85 71 72 74 83 81 87 87 73 69 72 99 55 39 31 30 38 43 47 54 56 56 57 57 58 54 48 44 41 38 39 38 39 41 44 47 50 52 53 51 49 45
94 91 70 64 60 58 75 92 62 94 97 80 71 52 32 35 40 44 45 48 58 61 57 58 60 57 57 53 46 41 40 40 40 41 43 45 48 51 53 54 53 52 48 39
85 97 67 79 84 68 71 59 91 99 95 98 68 51 48 44 42 47 48 50 60 62 60 60 61 60 60 54 51 47 44 42 42 44 47 49 52 54 55 55 55 53 45 34
95 100 90 97 95 86 91 91 79 78 72 96 79 58 39 43 38 47 48 49 59 59 58 61 65 67 64 59 55 51 48 46 45 47 50 53 55 57 57 57 57 50 38 25
92 99 99 93 79 69 71 75 78 86 100 86 60 51 35 39 39 42 47 49 55 54 57 61 66 70 67 64 60 54 52 49 48 51 54 56 58 59 60 60 53 39 26 14
93 99 100 99 96 91 94 82 74 87 82 69 64 52 42 41 41 39 47 50 54 55 57 62 68 70 68 66 63 59 55 51 51 53 57 59 60 62 62 54 42 28 14 11
84 98 100 100 91 86 97 94 86 77 81 71 60 56 46 43 45 50 46 48 51 53 56 63 68 68 67 66 63 61 57 54 53 56 59 61 64 64 57 48 32 16 11 13
89 99 96 92 81 72 74 74 76 83 77 65 51 50 50 48 46 45 48 50 54 57 61 63 66 67 68 66 63 61 59 56 55 59 62 65 66 60 53 40 19 12 14 20
73 98 89 92 65 66 68 65 71 70 66 58 57 50 35 42 41 43 50 51 56 59 63 65 65 66 67 66 63 60 58 56 58 62 66 66 60 57 46 22 12 14 21 28
65 79 88 84 68 65 72 69 67 65 57 56 62 48 38 44 44 44 49 50 53 55 56 58 63 64 66 65 62 59 57 56 60 66 68 61 58 49 25 13 14 23 30 30
74 71 79 83 58 73 46 38 52 64 54 54 49 40 37 51 58 42 40 44 48 49 53 56 61 65 65 64 61 58 56 57 65 68 62 58 53 34 14 14 24 32 32 29
58 70 81 76 76 58 42 38 40 47 48 44 51 46 54 54 47 60 44 41 44 48 52 56 61 64 64 63 60 58 58 63 67 64 58 55 41 15 15 25 33 34 32 25
68 69 84 89 83 74 45 38 34 36 56 47 42 54 55 51 60 74 62 46 48 52 55 60 65 65 65 63 62 61 60 68 66 58 55 44 16 15 26 35 36 34 30 27
88 90 96 87 91 76 46 37 37 46 47 53 48 50 53 56 54 68 63 57 57 59 62 67 68 68 67 66 63 63 69 69 59 56 47 17 16 26 36 38 37 32 28 28
86 92 95 88 95 91 40 37 39 48 47 57 61 57 69 74 73 72 67 69 68 70 73 73 73 71 68 67 67 69 71 61 57 52 20 16 25 36 40 40 36 29 31 32
93 79 86 83 74 55 51 49 50 49 50 63 59 63 55 69 71 68 70 70 68 66 66 67 65 68 66 66 68 74 66 58 55 23 15 23 33 40 42 40 34 31 32 31
69 63 70 72 58 54 52 49 50 48 48 55 54 57 58 66 66 65 61 61 61 61 63 64 65 66 67 71 75 68 61 56 26 16 22 28 36 40 44 40 33 33 31 30
68 60 61 59 60 55 53 50 54 54 54 56 58 56 56 53 57 53 58 60 62 62 64 64 66 70 76 79 75 64 59 26 16 20 24 30 37 45 45 36 34 34 29 47
55 59 62 66 50 46 50 53 55 55 56 56 53 57 54 46 49 54 58 59 61 63 65 67 70 77 80 78 66 58 27 17 19 22 25 31 42 48 41 36 31 21 28 40

GFSCGP_850_rhum_030.txt.gz
RH
68 90 92 81 88 78 75 79 88 73 60 69 66 61 51 48 49 45 41 34 33 33 31 34 34 30 30 37 40 42 41 40 45 62 72 82 77 79 82 86 92 91 72 39
82 89 67 66 69 83 91 92 86 66 56 58 71 73 58 48 44 45 41 38 34 31 36 38 36 34 38 44 48 49 47 42 58 66 81 81 81 87 86 92 74 37 35 38
87 64 58 68 73 79 80 93 84 82 65 56 53 65 62 51 47 41 40 37 35 33 34 39 39 41 51 55 58 68 70 80 82 80 83 85 88 91 83 52 33 37 39 41
81 65 64 68 75 72 87 68 70 68 65 90 63 83 64 55 51 47 40 38 36 36 36 41 47 58 64 64 70 75 81 86 86 85 84 82 80 70 41 33 37 40 43 44
87 82 77 74 69 63 74 55 59 60 61 71 69 85 70 58 55 50 44 38 35 35 36 43 47 61 77 73 77 83 84 85 85 78 66 65 52 36 33 38 41 44 46 48
92 73 78 66 55 55 60 66 69 70 75 97 66 76 65 64 54 47 42 38 35 44 46 51 59 72 84 87 85 86 89 88 82 62 47 39 32 33 38 41 44 47 50 50
95 97 82 74 77 66 61 84 96 97 96 82 53 76 58 60 54 41 36 39 38 49 50 55 62 69 74 82 86 84 81 70 53 48 42 35 36 40 42 45 49 51 51 50
99 90 95 81 81 82 80 78 92 93 99 62 74 86 66 50 38 36 38 36 52 60 54 55 57 62 64 65 64 59 54 52 56 51 37 38 42 44 46 50 52 52 52 48
96 90 73 68 65 62 84 95 63 88 82 98 82 75 56 52 46 48 49 56 63 69 63 58 59 59 62 62 60 57 56 56 53 41 40 42 45 48 51 53 54 54 53 46
78 95 78 69 74 69 62 62 89 95 98 98 88 72 41 48 56 59 58 61 70 79 76 64 62 61 62 60 58 54 49 43 44 42 42 45 48 52 54 55 56 56 50 39
70 98 88 90 99 90 97 89 75 65 78 95 98 78 40 37 47 57 58 64 75 80 70 65 65 62 58 54 48 45 43 42 43 44 46 49 52 55 57 58 59 54 41 29
87 100 98 89 75 71 72 74 69 76 70 70 98 74 45 41 48 47 53 65 74 75 72 66 65 62 59 54 50 47 46 44 44 46 50 53 56 58 60 62 56 44 30 17
93 100 98 99 99 84 81 70 62 53 80 72 89 71 45 50 52 50 58 67 72 75 72 68 68 65 60 57 55 52 49 47 47 49 53 56 58 61 63 58 49 35 18 12
89 100 99 96 91 89 99 84 70 61 88 69 95 85 56 50 53 60 59 66 69 68 67 70 72 68 63 61 60 57 53 50 50 52 56 58 62 65 60 54 39 19 13 14
92 100 100 97 94 95 78 90 83 78 68 78 61 80 62 48 51 57 59 65 70 75 76 71 71 71 68 66 65 61 56 52 51 54 57 61 66 62 57 43 22 14 14 24
88 100 100 99 84 94 93 82 78 82 85 92 69 59 42 51 51 59 60 64 68 73 74 72 69 69 69 68 66 62 57 54 54 55 60 65 63 58 47 26 14 14 25 29
86 97 100 100 77 90 99 94 88 96 84 80 74 47 47 46 49 62 60 59 62 68 67 66 65 66 68 68 66 62 59 56 55 59 64 65 58 52 33 16 15 27 31 30
68 75 87 98 67 74 48 41 57 60 58 53 54 41 43 50 57 50 54 54 58 60 65 66 65 67 68 68 65 62 58 56 56 62 66 58 54 43 18 15 28 34 32 29
75 76 92 97 86 59 44 41 51 64 59 57 56 54 62 59 52 60 50 52 51 54 59 61 62 64 68 67 64 60 57 56 60 65 61 57 50 21 15 28 36 36 32 27
73 74 87 95 83 73 47 39 36 38 58 48 46 60 63 57 60 66 57 52 53 56 56 58 62 66 67 65 62 58 57 58 65 65 58 53 26 15 28 37 39 38 31 28
85 84 92 93 94 76 53 40 39 48 47 51 51 55 55 52 56 64 66 60 56 56 58 62 65 66 65 62 59 58 59 64 66 58 56 31 15 26 37 40 41 37 31 29
90 92 94 92 94 78 46 37 36 44 59 65 66 61 64 73 72 70 67 63 63 61 64 65 66 65 62 60 61 61 67 68 59 57 36 16 24 36 40 42 42 35 31 27
88 81 87 82 76 59 52 49 52 51 56 65 67 66 58 76 74 71 71 69 68 67 68 67 67 65 63 63 65 70 70 62 59 43 16 22 31 38 43 45 40 32 29 20
77 69 80 73 60 56 51 51 51 49 51 58 61 64 62 69 73 73 73 73 72 73 73 72 69 67 66 65 70 72 66 60 49 17 20 26 33 40 46 46 36 32 23 21
77 71 71 73 57 55 52 50 53 53 55 58 65 62 63 65 73 70 69 68 66 65 64 64 64 65 67 70 73 66 62 49 17 18 24 28 35 44 48 42 35 28 22 28
60 68 69 72 50 49 51 49 56 56 61 59 58 66 63 54 53 55 57 57 57 59 62 64 66 70 74 76 71 62 49 19 18 22 26 30 39 49 47 37 30 21 24 25

GFSCGP_850_rhum_033.txt.gz
RH
71 88 89 73 84 83 85 86 87 77 62 72 77 76 66 56 52 52 52 47 44 36 33 32 32 32 34 33 34 43 56 62 65 66 77 86 84 89 90 92 87 85 88 85
85 94 76 70 74 85 93 93 91 75 64 63 65 65 58 46 47 53 48 48 43 40 37 33 32 34 34 34 37 41 43 51 58 64 71 81 75 79 79 78 81 91 59 35
88 64 59 67 78 82 84 92 80 81 68 65 71 61 43 38 45 50 50 45 41 37 37 35 32 35 35 36 38 43 47 47 49 63 73 86 81 77 80 80 87 52 35 39
86 66 70 74 77 79 88 70 71 76 85 94 62 79 53 47 49 51 48 48 44 41 38 37 33 39 36 45 47 56 55 53 66 77 79 82 81 78 87 82 49 34 40 43
86 90 88 87 75 66 74 60 72 79 87 86 72 88 63 51 48 49 58 49 44 41 39 36 35 38 44 53 55 73 78 84 86 86 85 85 86 88 79 44 34 40 43 47
72 70 80 76 63 59 63 73 78 94 80 95 67 81 57 45 51 56 54 48 44 40 40 38 38 50 59 66 69 85 90 92 92 91 91 88 83 70 42 34 40 44 48 50
99 96 86 80 84 67 63 99 97 97 97 85 58 72 58 44 50 52 51 45 40 40 44 43 47 68 69 73 82 89 91 91 90 81 73 68 52 35 35 40 44 48 50 52
96 89 88 80 84 86 79 86 92 95 90 77 58 79 56 41 34 29 28 41 40 46 49 45 53 65 71 76 85 90 94 91 85 67 51 41 35 38 42 45 49 51 53 53
98 91 78 80 72 69 95 96 68 88 93 96 79 64 46 40 43 53 50 38 41 48 59 55 63 68 77 81 85 87 89 85 62 51 44 39 41 44 46 50 52 54 56 53
77 97 76 74 76 70 74 67 94 98 93 93 81 76 48 40 30 21 52 60 59 66 74 76 72 72 78 83 85 82 77 62 58 54 42 42 45 48 51 53 55 58 56 46
73 89 89 96 98 85 92 98 80 69 86 96 99 66 55 39 31 34 64 66 73 78 82 79 74 70 69 71 70 66 64 62 60 47 45 45 48 52 54 57 60 58 49 36
74 99 97 82 81 68 69 81 78 77 88 74 95 69 46 56 50 58 73 73 83 90 86 76 68 66 66 65 65 64 61 56 50 46 46 49 52 55 57 61 60 52 41 26
88 100 97 95 96 97 100 96 95 69 62 72 69 50 53 39 65 56 75 85 91 90 81 71 65 66 65 64 61 58 52 48 46 46 49 52 55 58 62 61 56 46 28 16
82 100 99 91 85 98 99 95 97 85 76 68 66 50 38 38 63 71 78 86 93 86 79 70 68 66 63 58 53 50 48 46 46 48 51 55 58 62 63 59 50 32 18 14
88 99 98 95 93 95 100 92 84 84 64 69 58 68 59 43 56 67 77 86 90 90 82 72 68 64 61 57 54 51 48 46 47 50 54 58 61 64 60 53 37 20 15 20
92 98 100 97 84 95 100 97 77 72 60 63 75 67 47 50 56 66 74 79 85 89 82 75 70 66 62 59 57 54 51 49 50 52 56 60 64 61 55 42 27 15 22 30
96 99 100 98 99 97 100 95 78 76 65 59 90 67 52 58 57 64 71 73 78 80 75 73 68 66 63 62 61 58 55 52 51 53 57 63 62 58 49 32 17 23 32 32
90 97 99 100 89 97 71 78 78 79 78 77 78 72 68 58 56 60 64 66 70 73 74 73 71 71 68 66 65 62 57 54 54 55 60 64 59 54 40 18 23 34 35 34
71 83 97 100 98 66 52 87 93 95 91 82 80 77 59 65 57 65 60 59 60 62 62 62 64 68 70 70 67 62 58 56 55 58 63 61 56 48 21 22 34 37 38 35
84 88 93 94 98 79 49 43 43 54 80 64 68 65 67 59 62 60 58 57 58 60 60 59 65 69 71 70 66 62 58 56 55 62 63 58 52 25 19 33 38 40 40 36
94 90 94 94 84 79 55 50 42 51 49 51 50 58 64 56 68 60 59 61 58 58 60 64 67 68 70 69 64 60 57 55 60 64 58 54 32 18 31 37 40 43 40 34
79 91 94 88 97 74 54 40 40 45 61 65 64 58 67 77 80 73 68 67 65 64 68 68 68 71 70 66 61 58 57 59 64 60 56 36 18 28 35 38 44 44 38 31
90 80 88 86 79 61 53 54 55 56 59 66 70 70 57 74 76 73 73 73 71 68 69 70 68 69 64 60 58 60 61 66 62 57 39 18 24 32 36 42 46 43 34 24
79 77 82 74 62 62 53 51 54 54 59 68 70 68 56 66 73 73 73 72 70 70 69 68 66 63 59 59 61 66 70 62 57 46 18 22 29 33 39 46 46 38 29 21
78 76 76 78 65 60 53 52 55 56 59 66 75 71 68 65 71 69 69 68 68 67 66 65 66 65 64 64 66 67 64 60 48 18 21 26 28 34 44 48 42 34 24 24
72 77 77 74 58 54 52 52 56 55 62 64 65 74 72 65 68 69 71 71 71 70 70 68 66 66 66 68 70 66 60 43 18 20 24 26 31 42 49 45 37 26 23 22

GFSCGP_850_rhum_036.txt.gz
RH
74 88 92 76 74 70 89 94 94 80 66 78 77 72 62 55 59 64 58 54 50 44 44 40 37 35 32 32 31 29 31 39 52 69 75 84 88 94 91 94 99 97 89 84
84 95 76 69 72 86 91 90 78 65 68 72 69 67 55 51 52 52 53 53 53 43 40 42 41 35 32 34 32 31 32 49 61 73 76 81 93 94 94 97 96 85 88 86
90 67 66 75 82 85 88 93 80 73 68 65 75 64 38 34 36 42 41 42 46 49 42 38 38 38 34 35 32 32 34 49 64 73 76 86 96 95 96 94 82 78 69 38
91 70 73 79 83 84 85 70 76 79 87 90 71 75 44 41 40 35 35 45 48 47 44 40 38 36 35 36 37 38 41 48 54 69 78 77 83 81 79 81 78 76 43 38
81 90 94 90 77 72 75 66 77 79 91 95 82 92 59 48 44 42 61 46 43 41 34 37 39 35 36 39 40 45 48 57 58 70 81 85 88 79 68 70 71 49 38 43
74 68 76 81 70 68 64 74 79 87 96 97 70 84 56 41 36 40 48 40 38 42 43 37 37 38 38 45 51 55 56 59 61 75 88 80 86 79 76 72 49 38 43 47
84 92 78 76 85 74 76 97 97 97 95 84 62 76 58 40 37 43 45 45 41 38 39 43 41 40 43 50 59 66 71 75 84 85 83 84 85 86 82 57 38 42 47 50
92 87 90 78 79 76 86 80 91 92 93 82 61 82 53 44 36 32 30 33 33 44 47 46 43 42 44 50 62 73 85 91 90 88 90 91 87 72 43 39 43 48 50 53
96 91 72 82 78 70 94 96 69 91 74 94 72 75 51 40 35 38 52 39 32 30 38 46 49 46 51 57 68 80 92 96 95 94 86 72 52 39 40 43 49 52 54 56
75 95 74 79 80 78 81 67 97 98 95 93 84 79 62 45 40 31 26 33 39 44 47 52 57 61 66 71 78 92 95 94 90 75 59 45 41 44 45 50 52 55 58 55
79 88 89 92 98 83 97 98 100 79 87 92 89 54 50 52 57 62 56 26 31 32 47 58 67 74 75 84 91 95 96 91 77 56 47 43 44 46 51 53 56 59 57 50
75 96 96 82 58 67 62 90 80 97 92 87 88 57 44 66 63 64 67 62 59 65 74 80 81 87 87 87 92 93 88 80 61 54 46 45 46 51 54 57 60 59 54 48
74 98 98 84 92 78 100 96 96 84 92 81 82 55 32 31 35 72 87 94 95 92 91 86 84 90 87 86 86 82 75 66 60 50 46 48 51 54 58 61 61 58 51 37
71 91 94 85 70 78 100 98 98 97 96 79 74 52 34 33 48 63 85 97 99 94 90 85 85 84 82 80 77 72 67 62 53 48 47 50 54 57 61 62 60 53 41 25
82 99 98 94 85 87 96 100 98 98 86 90 59 55 44 47 46 56 70 97 100 93 88 82 77 73 71 70 67 63 59 53 48 48 50 54 57 61 62 61 55 42 28 19
87 100 100 96 83 96 99 98 100 95 92 79 62 59 40 48 57 60 74 96 99 96 88 80 72 68 67 65 61 56 51 47 47 49 53 56 60 63 62 57 45 29 20 25
96 100 100 92 91 100 100 99 98 95 75 70 79 56 42 55 56 65 75 90 93 93 85 76 69 67 65 60 54 50 47 46 48 51 55 58 62 62 58 48 32 21 26 32
90 98 100 98 99 96 76 79 85 92 70 64 57 57 64 64 66 65 64 81 86 91 84 75 69 66 61 56 53 50 49 48 50 52 55 60 62 59 52 38 24 25 33 36
76 88 100 100 98 86 60 89 90 97 90 76 72 59 58 67 69 69 68 72 75 80 73 68 68 65 62 59 57 55 52 51 51 53 57 61 60 54 42 25 24 33 37 40
86 83 98 94 99 97 58 52 73 72 87 79 75 75 76 68 70 66 66 67 70 72 70 68 70 67 64 62 62 59 55 52 52 55 60 60 53 43 29 23 32 37 40 42
99 99 98 99 97 81 56 55 65 76 51 60 77 76 82 79 76 81 71 68 66 65 66 70 71 69 69 67 65 60 57 54 55 57 59 54 48 34 22 31 36 39 42 42
84 91 87 89 96 80 54 49 54 51 56 59 58 63 69 65 66 77 72 68 68 69 74 72 70 73 72 70 65 60 57 54 55 58 55 51 38 22 30 34 37 42 44 40
85 79 87 84 82 61 58 54 57 58 62 67 71 66 63 64 82 85 81 78 74 71 72 73 71 73 71 67 62 59 55 55 58 58 54 40 22 27 31 34 40 44 43 34
78 78 86 80 64 63 57 55 58 59 68 73 76 71 65 71 78 78 79 78 75 75 74 75 74 72 66 60 58 57 57 60 60 56 43 22 24 28 31 37 43 45 38 23
78 82 80 80 72 64 56 56 59 60 67 74 76 70 67 68 74 75 76 75 75 75 75 73 70 65 59 55 57 60 64 61 57 44 21 23 26 28 33 42 46 42 26 24
81 78 81 76 59 56 55 60 65 63 66 71 66 72 71 68 70 71 72 72 72 71 70 66 62 59 58 60 65 65 61 57 38 19 22 25 26 30 38 47 45 28 22 21

GFSCGP_850_rhum_039.txt.gz
RH
74 82 89 78 76 70 82 90 87 66 61 68 67 66 56 50 52 55 52 48 49 44 43 46 45 41 37 36 34 32 31 30 32 34 58 80 84 86 91 89 92 96 97 95
88 91 72 69 72 77 79 84 78 65 58 66 68 68 53 48 46 42 42 44 47 37 38 40 43 43 41 37 34 34 34 36 33 38 53 77 84 82 90 98 98 100 98 87
88 67 67 73 79 83 87 90 78 75 64 60 66 59 36 31 36 38 42 43 42 42 35 34 36 40 42 40 34 34 35 36 36 45 63 84 90 98 100 100 100 100 90 79
91 73 74 84 84 82 85 68 71 79 84 82 64 70 40 33 30 27 29 34 41 40 40 28 32 37 39 39 36 35 37 39 44 59 72 80 81 94 99 100 100 86 68 60
82 86 94 85 76 76 75 64 72 77 86 93 75 89 47 45 43 38 34 30 29 29 32 31 26 32 38 37 38 36 39 44 47 64 80 88 92 96 96 97 89 72 61 46
73 69 73 76 70 68 66 78 74 85 94 95 65 82 53 39 33 31 28 28 29 34 36 38 34 31 38 39 40 41 43 50 55 66 81 89 90 96 94 86 75 65 48 42
86 85 77 71 80 76 73 100 92 92 96 79 60 78 55 38 36 34 33 33 30 29 33 40 48 42 42 42 42 45 48 56 62 72 84 93 96 94 80 75 70 59 43 45
88 86 83 76 78 64 80 79 86 93 87 74 65 75 50 40 36 34 34 34 30 30 32 47 40 46 44 42 44 48 52 62 67 78 88 96 95 84 79 69 49 43 46 48
96 88 67 82 78 68 84 96 67 88 70 87 58 53 38 31 34 39 35 33 38 33 35 28 47 49 46 46 47 46 56 68 72 86 91 93 90 87 70 48 44 47 49 52
77 93 70 78 81 79 82 69 94 96 95 91 68 66 51 44 35 39 55 54 54 31 26 35 30 48 52 57 59 67 71 80 88 82 88 93 86 61 46 43 47 50 53 56
75 81 80 85 94 84 89 95 99 95 96 88 70 48 38 34 42 64 63 69 62 51 31 33 50 56 58 70 78 85 90 92 90 87 90 78 57 44 44 48 52 54 57 56
77 92 98 82 68 66 64 72 79 96 93 92 81 62 31 54 67 63 65 69 68 68 55 56 59 65 78 91 98 99 97 90 92 85 70 53 44 44 49 52 56 58 58 56
78 97 95 80 80 78 94 79 70 94 94 95 93 58 31 32 39 52 62 84 80 91 91 89 90 89 95 100 100 98 95 90 80 61 50 45 45 49 53 56 59 58 56 48
65 96 87 85 61 62 98 97 99 98 96 76 88 60 42 38 37 51 52 85 92 95 94 95 95 98 100 100 100 93 87 80 65 50 46 46 49 53 57 59 60 56 49 42
85 100 90 78 76 82 96 97 96 98 88 94 59 67 54 43 57 52 51 79 95 98 94 94 94 97 99 99 95 86 78 66 54 48 47 49 53 57 60 60 57 50 42 31
88 98 98 96 82 82 99 95 100 97 88 94 80 76 54 44 56 62 65 79 89 98 92 89 92 91 91 90 83 73 64 57 51 48 49 53 56 59 60 58 52 41 31 26
89 97 100 95 78 84 94 97 99 96 88 80 94 69 55 54 50 56 69 78 92 97 89 85 88 86 84 81 76 67 60 53 48 49 52 56 59 60 59 53 44 34 27 30
86 92 100 96 93 93 65 83 87 96 84 78 69 59 54 60 62 66 68 78 98 93 87 81 80 77 74 70 65 60 52 48 48 51 55 58 60 60 55 47 37 28 30 34
85 87 100 100 98 78 59 64 88 95 82 80 70 63 57 62 68 69 74 80 86 89 82 77 72 69 66 62 57 52 47 47 50 53 56 58 58 56 49 39 32 29 34 38
93 84 90 99 99 97 65 62 72 78 86 74 69 68 73 76 81 78 83 82 87 86 76 72 70 67 62 56 51 47 46 49 52 54 56 58 56 50 43 34 28 34 37 39
99 91 95 96 99 86 61 63 73 75 73 63 74 73 78 85 83 84 85 87 85 80 75 73 69 64 59 53 50 49 50 50 52 54 57 57 53 47 42 27 32 35 38 41
86 96 94 89 96 92 56 54 57 51 58 60 62 76 79 79 77 77 81 86 88 84 83 75 69 65 59 55 53 53 51 51 53 56 58 56 54 41 26 30 32 37 41 43
83 78 85 78 77 60 61 59 54 62 68 66 66 61 62 77 83 72 77 78 81 81 80 77 71 66 61 58 57 56 54 54 55 57 58 54 41 25 28 30 34 40 44 38
78 79 86 81 64 75 58 55 61 63 69 74 77 73 66 61 72 80 88 85 85 84 82 79 74 68 62 58 56 58 56 54 58 59 55 42 24 26 28 31 38 45 40 24
80 84 81 82 72 66 61 62 63 70 79 74 75 71 66 63 77 78 80 83 83 82 81 78 74 69 62 56 56 55 56 59 60 55 41 22 24 26 30 38 46 42 25 20
85 81 82 76 60 60 58 60 66 69 74 72 66 71 73 69 74 76 80 80 79 78 78 74 69 63 56 54 57 59 60 57 56 38 21 23 26 29 37 47 44 25 18 18

GFSCGP_850_rhum_042.txt.gz
RH
63 68 71 52 50 47 53 54 58 46 42 45 41 37 33 30 32 31 32 33 33 33 37 41 43 46 47 36 29 35 33 32 32 36 89 96 98 91 86 89 91 94 95 90
74 79 53 49 50 57 56 58 54 45 41 45 42 40 32 29 30 30 29 25 23 24 25 30 38 40 45 46 39 36 34 33 32 42 63 94 88 84 80 88 90 100 97 95
66 56 52 58 62 66 60 60 54 53 45 44 48 43 29 22 22 24 26 26 26 25 24 24 24 33 43 48 46 39 35 33 34 46 79 74 72 88 96 100 100 100 100 97
63 51 59 63 63 57 63 48 56 59 61 65 49 52 31 25 24 22 21 22 24 26 28 28 25 25 37 46 43 42 36 34 39 40 46 53 66 86 100 100 100 100 100 91
71 70 73 71 63 55 61 51 54 57 66 70 59 83 32 23 28 23 20 20 21 23 25 27 30 29 32 40 39 41 40 38 40 40 47 75 93 100 100 100 99 100 94 66
55 58 58 54 53 55 55 61 61 60 78 85 45 62 33 17 15 18 18 20 20 21 26 29 30 36 37 45 36 39 41 40 43 44 59 87 96 93 99 98 99 98 71 58
68 68 59 60 66 62 67 84 77 80 89 64 35 44 39 20 24 24 22 19 21 23 27 32 37 43 47 51 44 40 43 44 48 52 72 87 94 97 99 98 97 89 70 48
74 73 67 65 65 67 85 66 64 69 54 33 42 53 27 21 26 26 24 21 28 30 31 28 38 51 55 57 43 44 48 51 55 61 75 90 98 99 99 94 89 67 51 48
74 79 58 62 60 55 64 85 56 73 57 65 38 28 21 19 20 20 22 32 35 35 34 36 33 50 57 70 48 47 54 58 64 72 82 90 98 99 97 86 68 64 46 46
64 89 57 62 68 64 60 50 80 88 81 65 41 36 33 26 25 24 24 33 35 42 47 40 34 52 66 75 60 69 68 70 72 77 81 87 93 97 80 74 58 46 48 51
63 69 72 75 82 68 80 89 77 75 75 68 67 42 23 24 22 22 37 38 41 55 58 46 41 60 78 88 90 83 81 78 77 82 84 93 91 80 82 60 47 48 52 54
58 77 84 74 48 45 44 58 62 92 84 87 81 62 27 28 27 40 37 34 44 65 74 69 66 80 92 98 94 85 84 82 83 89 93 89 87 83 56 46 49 53 55 54
62 92 86 69 72 60 76 65 59 84 86 92 87 58 29 30 38 35 34 35 41 68 78 85 88 91 93 93 89 89 89 88 90 86 90 91 69 46 45 50 54 55 55 53
60 78 85 73 47 52 93 86 92 99 96 71 74 58 38 30 33 30 31 37 54 72 81 86 87 89 90 89 92 94 93 91 86 89 82 60 46 46 50 54 56 56 53 48
68 99 79 76 65 61 72 83 94 99 94 95 59 52 41 37 39 36 36 44 65 83 87 88 87 88 84 88 96 95 92 88 87 74 53 46 47 51 55 56 56 54 48 41
75 88 81 95 60 64 91 80 94 96 96 97 92 80 46 42 42 41 48 57 75 86 90 86 84 80 74 92 97 92 87 77 64 50 46 47 51 55 57 56 54 48 41 34
80 90 95 91 63 67 82 84 96 94 88 80 97 64 47 48 53 50 56 61 64 88 87 83 78 73 86 94 93 85 75 61 49 48 48 52 55 57 56 54 48 42 36 31
79 87 98 97 77 77 60 67 80 93 86 75 65 57 52 49 50 62 88 80 82 92 82 79 76 82 89 89 86 81 61 51 48 49 52 55 56 57 54 49 42 37 32 31
69 72 99 96 86 56 56 56 68 93 81 66 72 61 55 54 63 93 97 92 87 83 78 82 90 90 82 82 69 56 49 48 49 52 54 56 57 56 51 45 38 34 31 34
76 78 97 90 91 75 55 55 67 69 96 60 68 64 60 64 64 76 99 97 90 80 76 79 78 74 70 61 56 53 48 49 51 54 56 56 55 52 46 40 42 31 34 36
100 100 97 90 95 66 46 50 70 75 88 66 74 73 71 67 80 94 100 95 90 80 78 76 72 69 65 58 53 49 48 50 52 55 56 56 52 48 55 33 30 32 35 37
85 93 94 96 100 87 50 50 56 50 59 66 76 73 83 84 92 96 97 93 89 83 75 70 66 62 59 57 49 47 48 51 53 55 57 55 50 42 34 29 30 32 36 41
67 59 58 59 58 45 56 56 60 64 65 67 73 74 84 84 87 91 92 91 87 81 83 85 71 67 51 46 46 49 51 52 54 56 55 50 46 35 27 29 31 36 42 41
62 60 62 67 49 55 56 62 60 65 76 81 79 77 86 86 83 84 87 88 87 82 76 68 63 54 50 48 50 53 52 54 55 55 51 48 35 26 28 29 33 42 42 24
58 67 62 62 52 50 56 68 67 67 74 75 77 76 74 74 81 88 90 86 85 81 75 68 61 56 53 50 51 54 54 54 55 54 50 34 25 26 28 32 43 42 24 18
63 59 59 51 52 54 57 70 68 71 73 73 72 73 77 76 82 82 83 83 83 81 76 68 62 58 53 52 54 53 54 56 58 52 30 24 26 27 31 44 42 22 18 18

GFSCGP_850_rhum_045.txt.gz
RH
53 56 57 43 37 35 43 42 40 33 29 34 34 32 27 23 23 24 25 25 25 25 28 29 32 34 33 32 35 38 38 42 48 58 72 79 80 84 96 96 100 89 89 81
67 76 43 37 39 43 45 47 42 34 30 37 35 33 27 25 23 23 23 23 23 22 23 24 26 32 35 36 40 41 39 43 46 58 63 76 82 86 94 96 99 94 87 88
63 49 44 46 50 53 49 48 44 42 35 34 37 37 25 20 22 23 23 23 23 23 21 19 19 24 32 36 38 42 41 46 49 60 75 83 86 89 100 100 99 93 88 91
54 43 48 51 54 48 54 37 42 46 52 54 40 56 31 22 19 19 18 19 20 21 21 22 20 19 20 31 38 42 44 50 60 71 76 74 57 70 82 100 100 100 99 99
63 59 56 58 50 44 52 45 48 49 57 66 53 63 34 18 16 15 15 16 17 18 19 20 21 24 23 22 33 46 48 56 70 69 79 64 75 82 87 100 99 100 99 99
48 47 49 50 46 46 49 53 55 55 63 87 47 46 32 16 12 13 11 15 17 18 18 20 22 24 26 27 30 47 56 65 77 81 62 58 88 77 80 99 100 100 99 98
59 56 49 46 56 51 59 68 78 85 89 65 26 31 31 16 16 16 16 16 16 17 19 20 23 26 28 30 31 50 65 71 80 63 71 76 96 77 85 100 99 99 99 92
72 78 54 56 59 63 65 66 64 68 49 37 27 41 25 14 17 19 19 20 18 19 23 29 29 26 31 36 39 53 72 73 71 70 85 94 94 85 93 100 98 98 94 71
61 68 49 51 52 51 68 89 53 70 53 60 35 21 16 15 16 16 17 19 21 24 29 36 38 33 33 43 47 58 76 74 72 81 91 93 89 93 98 100 98 95 77 58
53 83 52 53 53 52 51 43 79 87 81 60 32 29 28 22 20 19 20 20 23 28 34 41 37 36 30 44 51 69 74 77 81 88 87 85 88 98 92 96 90 80 70 58
52 61 70 63 75 66 67 73 66 52 61 59 57 37 20 24 22 22 21 20 28 31 38 49 41 36 36 50 62 72 76 80 84 82 78 78 92 93 94 87 70 62 60 48
52 68 82 70 45 41 43 56 59 85 65 70 71 58 26 25 24 24 24 28 30 29 45 58 52 48 54 63 75 78 79 82 77 72 74 84 96 92 85 62 70 60 49 51
53 79 82 79 63 47 58 52 49 66 79 92 90 58 24 23 27 26 29 31 28 29 45 64 65 66 71 79 82 80 79 76 72 74 83 91 87 77 66 76 67 52 52 52
49 65 84 71 59 53 98 71 66 98 96 69 70 56 40 35 36 34 28 29 32 32 60 69 70 73 79 85 80 78 74 71 73 78 83 77 68 74 76 52 51 52 52 51
60 92 69 68 58 56 62 68 68 96 96 97 68 70 56 53 48 40 38 36 34 49 72 78 77 77 82 82 75 69 66 65 80 81 77 75 73 56 49 50 52 52 52 49
70 86 74 92 62 57 68 54 55 73 95 93 95 93 62 48 40 48 45 39 57 64 84 86 82 84 76 71 67 63 65 70 77 80 76 59 50 48 51 53 54 52 48 45
84 97 98 78 55 51 76 69 75 92 90 93 90 58 45 48 61 79 76 80 71 74 89 83 82 72 69 73 68 64 72 81 77 70 58 56 50 52 53 54 52 48 47 43
78 90 90 77 56 75 42 48 60 74 80 69 72 62 56 54 55 86 94 92 82 85 82 79 74 69 72 72 66 68 76 71 64 55 57 52 53 54 54 53 49 47 44 35
73 95 83 78 65 49 40 49 57 80 86 67 70 59 54 55 86 92 100 86 84 78 76 73 69 71 71 75 76 67 58 54 61 56 57 54 54 55 53 50 46 54 48 30
71 78 96 74 84 73 49 49 58 65 97 58 77 74 65 59 94 96 96 79 77 77 78 75 77 81 79 80 76 77 66 75 80 69 54 54 54 55 51 47 86 45 30 32
93 98 95 84 85 55 36 44 67 65 81 61 80 79 70 68 81 98 99 78 73 82 91 91 89 95 96 90 83 73 61 52 52 54 54 55 54 50 67 82 35 29 30 32
82 90 92 98 98 81 42 47 60 52 64 62 85 77 80 81 90 95 86 78 71 66 63 58 55 53 51 50 50 50 51 52 54 55 56 56 69 94 53 35 28 29 30 35
61 59 82 63 55 36 46 49 51 58 58 61 70 85 88 88 96 94 86 87 78 68 62 59 59 56 52 51 59 59 56 55 55 61 74 76 61 45 35 27 28 29 34 41
48 43 55 53 41 43 44 49 61 71 68 74 76 77 97 86 91 87 84 80 83 84 90 87 82 80 76 67 54 52 53 58 69 61 54 51 47 34 26 26 28 36 43 29
50 55 54 51 44 44 54 62 68 74 74 73 77 81 84 88 87 89 93 80 75 76 68 59 58 55 49 48 51 53 54 54 55 56 54 48 32 24 25 27 38 43 29 18
51 50 56 48 49 50 53 69 73 73 75 74 76 78 80 84 89 86 78 77 74 67 61 58 54 49 51 52 54 53 53 54 57 56 46 29 24 25 30 41 43 28 18 18

GFSCGP_850_rhum_048.txt.gz
RH
67 72 75 58 54 46 43 45 50 36 30 35 38 37 32 27 26 26 26 26 27 29 29 27 26 27 25 26 29 36 37 38 37 50 72 81 72 94 77 79 81 91 88 80
62 76 48 38 38 44 43 51 52 40 31 36 40 40 33 29 27 24 24 24 23 24 25 25 26 29 30 30 28 28 35 39 38 38 53 76 80 77 77 79 86 96 98 86
66 52 44 48 47 53 52 55 50 47 40 39 43 46 37 27 27 27 26 24 23 22 23 23 23 24 26 31 33 33 32 37 42 40 52 78 82 76 82 90 86 94 99 88
54 44 44 53 55 49 58 42 43 47 54 68 49 81 41 30 27 24 22 22 23 23 22 23 23 22 21 23 30 35 37 38 39 43 58 70 74 74 80 76 84 93 100 97
66 53 58 58 51 45 51 46 48 51 62 71 58 78 55 26 26 19 20 19 18 18 19 20 21 21 22 22 24 28 33 40 41 47 62 70 74 71 61 74 89 98 98 98
52 44 49 50 44 43 49 52 56 58 68 90 66 65 56 28 22 19 17 15 16 16 17 18 19 20 22 23 22 25 33 40 43 55 68 78 61 62 68 83 100 99 99 100
60 60 48 46 54 50 55 59 91 98 99 91 35 57 48 26 21 21 19 16 17 16 16 18 21 25 24 23 26 24 29 42 47 63 80 86 71 67 62 66 84 97 98 100
79 83 61 50 56 67 69 71 94 85 86 68 45 55 35 22 18 19 17 18 18 19 19 20 28 33 33 34 28 28 26 51 55 75 84 88 92 72 63 63 83 97 99 96
73 74 49 51 50 52 68 86 56 76 61 84 52 28 21 17 18 18 19 19 19 19 21 26 33 38 34 35 31 32 32 59 66 82 87 87 91 80 76 72 100 100 99 92
56 85 53 56 52 52 58 49 84 94 94 85 53 40 36 26 28 24 23 21 21 21 25 30 39 42 39 36 33 38 41 64 75 82 89 91 94 94 83 93 100 100 98 82
48 60 69 64 76 74 72 78 68 67 80 90 86 52 29 32 32 34 32 26 25 27 30 32 43 36 43 35 41 45 52 72 79 88 89 93 94 92 90 98 100 99 84 66
50 70 94 79 54 53 55 62 66 89 82 85 97 71 32 33 29 30 33 30 28 28 31 38 43 42 51 46 45 51 66 72 82 88 91 94 90 88 97 98 94 77 62 57
57 84 80 71 63 50 62 58 58 64 80 85 90 67 28 30 35 35 36 36 31 30 30 53 58 54 63 62 59 65 77 86 88 88 89 84 82 95 92 87 73 63 62 54
49 70 90 95 74 71 91 70 64 80 98 74 75 66 51 45 51 54 54 51 43 39 41 64 63 67 78 72 80 85 86 83 83 82 76 78 86 84 82 64 63 66 60 59
61 90 77 76 66 60 67 73 76 88 84 95 67 69 63 70 65 60 61 70 62 50 55 73 70 71 77 94 86 83 78 75 73 71 75 74 70 67 63 63 63 68 56 49
64 92 82 92 65 62 77 67 66 66 70 95 94 95 74 58 46 54 65 67 81 73 73 74 78 79 88 85 78 75 73 70 68 70 64 60 59 62 67 66 56 50 52 51
84 90 97 86 63 60 76 65 63 83 85 90 97 78 63 67 57 81 88 89 87 80 74 79 87 86 78 72 71 70 63 58 60 58 56 59 63 58 52 53 54 50 49 51
74 84 88 95 72 89 48 54 62 73 77 76 80 67 61 61 82 97 96 93 85 82 83 91 86 80 78 71 68 60 56 58 56 59 54 53 53 60 55 49 49 50 54 54
69 92 100 85 66 58 52 55 57 70 84 76 79 80 70 75 85 93 86 79 82 79 80 79 74 70 64 59 58 58 62 61 60 52 57 66 70 58 48 48 54 56 61 44
73 87 100 95 91 81 49 54 54 70 98 68 85 83 76 74 92 98 82 78 74 73 74 71 66 64 63 68 68 72 70 76 75 79 80 76 76 70 64 52 72 73 55 30
98 100 100 95 93 70 41 61 69 92 79 64 84 88 76 90 94 93 84 92 94 86 77 73 74 74 82 79 83 78 81 81 87 90 90 93 72 47 63 93 81 51 28 28
82 92 92 92 96 92 44 51 66 61 58 66 76 81 82 89 90 80 70 81 84 92 100 98 99 100 99 99 98 99 100 99 94 72 52 47 55 92 97 57 30 27 27 30
76 69 74 78 72 45 45 48 51 55 60 61 66 75 87 94 92 84 70 64 63 62 62 65 67 67 73 85 80 65 54 51 50 58 80 91 97 58 39 28 25 26 31 40
51 49 66 68 52 52 52 52 60 63 68 70 69 76 98 94 96 94 93 76 72 59 56 52 51 51 50 51 54 64 76 78 75 76 74 61 49 37 26 25 27 32 41 31
63 55 61 63 55 51 57 60 66 66 68 70 71 79 99 86 87 81 91 88 91 89 86 88 88 87 82 74 63 56 60 67 71 60 54 51 36 25 23 26 34 42 28 19
57 66 70 65 54 54 64 66 68 69 69 70 74 81 89 89 86 88 88 80 70 59 64 73 70 52 51 52 54 57 58 55 57 59 51 34 23 22 24 35 42 26 20 20

GFSCGP_850_rhum_051.txt.gz
RH
79 88 94 82 72 61 60 53 54 48 38 38 48 50 41 34 31 31 30 28 27 29 30 29 27 26 26 26 26 28 35 38 56 64 70 74 73 78 75 85 79 80 82 84
78 87 65 58 61 64 62 58 58 48 37 41 47 46 38 35 33 30 30 29 26 26 26 28 29 29 28 26 25 26 29 36 44 61 60 67 66 71 68 75 76 78 77 82
82 57 50 57 60 56 56 58 58 55 48 45 53 52 45 36 34 31 29 28 27 25 24 24 24 26 26 27 28 28 29 34 38 38 42 52 63 72 69 73 75 80 79 87
61 50 50 61 63 54 64 51 50 54 62 76 53 83 63 39 29 28 30 30 28 26 24 23 23 23 23 24 25 28 30 32 33 40 39 45 56 61 72 70 77 79 79 82
72 60 56 60 59 50 60 51 57 59 68 76 70 77 60 48 31 26 20 19 23 22 22 23 23 23 23 23 22 22 24 29 33 41 42 40 51 57 61 69 68 74 75 93
58 47 53 56 47 49 51 55 58 64 76 97 76 71 57 39 29 20 23 18 19 20 19 20 21 22 22 22 22 22 22 27 28 35 43 45 44 55 62 67 60 69 75 84
63 63 50 48 60 51 56 70 93 89 95 92 60 76 64 40 31 27 26 18 17 17 17 18 18 20 22 22 22 22 24 24 32 34 39 49 52 51 53 58 57 62 86 100
88 92 67 55 62 72 72 71 92 94 98 82 56 78 48 29 28 20 19 17 17 17 18 19 20 24 28 29 29 29 28 25 26 38 38 44 55 67 63 64 59 76 93 99
87 80 56 55 51 60 74 87 65 82 74 92 69 46 30 25 28 23 22 21 22 20 19 22 27 28 32 32 26 24 32 30 28 33 49 51 60 74 71 72 90 100 100 100
61 88 59 58 54 54 62 58 86 94 88 92 71 54 41 34 38 35 36 32 29 29 27 30 35 35 34 32 23 28 34 33 31 51 59 58 67 82 77 89 95 100 100 97
51 72 89 66 76 75 74 84 71 76 88 92 96 65 37 34 34 34 36 36 36 35 32 31 30 32 34 30 30 36 35 34 41 65 69 70 77 86 90 91 86 98 97 97
54 75 94 84 62 58 66 73 65 91 76 94 94 83 40 35 36 41 39 49 48 47 44 32 38 34 30 29 29 48 46 43 56 66 76 81 90 88 91 95 94 99 99 92
60 80 80 82 68 64 78 67 68 70 87 93 94 74 35 40 39 38 53 62 60 58 51 44 48 42 40 35 37 59 58 57 67 68 73 87 82 91 93 93 100 99 96 79
49 75 82 89 78 77 84 71 72 78 98 79 83 63 48 44 44 55 64 64 58 58 60 65 60 54 49 52 60 69 64 69 70 77 77 81 81 95 93 97 97 96 74 63
65 91 81 80 76 74 76 79 76 84 71 90 61 62 54 53 66 67 68 63 65 70 75 79 73 68 73 63 82 79 77 78 83 90 91 86 91 88 90 86 78 74 73 54
71 90 80 93 72 75 83 72 73 73 70 67 66 74 63 64 65 62 88 90 88 88 84 84 80 75 85 86 85 89 87 86 90 88 82 83 79 81 76 65 66 63 58 65
82 82 96 94 66 69 85 73 73 72 75 67 91 76 70 74 73 92 97 96 90 86 95 83 81 82 82 83 79 78 76 78 81 77 71 69 67 64 54 63 76 59 62 65
85 75 93 98 82 88 54 51 59 70 72 77 76 74 73 75 91 96 79 83 82 94 94 88 79 74 74 76 77 75 81 74 70 61 57 54 54 68 86 73 66 68 71 78
67 80 95 89 89 65 55 61 60 74 79 73 78 69 78 78 90 98 79 76 77 83 82 84 85 85 80 73 67 68 66 60 58 61 62 79 96 69 68 65 66 53 54 66
76 78 97 95 94 88 58 54 58 72 94 73 75 83 82 86 93 98 97 85 74 76 74 72 71 70 68 64 68 65 67 70 81 78 94 77 80 77 61 62 92 95 67 54
96 97 99 83 96 76 53 58 70 85 74 66 77 92 85 94 95 92 100 97 79 73 71 68 65 66 67 69 66 71 86 97 97 96 98 99 100 100 100 98 91 82 44 28
85 93 95 88 97 92 45 70 70 60 57 64 74 81 89 88 77 80 94 100 98 92 95 96 90 86 94 96 93 99 100 100 100 99 100 100 97 93 88 87 43 29 28 30
80 76 86 80 74 48 43 51 56 60 63 66 68 80 84 89 76 72 80 88 97 99 100 100 98 99 100 99 100 100 100 100 99 92 56 66 98 90 39 30 26 26 32 38
64 55 72 74 59 58 50 57 59 61 64 66 67 78 92 91 82 68 67 72 77 90 97 95 90 96 99 100 100 98 86 56 56 84 97 89 45 36 27 24 25 36 38 24
72 61 65 68 61 60 61 62 62 61 65 68 67 74 98 97 93 72 64 63 62 64 68 77 80 83 82 80 88 90 92 97 97 89 54 45 36 25 24 29 39 37 23 20
70 73 76 75 56 59 61 61 60 63 64 68 74 85 99 94 91 95 96 87 70 63 60 63 69 65 65 77 93 88 76 68 60 53 46 32 24 25 33 43 32 22 20 20

GFSCGP_850_rhum_054.txt.gz
RH
86 87 92 85 72 59 62 62 63 52 42 43 47 48 47 40 37 35 35 31 28 28 29 31 29 29 27 27 30 29 30 31 53 62 68 69 69 73 78 75 84 88 85 85
86 89 72 64 68 69 70 75 75 54 43 43 50 53 43 38 36 33 30 30 30 27 26 28 29 30 28 27 27 26 27 27 29 51 57 64 62 69 61 62 76 87 84 80
87 73 60 60 62 74 67 65 61 59 52 47 56 42 39 38 34 32 31 31 30 27 24 22 24 27 29 29 29 28 26 26 26 31 50 59 65 64 66 64 68 74 83 79
65 52 54 61 66 58 68 51 53 57 62 74 57 72 60 44 44 33 30 29 29 29 26 24 23 22 23 23 25 28 27 30 28 31 43 50 57 58 59 60 60 70 72 79
80 61 64 67 64 53 62 53 56 59 71 74 69 77 56 44 36 26 20 21 18 17 23 22 23 24 24 23 23 23 23 24 28 32 37 51 54 56 52 54 59 62 71 74
59 51 52 54 52 51 53 60 68 75 80 93 71 73 57 42 32 21 22 20 19 18 22 22 21 23 23 23 24 24 23 23 23 24 33 33 46 53 54 54 54 61 64 70
66 64 51 50 64 55 60 72 93 90 97 80 65 82 65 45 38 33 32 24 21 22 21 20 21 22 22 23 22 22 22 22 23 25 31 36 33 41 48 50 52 55 61 65
90 94 65 54 61 73 67 71 89 79 98 88 63 78 48 37 30 24 24 27 28 30 29 26 24 22 20 20 20 21 21 21 21 22 23 29 44 40 46 51 53 54 57 59
82 79 58 57 55 59 73 84 65 87 78 94 73 54 32 35 37 34 36 36 37 38 41 37 30 37 33 27 26 26 27 27 25 24 24 26 32 48 48 49 55 62 62 65
66 91 62 60 52 55 62 63 86 92 75 84 70 66 48 34 36 36 45 42 43 46 42 42 44 38 35 35 33 30 27 23 20 26 31 29 28 46 53 54 56 63 68 88
56 76 97 67 75 79 80 84 81 78 87 91 96 58 43 36 36 44 47 42 55 56 52 52 51 47 40 36 32 29 27 23 30 33 34 32 37 67 65 60 63 74 86 99
58 81 94 88 65 60 67 75 71 90 73 95 88 74 43 44 42 44 41 50 58 60 54 54 52 40 45 39 32 30 27 30 42 34 36 38 77 90 76 66 74 100 100 100
59 77 92 85 69 68 78 76 71 72 86 94 92 71 41 44 37 39 46 60 66 67 57 63 64 57 56 49 40 35 31 39 49 48 50 66 94 97 89 79 96 100 100 100
54 73 79 86 74 80 87 80 79 81 97 87 86 65 46 44 44 47 57 64 67 66 66 70 71 71 64 67 50 48 41 53 75 74 74 84 90 95 92 97 97 97 99 88
63 87 86 82 76 74 73 76 80 87 72 87 64 68 52 44 45 56 69 83 86 88 88 89 81 79 85 86 70 68 76 84 93 98 94 98 98 97 93 90 98 96 84 78
69 84 76 89 74 80 89 80 79 76 71 70 67 68 45 44 68 74 92 91 90 83 84 92 89 90 91 88 84 82 82 87 97 96 96 95 92 90 90 91 90 84 72 66
74 86 91 92 71 72 90 80 77 73 72 64 78 59 51 70 73 91 85 84 82 85 94 96 85 89 86 82 80 84 88 90 89 86 83 88 85 88 89 87 78 79 81 87
87 76 92 97 83 93 56 59 62 68 62 63 62 68 68 72 91 85 87 78 76 88 81 80 77 76 76 76 77 83 88 89 93 87 87 78 82 84 78 77 86 94 91 96
68 76 91 86 99 71 56 63 67 77 72 70 73 70 69 80 94 95 95 80 76 77 87 80 72 74 78 82 86 86 91 93 95 80 68 61 71 73 84 99 99 95 97 98
79 81 94 94 97 85 59 55 62 68 93 71 73 74 87 86 94 94 93 88 75 73 76 84 84 75 74 74 72 75 75 71 66 62 62 83 99 100 100 97 99 98 100 100
100 99 100 91 87 82 55 51 68 83 70 62 68 79 82 92 90 83 98 91 80 76 72 70 69 71 73 74 76 69 76 88 100 100 100 100 100 97 99 100 100 100 84 38
92 96 94 90 96 93 48 74 72 61 60 64 74 81 87 86 81 87 97 99 95 89 89 82 72 74 82 76 76 99 100 99 99 100 100 98 100 100 100 100 64 36 39 40
88 76 88 79 75 50 47 49 51 60 65 66 72 79 85 82 78 83 95 98 96 99 98 98 98 99 99 99 100 99 100 99 99 99 100 100 100 92 50 36 33 33 36 38
72 60 74 73 62 63 51 48 52 58 63 66 69 78 88 82 78 75 89 93 92 91 95 98 98 98 100 100 100 99 99 100 100 100 99 92 47 36 33 31 32 38 37 24
77 63 66 78 62 54 60 60 59 61 64 65 68 78 90 86 80 76 81 89 88 87 88 92 96 98 98 99 98 90 83 86 96 98 64 42 36 32 30 33 40 34 23 20
74 77 84 82 57 56 56 57 59 60 61 64 71 83 99 94 85 72 77 77 80 86 89 91 94 97 98 94 94 96 96 98 93 52 43 35 28 28 32 40 32 22 20 20

GFSCGP_850_rhum_057.txt.gz
RH
96 94 93 90 78 61 67 68 66 56 44 45 50 54 45 39 40 43 39 37 36 33 30 31 30 29 29 24 29 32 32 30 30 43 74 70 69 71 76 79 75 74 81 79
90 96 84 78 85 84 71 75 74 60 49 46 53 57 45 39 37 34 32 32 32 31 27 26 27 28 29 30 26 28 29 29 29 29 45 64 66 67 65 69 74 73 72 77
82 74 64 70 78 80 76 77 67 62 53 51 61 51 43 34 34 32 32 30 31 30 28 24 23 22 25 29 30 28 27 27 28 28 29 45 62 66 66 65 67 66 68 70
70 57 64 68 69 68 78 53 56 58 62 75 59 69 57 41 42 39 31 25 24 24 24 25 26 25 21 21 26 28 29 28 28 29 31 32 34 53 64 64 61 64 64 67
89 65 71 71 66 55 64 54 59 63 75 69 70 77 54 41 34 28 28 25 24 25 20 20 22 22 24 25 23 22 23 24 26 26 33 32 34 47 60 60 62 59 59 63
65 54 51 54 58 52 57 60 70 80 76 89 68 66 49 40 32 29 31 27 30 30 27 24 22 20 20 22 23 23 24 24 23 23 24 27 36 42 57 61 65 62 60 60
69 67 53 53 66 57 60 69 89 80 94 77 71 76 61 45 42 37 37 37 38 39 37 33 25 25 24 24 22 22 22 24 24 24 24 25 31 41 41 43 57 61 61 56
94 93 65 54 62 72 65 66 83 66 95 85 69 84 54 38 34 30 40 41 37 38 40 40 37 31 30 28 26 24 22 22 22 23 23 23 25 26 33 41 41 52 60 57
83 83 60 56 58 58 76 83 64 88 80 94 74 57 33 34 39 44 44 42 44 46 48 44 45 44 40 34 32 30 27 24 22 21 21 23 24 24 26 37 44 51 55 60
66 94 64 60 56 60 61 64 83 93 77 75 60 66 42 37 40 47 51 44 46 53 56 52 46 51 49 46 41 36 33 30 28 27 23 20 20 28 29 30 47 53 54 53
64 76 96 68 71 81 82 89 84 80 85 84 89 42 47 37 41 48 49 44 50 58 61 58 51 50 57 48 38 43 35 30 29 27 26 25 24 32 32 34 42 71 58 58
61 80 97 84 65 62 68 74 74 86 78 97 91 73 42 45 47 41 43 47 59 66 66 64 56 57 66 64 56 49 40 33 32 28 27 37 37 38 38 48 73 83 90 85
58 78 95 85 68 70 75 75 70 76 84 98 95 63 44 51 45 41 43 52 70 72 71 70 70 75 76 73 65 58 50 44 38 37 46 59 57 55 59 91 100 100 100 100
53 74 78 86 68 81 92 85 80 82 95 88 86 69 50 44 47 41 43 77 78 82 85 84 81 87 81 79 77 69 68 52 54 74 79 85 84 90 100 100 100 100 100 100
64 85 82 75 74 74 76 76 88 84 79 85 70 72 55 46 46 43 72 83 83 85 80 86 92 85 85 87 82 79 65 73 85 98 100 100 100 100 100 100 100 100 100 100
68 88 82 88 73 80 88 80 77 83 77 78 71 72 48 44 44 65 86 82 82 78 82 97 93 86 90 88 87 84 79 81 84 98 100 100 100 100 100 99 99 95 93 83
72 88 90 94 74 75 87 83 81 75 74 66 79 58 45 56 69 82 83 83 76 79 80 84 87 85 86 84 81 81 85 86 88 92 95 92 91 92 85 83 79 73 72 75
81 82 86 95 85 94 59 55 64 70 62 63 54 51 52 66 79 86 89 83 76 74 85 86 80 79 79 81 81 86 92 92 92 87 85 83 82 89 90 82 84 84 93 92
67 75 89 94 96 75 58 72 73 74 71 62 58 55 67 78 90 94 99 87 76 75 86 81 79 80 82 88 91 92 95 100 100 92 96 98 96 93 93 94 96 100 100 100
72 84 95 94 94 88 54 61 63 64 83 62 68 69 78 84 96 95 99 86 76 74 80 86 84 84 88 88 91 92 96 96 98 96 79 80 86 96 100 100 100 99 100 100
100 99 99 83 85 75 58 50 68 74 68 60 65 72 81 87 88 95 94 86 79 76 75 78 77 76 77 78 82 72 70 70 70 75 80 93 100 100 100 99 100 100 99 83
84 92 96 97 97 91 48 70 73 59 60 64 67 75 79 83 83 94 92 92 88 88 82 75 73 76 80 78 75 92 97 96 97 99 99 100 100 100 100 99 90 42 35 36
90 78 84 77 76 51 47 56 44 51 60 64 67 72 79 82 83 90 91 94 96 95 95 90 81 92 85 95 100 99 100 100 100 100 100 99 100 96 53 33 30 31 37 39
74 63 78 75 62 61 52 54 56 60 60 62 64 69 82 81 80 85 89 91 94 92 93 94 95 98 99 100 100 98 100 100 100 99 100 90 43 32 32 32 37 42 36 25
78 67 66 70 69 56 54 54 56 58 61 62 64 68 83 84 82 80 86 86 90 92 89 93 94 99 99 100 100 100 99 99 99 86 48 38 33 32 30 33 39 34 24 21
79 81 88 84 62 65 61 58 60 59 58 60 63 70 84 88 85 82 88 83 83 86 92 97 98 99 99 99 94 90 92 97 79 48 40 32 28 28 34 40 30 22 21 20

GFSCGP_850_rhum_060.txt.gz
RH
96 96 95 84 73 67 74 74 73 60 47 47 54 58 50 40 40 42 36 35 34 34 30 30 30 28 29 29 25 26 30 33 33 35 44 58 66 67 67 65 68 65 76 76
96 99 82 70 71 66 64 73 73 60 52 48 56 60 48 41 41 36 34 31 32 31 30 28 27 27 28 29 29 29 26 29 32 32 31 32 36 58 59 63 63 64 69 68
84 92 89 91 92 89 79 78 72 66 54 54 62 54 45 34 35 33 32 32 31 29 28 28 28 24 24 25 26 29 31 29 30 31 30 31 36 47 66 63 63 64 64 68
81 78 92 90 94 90 100 64 59 59 64 77 59 74 56 42 37 36 35 28 31 30 26 22 24 26 27 24 21 22 29 31 30 30 31 31 30 32 35 41 50 59 60 60
92 77 76 83 74 64 70 56 61 64 75 68 66 73 50 38 33 32 39 43 46 42 38 30 28 25 25 26 25 23 23 27 28 27 28 29 33 38 42 40 53 57 59 60
71 54 58 59 61 55 61 64 72 77 73 86 65 63 42 39 37 39 37 46 48 44 37 32 28 28 26 25 25 26 25 24 24 24 26 26 26 31 37 40 48 60 57 60
83 78 56 55 67 57 58 69 87 74 89 78 72 76 58 46 44 40 39 48 49 50 42 37 30 26 26 28 28 26 24 24 24 24 24 24 24 24 25 34 46 61 65 62
94 96 65 55 62 72 69 65 81 61 88 73 71 84 52 41 38 41 43 47 48 52 54 48 44 38 32 28 28 31 31 28 27 26 26 25 25 26 27 30 34 43 43 55
83 94 61 57 59 56 72 86 62 87 80 92 75 60 38 38 41 46 41 46 50 58 59 57 51 48 48 49 37 33 32 32 31 30 28 27 26 25 24 24 25 32 44 49
66 95 71 62 56 63 62 65 80 90 81 71 54 58 37 41 43 47 49 47 50 62 64 63 59 53 54 60 58 45 41 36 34 33 30 29 26 24 23 22 23 26 31 51
64 77 90 67 72 81 79 89 82 78 85 78 78 37 44 44 46 46 50 44 52 68 69 68 68 62 61 63 64 59 46 43 43 35 30 29 28 28 27 28 32 34 34 50
63 82 95 86 66 62 66 76 72 85 83 97 92 62 39 45 46 43 43 42 54 72 74 74 74 77 78 76 71 68 61 54 44 37 34 32 32 36 46 47 47 56 59 70
62 79 96 89 71 67 77 75 70 75 84 97 84 49 42 52 52 44 43 46 67 77 76 72 72 77 85 82 75 74 72 60 52 44 40 41 47 63 79 71 72 86 99 100
54 74 78 86 67 80 92 87 76 78 94 88 90 67 51 44 47 47 45 54 80 81 76 88 92 97 88 84 86 82 73 70 63 55 52 59 85 97 99 99 98 100 100 100
63 87 78 71 71 74 78 82 86 83 80 85 69 76 58 51 48 46 46 80 80 77 78 91 94 94 91 87 83 81 78 74 73 70 64 98 99 100 100 100 100 100 100 100
68 93 84 87 71 81 89 80 83 84 78 81 73 77 49 46 44 48 78 82 81 76 80 86 88 86 82 75 77 81 78 83 83 80 94 96 100 100 100 100 100 100 100 93
75 87 93 91 80 81 88 84 81 82 80 73 88 61 45 49 53 76 83 84 79 75 80 85 84 82 80 80 81 84 90 90 89 92 96 99 100 100 98 98 97 96 96 98
79 83 88 92 84 92 53 56 65 71 63 69 61 51 47 49 73 84 88 88 81 75 81 84 82 82 81 83 84 90 92 92 90 89 90 90 89 90 87 85 85 71 66 70
61 76 82 90 90 73 64 71 74 70 68 62 61 53 50 66 81 96 97 88 81 76 82 82 80 84 86 90 92 92 97 98 97 89 88 90 94 95 95 94 92 98 100 100
82 85 85 95 87 89 52 62 62 60 94 57 61 59 71 82 91 91 92 86 79 75 81 84 85 86 86 84 87 88 94 99 99 99 99 99 99 98 100 100 99 99 100 100
98 98 96 85 91 72 55 57 59 90 74 57 67 69 78 87 84 87 87 84 81 78 76 79 79 80 76 80 78 75 78 75 76 85 96 100 100 99 100 99 99 99 99 95
90 92 96 94 99 93 48 70 73 60 56 59 64 67 80 84 84 84 88 88 90 88 81 76 79 78 80 74 81 88 82 94 97 99 99 99 100 99 99 100 98 58 34 37
90 82 78 80 76 52 47 55 47 48 55 59 64 64 76 83 84 88 94 95 95 93 91 81 80 84 81 97 98 94 99 100 99 99 99 99 99 92 45 34 34 35 39 37
74 68 75 74 60 64 52 51 55 56 61 62 61 62 71 82 82 86 92 91 91 96 93 92 92 99 100 97 98 98 99 100 100 99 99 72 36 33 33 33 38 38 30 23
80 72 72 74 70 59 61 58 60 61 61 61 59 60 70 85 82 84 89 88 87 90 93 94 92 94 95 98 99 100 100 100 99 74 40 33 31 31 34 38 36 28 23 22
84 83 88 86 61 68 64 62 64 63 60 58 58 63 72 86 83 83 91 85 84 87 97 98 97 98 99 100 99 99 97 97 56 41 32 29 28 31 39 37 25 22 21 20

GFSCGP_850_rhum_063.txt.gz
RH
88 95 94 79 74 61 68 67 76 69 50 49 57 58 48 41 40 41 36 32 30 32 31 31 31 30 30 29 28 27 27 31 40 46 50 53 56 58 58 58 59 60 64 70
98 98 80 69 73 65 64 71 74 60 51 50 56 54 45 40 41 38 37 36 36 35 32 29 28 29 29 29 30 30 29 28 30 34 35 36 41 54 52 55 56 56 59 63
95 93 87 88 80 81 72 70 74 65 54 54 58 52 43 34 34 34 34 33 34 32 26 21 20 22 24 25 27 28 29 29 30 30 32 35 40 46 41 38 46 51 52 58
95 89 88 95 95 86 94 66 63 60 66 75 58 62 51 39 38 42 47 47 44 41 35 34 29 28 28 27 25 24 26 29 30 31 33 34 35 38 33 33 33 42 43 58
97 94 92 97 94 88 94 81 60 64 72 66 63 63 45 36 38 42 44 53 55 49 42 37 34 31 28 28 28 27 24 25 29 32 31 32 33 33 33 35 33 33 37 45
86 74 84 78 83 76 65 62 66 71 69 78 63 60 39 39 38 41 43 52 58 53 45 40 37 33 33 33 30 30 28 26 26 27 28 28 29 29 32 37 37 37 40 42
99 92 70 62 70 56 60 70 82 75 84 66 72 74 47 41 43 40 45 51 59 59 51 42 36 33 32 29 30 30 30 29 28 27 27 28 31 36 33 32 33 41 43 47
94 97 78 61 69 78 67 68 78 58 71 62 70 76 45 42 41 40 45 52 59 63 62 57 51 46 42 37 34 29 29 31 30 29 30 31 31 31 32 33 35 40 44 45
88 97 62 62 59 59 68 77 58 85 80 81 66 56 39 42 45 45 45 47 52 68 68 66 62 59 55 53 51 45 36 31 32 32 31 30 29 29 28 28 29 28 30 35
71 96 72 65 58 61 61 63 77 86 75 65 49 50 42 49 45 44 47 48 53 73 72 70 69 70 64 62 60 59 56 48 38 35 34 33 31 30 28 26 26 26 26 27
67 76 90 67 74 78 75 84 78 73 75 61 56 33 41 46 46 47 47 46 60 74 74 71 69 73 76 75 74 70 67 62 50 46 44 40 34 31 30 29 28 28 28 30
64 82 95 88 66 62 63 74 68 82 81 90 85 48 36 43 50 50 45 45 59 76 74 70 71 74 77 82 75 70 72 69 59 51 46 40 35 32 31 31 29 34 41 47
58 80 92 85 74 67 76 73 68 73 81 94 69 42 42 50 50 43 47 47 67 79 74 75 82 87 86 80 80 83 77 74 69 66 58 52 46 40 38 46 57 62 87 100
54 73 76 82 65 79 92 86 74 77 87 81 84 57 45 43 46 44 45 58 77 78 75 82 86 86 86 83 82 82 77 76 76 72 66 62 58 56 60 97 98 99 100 99
61 86 78 67 73 74 77 85 80 81 78 79 64 72 54 49 51 49 47 67 80 78 76 82 88 86 83 83 81 74 78 84 84 83 88 90 96 98 98 99 99 99 100 100
68 97 82 85 72 80 88 78 83 74 74 74 72 72 48 47 45 48 73 80 81 78 76 83 85 83 81 84 80 82 86 82 86 90 88 92 98 99 100 99 99 100 100 100
74 86 87 88 79 83 92 84 81 82 79 70 86 64 48 48 51 78 82 83 81 77 77 83 83 84 84 84 88 88 88 88 84 88 90 95 98 98 98 99 100 98 99 100
78 81 85 92 82 94 52 57 66 70 67 72 66 55 50 48 61 78 84 87 83 77 80 82 82 83 84 87 88 87 92 92 87 86 88 89 92 92 99 100 99 100 99 99
60 75 86 87 95 69 73 72 76 73 73 62 61 53 52 53 80 89 92 86 80 77 80 82 82 86 88 90 86 83 87 96 96 94 92 94 97 96 98 100 97 96 96 96
80 75 80 97 90 79 51 64 62 63 96 58 57 61 64 79 91 87 90 84 78 77 80 84 86 86 83 88 85 82 84 92 98 99 98 99 99 99 100 99 100 99 99 99
94 96 88 94 96 74 52 53 57 90 83 56 64 68 73 88 83 88 87 83 82 78 76 80 80 80 80 79 76 77 77 77 88 95 99 98 99 99 100 100 100 100 100 96
89 93 92 92 98 88 49 60 76 63 55 54 60 67 77 84 87 87 89 86 88 83 78 78 79 79 77 85 86 81 89 94 95 98 98 99 100 100 100 100 84 40 36 36
89 77 73 72 71 51 50 52 48 49 52 63 67 67 72 82 85 89 90 90 90 85 82 80 78 78 91 92 91 91 99 100 99 100 99 99 98 75 40 33 34 37 34 27
75 71 75 74 60 65 50 57 56 57 61 63 66 65 69 79 83 87 90 88 84 85 81 84 87 98 91 93 96 95 98 99 97 96 98 60 32 31 33 37 37 30 23 22
79 77 78 79 70 60 61 63 64 71 62 61 61 63 68 80 82 83 85 84 82 84 88 88 91 91 90 89 90 97 98 98 98 62 33 30 29 31 35 36 28 23 22 20
86 82 89 87 63 64 61 59 60 62 65 65 62 62 68 81 80 83 86 82 79 86 89 86 85 89 93 98 99 99 99 92 47 32 28 27 29 36 37 27 23 21 20 19

GFSCGP_850_rhum_066.txt.gz
RH
72 94 97 88 56 37 34 49 51 46 40 52 48 45 39 35 36 33 30 28 28 29 31 34 28 27 27 25 26 28 27 26 48 55 51 68 64 49 47 56 66 65 62 61
82 97 70 64 60 50 47 50 48 54 45 43 45 45 38 35 34 33 32 30 29 32 33 32 29 30 30 30 29 27 27 26 28 67 34 47 59 60 51 55 54 57 52 55
78 85 71 78 76 68 53 44 45 48 48 43 44 43 39 32 30 31 32 34 35 36 35 34 24 22 24 25 28 29 29 29 29 30 68 70 56 52 44 45 45 52 56 58
82 84 80 79 88 72 87 52 50 51 52 55 45 37 38 31 37 34 38 41 42 43 41 42 42 29 26 25 26 26 27 28 30 31 52 84 64 52 36 38 40 42 40 49
98 95 96 99 89 78 94 50 51 53 56 54 51 47 36 31 39 40 41 47 51 52 50 48 42 37 34 31 29 28 27 27 28 29 32 64 87 81 51 47 41 39 36 34
94 91 84 84 87 77 78 61 52 51 54 75 48 49 33 29 31 39 42 48 54 58 55 53 44 43 38 36 33 31 29 28 27 27 30 36 75 85 92 86 73 41 38 36
96 98 92 85 97 93 84 83 94 84 79 57 54 56 33 33 32 36 42 50 58 62 61 60 52 45 42 40 36 33 33 32 30 28 28 30 31 55 91 78 92 78 80 52
96 98 97 91 73 73 68 60 59 60 59 43 58 50 34 33 31 38 44 49 60 65 66 66 57 54 49 47 44 41 36 32 34 32 31 30 29 30 33 34 62 86 88 52
88 99 86 82 64 52 60 72 46 68 62 52 37 42 33 36 36 38 41 47 59 68 71 72 65 60 57 54 53 52 49 45 40 34 33 32 32 32 32 32 33 33 36 41
64 94 72 61 55 52 54 47 63 76 67 51 37 35 36 45 41 40 40 42 53 70 74 74 71 66 68 67 64 62 61 58 54 49 40 37 36 33 31 30 29 28 26 24
52 60 85 63 68 64 61 64 61 50 54 40 30 23 25 36 37 36 38 43 57 70 74 72 78 80 76 79 76 70 66 65 61 56 50 46 43 39 34 32 31 31 31 30
56 61 84 79 59 54 52 54 47 65 73 66 60 32 27 32 33 39 37 44 63 78 73 83 91 94 87 82 76 75 74 72 71 64 60 56 52 46 42 38 34 32 32 33
48 64 85 82 64 60 66 59 53 57 71 79 49 34 32 33 35 36 38 45 67 73 73 79 85 84 84 81 82 80 74 69 68 68 67 64 59 57 55 50 45 40 43 55
45 58 72 60 56 64 93 71 60 89 81 58 52 39 35 34 34 35 43 54 69 71 72 76 78 82 80 80 76 70 74 78 77 76 77 77 72 69 70 69 72 89 99 99
47 74 68 61 62 63 68 75 69 82 67 77 45 43 33 33 36 42 47 66 74 73 72 74 83 84 78 77 77 76 79 80 83 83 84 86 95 94 96 98 99 98 98 99
54 84 71 79 65 68 78 67 68 65 57 56 53 53 34 36 40 44 65 76 75 73 74 74 83 82 77 81 82 83 86 83 83 88 85 92 97 100 100 98 99 100 99 99
58 69 73 80 68 70 76 68 66 66 59 55 66 46 37 40 41 53 72 78 76 73 73 77 82 83 81 86 87 90 92 86 87 87 86 90 93 95 98 99 99 99 98 99
60 62 68 72 65 74 50 49 54 58 54 55 50 46 44 44 48 66 76 79 81 77 75 78 82 84 87 90 92 96 96 91 87 85 85 86 87 91 96 98 97 98 99 100
50 56 74 74 69 55 69 64 60 64 74 49 49 46 47 52 75 82 84 83 80 76 78 82 83 88 88 88 89 94 96 96 94 90 90 91 94 96 98 95 97 99 97 98
62 55 59 83 81 64 58 64 61 54 96 58 51 52 61 73 74 69 85 83 77 78 85 83 85 85 84 82 81 87 94 99 94 87 89 92 92 92 89 92 96 100 100 100
72 77 72 67 71 52 40 44 53 82 84 59 58 61 67 70 71 84 84 82 80 83 81 83 84 82 79 77 77 82 84 86 90 91 90 93 96 97 99 99 99 100 100 97
66 72 74 71 73 73 44 65 67 62 58 55 62 65 71 81 86 87 85 84 86 81 79 83 83 79 79 83 78 80 87 95 99 99 98 98 99 99 100 96 69 46 37 31
70 54 52 52 52 45 48 53 52 54 58 62 68 70 73 82 88 87 88 90 88 88 84 83 79 78 92 85 92 91 95 99 99 98 99 100 99 75 39 36 36 34 28 24
63 63 58 60 49 49 47 53 62 58 63 64 64 62 65 81 86 87 89 88 85 89 86 79 80 92 89 88 94 97 100 100 100 99 96 59 32 32 36 36 30 24 22 21
57 63 61 60 53 52 60 64 66 62 72 71 67 63 64 75 84 85 88 86 82 82 81 86 92 87 88 89 91 93 95 99 98 69 32 30 30 34 35 29 22 22 20 19
67 54 57 51 46 56 52 64 63 64 61 63 68 66 63 71 80 84 86 81 77 79 84 89 88 86 86 85 86 91 94 97 59 29 27 27 32 35 30 23 21 19 19 16

GFSCGP_850_rhum_069.txt.gz
RH
93 83 92 80 59 47 32 36 35 31 39 41 38 33 32 27 34 31 26 23 22 23 23 24 26 28 32 34 36 37 38 41 64 78 82 59 66 61 69 81 95 96 89 90
73 84 68 70 54 53 40 33 33 32 33 44 36 36 29 30 30 30 28 23 21 21 22 26 30 31 31 33 36 36 36 38 40 56 72 57 43 47 57 57 58 64 78 69
62 65 55 82 76 71 69 40 34 38 42 42 37 39 35 30 30 29 30 30 28 29 29 28 29 31 31 31 33 35 37 37 37 38 50 72 75 94 69 46 52 54 59 84
51 72 56 74 94 86 64 33 30 37 49 46 39 30 29 28 30 28 28 30 32 34 35 38 42 41 37 32 30 30 32 37 37 35 39 51 72 82 84 78 61 55 55 50
97 80 81 79 92 87 78 46 38 43 44 46 50 49 33 29 35 31 31 37 40 41 40 45 50 51 48 33 29 26 26 28 32 34 35 46 59 71 83 85 90 83 79 54
90 80 80 82 87 88 51 50 51 50 53 78 41 41 38 33 31 33 34 38 43 46 45 47 54 55 60 40 36 34 34 30 29 29 30 32 45 71 82 83 86 89 90 91
97 97 90 86 97 89 76 83 98 98 92 58 40 49 30 27 26 31 34 40 49 50 51 52 55 56 61 56 46 44 42 42 34 31 30 31 34 52 77 83 87 89 90 91
99 99 100 93 94 96 96 97 98 72 62 46 46 53 33 26 26 35 40 45 52 53 57 61 64 65 63 68 59 50 46 45 38 37 37 38 40 40 49 72 87 91 92 95
95 100 95 91 78 78 95 89 47 51 42 41 36 32 31 31 30 36 38 43 53 58 62 65 66 69 70 74 76 61 57 56 50 45 38 41 46 37 36 37 51 79 86 97
58 96 95 92 75 54 66 53 66 78 61 47 33 30 31 35 37 34 37 40 48 60 64 64 66 71 78 79 72 70 66 63 58 56 52 45 42 40 36 35 37 42 54 56
47 58 87 67 88 78 59 61 55 50 51 42 33 24 25 33 33 37 36 40 48 59 65 66 71 78 83 78 75 72 68 66 66 62 58 55 51 48 45 41 39 36 36 35
47 57 80 71 52 49 46 48 42 67 65 58 61 36 25 29 32 32 37 42 52 66 68 75 83 81 79 80 74 73 73 72 70 71 70 63 62 61 56 52 47 44 42 40
43 60 83 74 58 53 60 50 43 49 76 77 47 38 25 30 32 32 34 41 54 66 67 70 74 76 77 77 77 73 69 70 70 74 79 69 66 62 60 57 55 52 52 54
40 50 70 61 58 58 91 59 53 86 80 49 46 34 34 33 33 29 37 43 56 65 66 67 70 75 78 74 73 71 73 76 77 79 82 80 76 72 70 69 73 79 86 93
40 67 62 52 52 54 64 68 61 88 65 76 38 34 30 30 29 31 42 53 62 65 66 67 73 76 76 76 72 74 79 79 79 82 84 86 86 89 90 92 96 95 97 93
44 75 62 80 54 56 70 58 59 60 53 47 43 43 28 27 35 39 46 62 68 67 69 68 78 77 76 80 78 83 85 82 83 85 81 86 95 95 96 95 97 92 95 98
47 58 66 72 60 60 72 60 57 57 50 46 58 41 35 37 37 42 54 68 70 69 69 69 77 83 84 88 83 86 85 80 83 82 82 89 95 94 92 94 95 94 96 98
50 52 57 60 58 74 52 43 47 52 48 45 43 39 37 40 43 51 64 69 70 70 71 71 81 86 84 95 85 85 85 85 85 88 88 89 92 92 90 93 94 90 91 92
42 46 59 67 56 46 61 57 54 59 64 44 46 40 43 50 69 68 72 74 71 75 71 74 83 89 86 94 83 82 89 90 90 92 92 94 96 91 89 88 89 92 93 98
51 46 54 70 75 60 62 60 52 50 86 51 46 48 54 67 68 69 76 79 78 74 77 84 84 85 86 84 82 85 90 93 94 94 95 91 88 87 87 92 98 94 95 95
62 60 65 60 63 49 42 45 48 82 86 56 52 53 56 59 67 79 76 81 77 79 84 83 86 83 80 79 80 86 93 93 92 94 91 89 87 88 89 92 99 98 100 87
54 57 61 58 63 67 54 59 55 62 54 55 58 60 63 74 78 81 82 82 84 89 95 83 80 81 78 78 81 84 91 93 94 94 94 94 94 93 94 92 78 48 33 27
60 46 49 47 50 44 41 48 46 51 55 61 66 65 70 78 81 85 85 88 91 94 96 81 82 83 84 82 82 89 97 98 100 99 93 96 96 66 38 36 34 27 24 24
49 49 49 54 40 39 41 44 60 58 63 62 64 64 64 76 86 86 87 89 91 94 98 95 97 84 91 92 94 98 100 100 99 100 96 68 34 33 35 33 27 22 21 20
50 52 49 48 42 45 47 49 63 62 61 67 72 70 65 73 84 83 86 88 89 93 98 86 92 95 87 92 99 100 100 99 100 90 43 31 32 34 32 25 23 20 18 18
46 47 54 46 42 42 49 60 68 68 65 68 68 68 66 65 80 85 85 87 87 92 91 86 95 87 86 94 98 97 98 98 79 34 28 28 32 34 28 22 19 18 18 14

GFSCGP_850_rhum_072.txt.gz
RH
91 98 96 78 59 63 64 57 50 44 34 50 49 52 42 30 32 33 30 26 22 22 23 24 24 24 25 28 34 40 41 58 82 86 85 78 72 82 88 91 87 88 88 84
90 96 81 54 55 65 61 54 50 38 40 46 45 46 36 33 32 33 32 28 25 22 22 22 24 26 28 30 32 34 37 38 39 63 80 79 69 60 58 69 78 82 88 79
86 75 65 68 63 65 61 69 64 41 44 42 40 46 40 31 28 29 30 30 29 28 28 28 28 28 29 31 32 34 34 35 38 38 50 61 69 66 56 39 41 61 82 73
87 56 67 72 76 65 76 53 58 40 53 71 48 60 40 35 37 35 31 29 28 29 31 32 32 34 33 31 30 31 34 35 35 37 38 41 54 64 52 44 49 46 43 47
94 74 79 93 91 79 85 78 51 59 55 54 58 64 40 36 37 36 31 29 35 36 37 44 46 49 43 36 32 29 30 34 37 38 40 40 42 56 81 82 84 81 62 53
93 77 78 78 76 78 88 91 80 63 61 92 57 60 48 40 35 34 35 39 41 42 44 50 56 60 59 48 41 38 38 31 28 29 34 38 40 40 52 72 84 83 77 88
89 97 90 81 98 92 94 100 99 98 98 86 48 61 46 32 31 34 42 42 46 48 48 51 54 57 57 53 50 51 49 45 39 36 33 33 35 37 49 72 83 86 88 88
86 95 99 94 88 94 97 97 98 89 90 69 47 67 43 31 31 33 37 47 51 53 58 61 65 64 63 62 55 50 48 47 41 39 40 42 43 41 42 60 76 83 89 94
96 98 95 92 87 84 99 100 85 74 50 74 59 42 36 30 42 43 43 48 53 58 63 65 66 68 69 70 65 58 57 55 53 50 44 41 42 37 36 40 50 66 78 91
67 98 96 94 88 84 94 68 89 97 82 71 51 49 49 45 45 44 44 46 55 61 64 64 66 69 75 73 71 69 66 63 60 57 54 53 49 48 48 44 42 47 58 67
53 72 99 96 98 98 96 100 62 59 64 80 65 43 33 39 39 42 44 42 52 61 64 66 71 78 74 73 74 73 70 66 65 66 63 60 62 61 58 53 48 44 46 42
53 68 93 76 54 49 52 60 56 91 76 81 83 53 30 36 40 40 41 42 54 62 65 72 79 76 74 74 73 70 71 69 69 77 78 73 71 71 63 56 52 49 45 45
47 74 89 74 66 55 63 54 48 68 87 86 85 54 35 41 40 35 39 43 56 67 67 74 74 74 73 71 72 70 67 68 71 74 76 77 71 66 64 62 61 61 58 57
46 59 83 88 72 74 84 63 61 87 91 72 70 43 43 41 41 34 36 43 55 66 65 66 70 73 73 72 72 68 66 70 74 78 79 80 78 76 78 80 80 79 76 78
53 72 67 54 53 55 76 72 73 87 74 80 55 42 37 38 39 32 42 47 58 64 65 67 69 74 76 74 72 71 74 76 76 79 83 84 84 85 87 91 92 96 96 97
46 78 69 87 52 55 69 62 64 71 65 58 48 48 29 29 29 39 43 56 64 65 66 65 73 74 74 76 76 77 78 76 78 81 82 86 92 92 94 93 95 91 90 92
52 69 78 85 58 62 81 67 64 64 57 55 66 50 36 41 40 41 49 61 67 68 67 68 71 77 78 78 79 81 80 76 78 82 85 90 90 88 87 84 91 91 90 87
53 56 65 80 61 88 58 45 50 57 52 51 48 42 40 39 43 46 50 59 68 69 68 68 74 79 82 84 85 84 83 81 82 84 86 84 90 92 89 89 90 88 88 86
47 54 68 83 69 51 68 58 55 62 64 49 50 44 41 51 58 62 60 67 69 69 71 71 76 82 85 88 84 80 84 84 87 87 88 90 92 89 89 92 92 90 85 85
52 54 66 82 87 74 72 56 46 46 88 49 46 48 55 66 87 89 74 72 72 74 71 72 77 82 85 85 82 82 86 89 91 92 92 88 88 90 91 91 91 90 89 86
68 63 78 74 78 61 62 57 49 88 91 54 54 54 56 71 74 74 73 77 76 74 76 79 82 87 86 82 80 81 85 93 93 94 87 85 89 91 91 97 98 95 73 35
62 66 62 62 72 78 53 54 64 69 55 58 61 63 65 69 75 76 78 80 78 77 80 82 85 83 81 78 77 82 90 91 92 89 87 89 92 92 93 82 60 36 28 23
71 54 58 56 62 46 52 47 47 50 56 62 62 64 62 71 75 75 80 82 82 83 84 83 82 82 81 78 80 82 89 92 92 96 97 94 95 77 46 34 28 24 23 22
53 48 59 60 47 49 44 50 56 56 57 63 63 63 63 69 75 78 83 85 87 90 89 84 84 86 85 85 80 87 96 98 98 98 100 90 45 34 35 31 26 22 20 18
61 57 59 55 47 46 45 47 66 63 62 64 64 67 69 67 73 76 79 83 87 86 87 90 96 89 92 85 88 97 99 99 98 99 82 35 31 34 32 24 20 18 17 16
52 60 66 62 51 50 62 65 64 64 67 65 63 63 68 68 72 76 77 83 86 82 84 86 92 91 86 87 98 99 98 98 99 87 35 28 30 32 28 21 18 18 16 12

GFSCGP_850_rhum_075.txt.gz
RH
95 96 95 81 63 63 67 77 76 67 51 58 61 57 48 37 32 34 33 32 28 26 24 22 23 25 26 33 38 47 63 80 84 83 73 79 87 85 86 90 82 78 76 73
96 96 83 69 57 67 71 73 70 51 47 57 62 58 50 42 40 32 31 30 28 27 25 24 24 24 24 24 27 33 40 43 60 64 78 74 75 78 81 79 74 76 75 74
100 89 84 68 67 74 79 84 74 58 50 47 56 60 56 44 37 33 29 26 30 30 28 27 28 29 28 28 30 32 34 39 38 44 51 62 73 73 75 69 68 73 74 67
98 68 76 74 74 68 87 61 62 63 63 93 50 79 53 45 41 36 34 28 31 30 30 29 29 28 28 28 28 28 30 32 35 38 39 40 46 54 54 55 57 52 55 67
82 80 95 90 74 68 82 80 78 70 84 60 62 65 55 42 44 36 40 32 30 30 32 33 34 34 32 30 27 27 29 32 34 33 36 39 41 50 75 81 79 71 70 70
91 72 81 79 82 82 78 85 85 81 90 99 74 69 58 55 41 39 34 32 38 39 41 40 44 43 38 36 36 35 32 30 32 36 38 40 42 44 48 52 78 86 90 86
97 98 88 78 95 85 84 94 99 99 98 92 66 70 50 39 36 34 45 43 41 42 44 48 58 58 54 52 48 47 43 36 32 30 30 33 37 39 40 43 58 78 86 87
98 98 98 89 83 86 95 96 97 92 96 80 57 80 56 39 32 36 42 44 45 47 50 56 59 61 62 58 55 52 46 43 41 37 37 35 33 32 36 38 44 75 85 87
94 100 93 86 82 79 95 99 94 89 62 78 66 47 37 43 55 52 54 50 54 58 61 64 67 66 66 65 63 60 56 53 51 48 46 42 41 40 40 41 44 60 76 83
86 95 93 88 84 86 94 74 98 99 95 84 68 60 58 45 62 60 60 58 61 63 65 65 66 67 69 70 67 64 61 60 60 58 56 56 55 54 51 48 46 48 57 69
69 81 99 94 95 92 99 100 92 81 98 86 78 55 40 40 53 56 54 57 62 64 65 66 68 71 71 67 66 66 66 65 65 64 63 61 58 58 55 50 48 47 47 51
58 79 99 93 77 72 75 90 73 91 93 84 90 60 33 42 51 45 46 52 60 64 65 67 73 75 69 67 68 68 66 66 66 64 67 69 66 63 63 62 57 54 51 49
53 78 93 87 70 60 69 71 67 67 82 85 84 61 44 47 50 45 48 56 61 65 66 73 78 72 68 66 66 68 67 67 66 66 69 72 75 69 65 62 59 59 59 59
50 70 76 85 70 76 84 69 66 74 84 80 76 55 50 45 45 42 44 49 58 63 65 72 72 70 70 68 68 68 68 69 69 71 75 78 79 77 75 73 71 69 69 70
56 74 65 59 59 70 78 74 78 78 68 74 55 48 49 43 43 37 36 44 58 64 65 67 69 69 71 71 70 69 73 76 76 76 78 80 82 84 86 86 85 83 86 86
57 79 70 85 56 59 70 70 76 68 62 64 60 53 35 37 35 36 40 47 59 64 64 66 68 70 72 71 71 73 78 79 79 79 79 83 90 92 93 94 97 92 89 87
61 74 84 87 62 65 81 74 74 75 67 61 67 51 38 38 39 46 49 54 59 64 65 66 66 70 73 73 75 78 81 81 80 81 82 84 87 91 94 93 89 86 81 76
60 68 78 86 68 91 54 49 57 65 61 61 51 45 41 44 46 46 50 55 63 67 67 67 68 70 76 77 80 80 83 82 82 83 84 83 88 91 90 86 83 79 78 84
59 65 77 85 85 62 65 60 62 66 66 55 55 47 46 54 53 58 53 53 59 64 67 68 69 71 77 82 86 85 86 86 85 85 83 85 92 89 85 82 82 79 84 87
57 63 77 84 90 85 72 53 48 50 83 59 51 51 54 66 82 82 68 63 67 69 70 71 70 73 81 86 88 86 82 85 87 88 88 90 86 82 82 84 80 82 87 88
74 72 81 80 89 68 63 59 51 88 80 56 51 55 65 76 71 70 73 72 73 73 72 72 74 78 83 87 86 84 86 89 91 91 90 83 84 84 84 86 89 90 64 28
68 74 75 63 69 83 52 53 64 66 60 60 61 63 63 63 70 72 73 75 75 73 74 76 78 82 83 83 81 82 83 87 90 90 82 83 85 86 87 85 56 35 27 23
68 61 60 62 65 49 53 53 55 62 60 62 61 61 63 68 71 70 72 78 77 77 78 80 80 83 83 82 81 81 85 89 90 84 83 84 89 86 67 44 30 26 23 20
56 52 61 57 50 51 52 49 51 52 54 63 62 61 62 62 67 70 76 82 81 82 82 82 83 84 82 80 80 82 88 93 89 89 87 90 86 51 36 32 27 22 19 17
61 58 63 63 53 49 46 55 58 61 65 68 70 68 69 69 69 69 71 78 81 84 83 83 82 82 82 86 84 84 93 92 92 97 98 86 42 34 32 28 23 20 18 16
58 65 72 73 53 62 71 68 64 60 60 62 62 64 68 69 69 71 71 75 80 85 82 82 85 88 84 85 84 92 99 96 93 94 92 49 31 33 33 25 20 18 16 14

GFSCGP_850_rhum_078.txt.gz
RH
92 96 99 90 72 62 73 77 76 73 58 63 65 56 48 38 36 34 30 29 30 29 27 26 26 27 26 38 46 59 69 75 76 77 81 88 85 88 90 87 80 80 82 78
94 96 86 72 66 67 65 78 82 62 57 66 65 61 53 46 42 35 33 30 28 30 27 24 25 24 28 28 33 40 51 66 69 77 74 78 80 82 89 84 81 78 76 74
99 73 67 87 73 75 80 79 77 62 55 60 64 70 61 52 45 40 35 32 29 28 27 27 25 26 26 28 30 32 37 42 43 54 70 68 75 82 84 87 83 81 73 72
96 68 84 94 79 66 90 76 69 74 70 90 57 90 64 53 52 46 40 35 32 31 30 29 29 30 30 28 27 27 30 35 38 39 40 47 58 59 54 65 70 72 71 72
75 82 94 99 76 65 81 73 70 79 89 65 64 75 63 44 56 49 41 38 34 32 32 31 30 29 29 29 29 30 30 31 32 34 36 38 40 45 47 54 58 66 71 69
79 78 84 84 88 74 82 82 83 87 96 99 79 79 75 50 41 41 39 37 34 32 36 35 35 34 32 31 30 28 26 25 26 31 34 37 40 41 46 50 50 49 51 64
97 94 94 90 95 83 83 95 97 99 99 94 75 74 60 44 40 40 41 38 36 36 40 40 41 45 45 42 40 39 37 35 34 32 33 36 38 40 42 44 46 48 51 65
98 99 98 92 86 94 92 80 92 90 96 83 69 85 60 39 37 34 36 37 44 44 43 44 49 56 54 52 51 48 44 43 40 37 35 34 34 34 36 38 39 40 49 77
97 100 93 84 83 74 96 100 88 88 69 88 78 63 43 52 58 58 53 49 48 48 51 54 58 58 58 58 56 53 51 49 48 45 42 39 38 37 36 38 40 46 54 72
80 98 88 94 80 88 85 82 99 99 96 89 74 65 61 60 71 66 68 64 59 57 62 64 65 65 66 66 64 61 59 59 57 55 53 52 51 48 48 50 48 47 52 62
75 78 97 87 94 96 99 98 91 83 95 94 87 65 44 51 61 69 73 64 64 66 65 66 66 68 69 70 66 64 65 65 63 62 62 60 59 58 58 56 53 52 52 54
62 77 93 83 76 63 78 82 82 93 98 92 87 68 41 43 59 61 65 65 64 63 64 65 67 69 71 67 66 66 65 66 65 65 66 67 66 65 64 64 63 60 58 56
57 83 98 99 94 84 99 87 73 75 83 86 86 64 45 54 56 52 57 65 65 66 66 68 71 74 71 65 64 64 65 65 66 67 70 72 74 74 71 67 64 63 62 60
54 74 74 85 68 82 87 89 90 78 87 76 81 51 50 54 55 55 53 60 65 66 67 69 74 74 69 67 66 66 66 65 67 70 74 76 77 76 75 73 71 70 68 67
52 73 67 62 72 71 74 78 82 77 64 76 55 58 50 48 52 51 52 59 64 66 68 68 72 70 69 68 68 68 67 68 72 76 77 79 81 81 80 78 78 78 79 79
65 84 67 84 58 62 71 75 78 70 60 62 63 60 40 40 40 42 44 51 61 60 62 65 66 68 68 68 69 68 69 73 76 78 79 81 84 86 89 88 88 91 91 86
65 79 83 88 65 68 81 75 82 76 67 60 67 51 40 43 41 39 36 39 46 52 60 64 64 66 68 69 70 71 73 77 78 79 80 82 85 89 91 93 91 88 86 83
70 76 80 88 72 95 50 53 60 69 66 62 53 49 43 41 38 36 35 36 42 50 61 64 66 68 70 72 73 74 77 78 80 80 82 85 86 90 90 88 86 82 80 82
61 73 82 87 88 63 61 60 69 73 70 62 61 52 54 53 51 54 52 53 54 60 64 66 67 68 70 72 75 79 81 82 82 84 86 84 87 92 90 85 82 83 84 82
66 70 78 89 90 86 62 56 51 58 87 60 56 56 65 67 73 67 52 53 55 59 65 66 68 70 72 75 81 84 85 86 85 85 88 87 91 91 87 84 83 83 84 80
75 72 82 82 90 75 56 60 54 84 71 56 54 49 60 74 60 59 66 67 66 66 68 70 71 71 72 78 84 85 86 84 86 91 92 90 87 87 86 86 84 83 73 29
70 81 83 78 73 80 58 53 69 65 62 60 58 59 62 61 63 65 69 71 70 70 71 73 72 73 77 83 86 86 86 86 88 92 93 85 85 86 88 88 87 44 26 22
67 62 67 66 66 47 52 53 51 59 60 63 61 63 63 64 66 67 69 71 72 73 73 75 76 79 82 84 83 84 84 85 89 94 88 84 84 87 89 76 37 24 20 18
57 57 61 59 51 53 52 52 55 55 59 63 62 61 61 63 65 65 68 72 75 76 76 79 79 81 82 84 83 83 84 85 92 93 84 86 86 88 70 37 26 22 19 16
62 60 65 66 57 50 50 53 54 57 60 65 69 71 69 69 69 70 69 72 76 77 80 82 79 81 81 82 82 81 82 88 94 89 84 88 87 60 34 28 24 21 19 17
62 66 73 73 55 55 61 54 65 63 64 62 61 62 66 69 68 70 72 74 75 77 82 84 81 83 84 85 84 85 84 93 94 96 92 90 77 36 32 28 22 18 17 16

GFSCGP_850_rhum_081.txt.gz
RH
91 92 97 97 76 63 78 73 84 76 60 65 67 57 51 42 42 42 40 40 37 29 30 29 29 35 37 45 52 66 76 82 93 94 90 88 84 84 80 77 76 79 81 79
99 95 86 80 71 68 68 80 82 67 63 66 71 72 54 46 44 38 34 42 37 29 28 28 27 27 31 37 41 47 65 78 85 90 90 91 86 86 85 84 81 82 77 76
81 77 82 93 79 78 78 71 84 67 64 64 63 73 63 51 49 45 40 33 31 29 29 27 25 25 25 28 35 37 44 51 64 67 73 75 79 85 90 90 87 74 65 72
82 68 95 98 82 75 86 66 66 70 73 87 65 94 67 52 52 52 45 43 38 33 33 29 26 26 26 27 31 32 40 46 48 45 49 62 78 78 74 74 77 78 78 75
74 77 88 100 88 70 82 71 73 81 82 71 70 81 74 49 60 50 46 44 41 37 33 30 28 30 31 31 30 30 31 34 39 39 40 41 42 44 48 55 62 69 77 79
87 82 78 86 87 74 80 81 88 86 92 95 79 84 84 62 47 45 46 41 40 38 34 33 31 30 30 30 30 30 30 31 32 32 33 35 36 38 39 42 48 53 57 60
99 87 90 86 98 84 81 89 98 98 99 92 77 86 67 54 41 39 37 34 40 38 36 34 33 33 33 31 30 30 30 29 29 28 28 31 36 38 37 39 43 45 47 49
98 99 97 91 92 92 85 82 91 90 92 91 77 92 68 51 42 37 34 33 37 39 36 38 40 40 40 40 39 39 37 37 37 37 37 37 36 36 36 38 41 44 45 46
97 99 94 93 87 77 98 94 80 86 75 90 82 72 50 45 52 48 47 47 46 45 46 44 48 51 50 48 49 50 51 49 46 44 43 42 41 40 39 39 38 39 40 44
77 100 89 95 81 82 81 84 91 98 98 91 75 73 66 50 56 65 69 61 55 55 58 61 58 56 58 59 58 58 58 56 54 54 53 52 51 48 46 45 46 46 48 53
72 79 98 87 98 95 94 97 91 85 95 93 91 64 53 48 55 69 73 66 58 59 59 59 62 64 63 64 66 65 62 61 61 60 60 60 60 58 57 56 56 55 56 56
69 83 98 96 82 71 73 81 86 94 97 89 89 70 43 47 54 67 74 63 57 59 64 65 65 64 66 66 66 62 62 61 61 62 63 63 64 65 65 64 63 63 61 60
68 85 98 92 83 85 89 78 69 77 87 97 86 69 45 54 64 66 71 69 66 67 69 68 67 65 68 67 64 61 61 61 62 63 64 66 68 71 73 72 68 66 66 65
53 76 75 84 65 87 100 95 84 83 92 82 87 65 45 53 63 64 70 69 69 68 66 66 68 68 72 69 64 63 63 63 63 64 65 68 72 73 75 76 73 70 69 69
54 78 73 66 73 73 79 84 94 90 79 81 62 63 44 52 60 59 62 68 71 70 68 67 68 69 72 69 66 65 66 66 65 67 72 75 77 78 81 83 83 82 81 79
64 85 68 82 63 67 73 76 88 88 81 75 65 65 46 41 47 52 53 66 70 67 66 66 68 70 69 68 67 68 68 68 69 73 76 77 79 82 86 90 90 91 90 91
67 82 78 78 68 68 74 75 83 76 69 66 70 53 42 47 45 49 52 58 60 59 56 60 62 64 65 67 69 70 70 71 74 77 78 78 80 84 92 97 97 95 93 88
72 73 78 91 72 83 47 56 62 69 67 67 55 49 46 45 42 40 43 45 46 45 48 53 58 63 67 69 72 73 73 74 76 78 78 79 82 86 92 98 95 90 86 82
64 78 85 89 90 66 56 61 71 75 68 64 61 53 51 53 48 45 38 37 38 37 44 50 59 65 68 70 72 74 76 77 78 80 79 82 84 89 94 91 88 84 83 83
70 73 79 91 90 81 57 60 53 56 81 61 60 60 62 65 69 67 46 48 49 50 56 62 66 68 70 71 73 76 78 81 81 82 82 85 84 90 92 89 84 84 86 82
78 75 79 84 92 76 56 62 57 81 68 58 56 53 58 73 57 49 49 51 53 56 59 64 68 68 70 72 74 78 83 84 84 84 85 87 88 89 88 85 86 86 85 68
74 85 87 81 81 81 56 56 68 63 64 62 58 54 52 57 60 62 65 67 68 66 66 68 70 72 73 74 77 82 86 87 85 85 88 89 87 85 88 87 87 86 54 25
70 64 73 66 65 45 51 54 51 61 62 64 62 64 62 62 63 66 67 69 69 70 71 72 73 73 75 78 82 86 87 88 86 87 90 92 88 88 88 88 85 44 29 26
58 58 61 60 51 53 49 53 62 61 61 63 61 61 61 66 65 64 65 65 68 71 73 74 75 77 78 81 85 87 88 87 86 87 93 91 87 89 92 91 52 27 21 17
62 61 65 67 58 52 50 52 54 55 59 64 64 66 67 70 70 72 71 69 70 74 75 76 78 79 80 83 85 85 84 85 86 93 97 89 88 91 90 58 28 22 22 19
63 67 73 73 54 53 52 51 59 60 65 68 66 63 64 67 68 67 66 71 73 74 77 79 81 81 82 84 86 86 86 85 87 94 95 86 88 90 70 37 27 22 21 17

GFSCGP_850_rhum_084.txt.gz
RH
100 90 90 90 91 64 72 86 83 73 64 67 73 64 58 59 74 73 70 68 66 52 36 38 49 57 51 53 51 67 84 85 86 82 87 87 85 80 83 81 80 76 75 78
100 88 69 72 85 78 63 75 82 74 66 66 78 73 62 52 54 51 67 59 54 47 42 33 32 34 44 43 48 62 79 87 90 91 89 84 78 82 83 84 85 79 75 71
97 75 72 94 95 95 69 68 84 75 74 65 71 77 73 59 49 45 45 48 44 40 37 33 35 29 27 32 38 48 64 80 85 90 90 91 91 89 88 89 87 73 64 67
98 80 81 100 100 87 86 57 63 74 78 91 66 88 74 68 62 58 47 41 40 43 36 36 32 30 28 26 29 35 43 62 76 78 83 81 79 74 73 75 75 81 84 78
92 82 98 100 98 79 83 61 70 72 85 76 75 84 76 56 68 54 48 47 44 39 35 33 31 30 27 26 27 31 35 42 52 61 71 74 66 67 74 80 76 71 70 76
91 86 73 88 97 80 82 80 85 88 86 97 80 85 81 71 53 46 46 39 39 37 38 38 33 33 32 32 35 35 35 36 41 49 54 46 42 42 45 48 50 54 60 62
99 91 86 84 100 90 88 88 99 100 99 87 78 89 72 59 47 43 42 36 40 39 35 37 34 34 34 32 32 32 31 31 31 32 32 33 33 34 35 37 39 40 42 46
96 98 92 88 97 99 92 81 90 90 92 91 86 95 69 54 48 45 38 30 31 34 42 40 34 33 34 34 32 30 30 31 31 31 31 31 30 30 33 36 40 42 44 45
98 99 91 87 86 94 97 98 68 86 79 90 82 69 53 49 51 47 45 40 36 32 40 40 38 36 37 38 38 38 38 39 40 39 38 38 38 39 39 39 39 38 39 39
80 98 91 94 90 90 88 83 91 88 94 92 74 69 63 45 46 49 59 56 50 45 48 49 51 50 49 48 48 48 50 50 48 47 46 46 47 46 45 44 44 43 42 45
87 80 100 96 100 99 88 98 87 84 91 91 91 64 55 48 43 49 61 58 58 55 56 62 64 62 59 58 59 57 56 56 55 56 56 57 56 56 56 55 54 55 56 54
82 85 98 97 90 79 77 83 83 92 94 89 91 77 41 50 52 53 62 63 60 58 64 66 66 66 66 65 64 63 59 58 58 58 60 60 60 60 61 61 60 60 60 59
70 86 98 98 84 85 91 83 81 81 89 95 92 74 44 53 57 62 69 64 63 62 65 68 71 72 70 68 64 62 61 58 58 59 60 60 60 62 63 65 64 65 64 65
56 76 77 84 66 82 99 94 82 81 98 85 89 72 58 50 51 64 72 67 65 69 70 71 72 70 70 69 67 59 62 62 61 61 61 61 63 65 67 69 71 70 67 66
60 82 72 68 69 84 86 91 91 88 75 81 70 72 56 47 47 58 66 72 74 75 72 69 68 68 70 70 66 63 63 63 64 63 63 65 69 72 75 77 79 79 78 77
66 83 69 82 73 72 78 84 91 85 75 85 75 74 52 43 48 57 64 74 75 72 70 70 69 68 69 70 67 65 64 64 65 65 68 70 71 75 80 84 86 86 85 84
69 80 76 74 70 66 69 73 86 84 82 80 88 62 51 46 50 52 57 70 68 65 64 64 64 64 66 69 67 66 68 68 68 69 71 74 74 74 80 90 95 94 92 95
71 72 77 93 71 76 45 58 64 74 72 74 68 53 47 44 41 38 45 51 56 57 58 59 59 62 66 69 70 71 70 71 71 73 75 76 76 78 85 99 100 100 98 93
67 79 88 90 88 65 57 65 70 75 64 66 68 60 49 50 50 46 40 43 43 46 50 52 53 56 64 68 70 72 73 74 75 78 78 78 80 83 90 99 100 99 96 92
72 74 80 91 89 75 52 64 57 57 80 57 65 63 58 63 70 63 45 41 39 39 41 42 49 57 65 69 72 73 74 75 77 81 81 83 84 87 93 99 98 97 98 96
80 76 87 79 88 78 56 56 60 82 67 62 59 62 58 74 58 53 56 50 49 51 54 58 63 66 68 71 72 73 75 76 82 85 85 86 88 90 95 96 92 96 99 96
79 86 88 81 91 86 47 60 69 60 66 66 62 59 54 59 61 64 64 63 65 65 63 63 66 68 70 71 73 74 76 82 87 89 87 90 92 94 94 94 93 97 94 77
70 66 74 74 75 49 45 58 54 58 64 66 65 64 57 63 65 66 68 68 68 69 68 69 70 71 72 74 75 78 82 87 89 88 89 92 96 96 94 92 92 92 73 26
60 58 64 63 52 54 49 51 56 64 63 64 64 64 63 64 66 68 68 67 67 69 70 72 73 72 74 75 77 81 87 90 91 91 91 93 97 97 96 94 94 84 33 26
62 62 67 69 60 53 48 53 58 59 61 64 64 65 71 74 76 73 78 80 74 70 72 74 74 76 78 78 79 82 86 88 88 90 91 96 100 96 92 92 87 44 31 24
65 66 70 71 55 54 53 53 59 60 63 68 70 66 65 66 67 68 68 68 70 73 74 75 77 83 82 79 81 83 85 87 87 87 89 96 100 92 91 91 70 32 26 21

GFSCGP_850_rhum_087.txt.gz
RH
98 99 97 96 92 77 63 80 77 69 70 66 64 66 57 67 79 71 56 63 55 38 41 40 41 61 58 58 61 62 63 63 68 77 82 84 84 86 85 82 83 81 79 78
97 97 78 74 82 90 64 79 79 73 67 70 70 67 60 58 76 73 59 63 58 49 42 40 42 45 57 56 48 43 46 47 36 62 65 78 81 78 78 80 82 84 80 78
93 91 59 86 80 100 74 78 84 74 72 66 74 76 68 60 55 64 63 53 48 47 42 41 38 38 33 36 42 36 43 46 51 54 70 77 86 84 74 82 78 77 68 70
98 92 70 98 96 96 84 61 65 78 76 78 69 78 70 65 62 55 55 57 56 44 42 40 39 36 34 30 29 34 35 48 58 61 72 76 77 75 81 84 81 85 87 78
96 93 87 91 95 96 97 54 61 72 79 76 79 79 66 63 65 59 56 50 48 51 48 42 38 38 38 33 30 28 32 40 52 64 68 69 83 81 75 76 78 82 81 80
81 87 76 83 88 91 93 73 74 82 79 93 76 79 68 64 54 52 47 48 44 41 41 40 45 39 32 30 29 27 27 34 43 56 67 67 70 75 68 55 54 61 76 74
98 85 87 83 94 89 100 75 94 93 94 86 77 86 62 58 53 45 43 45 44 42 40 37 38 39 36 31 30 33 32 37 47 54 57 60 59 50 41 38 38 39 40 43
96 98 83 90 97 100 81 74 85 91 90 87 84 92 59 51 49 40 39 38 35 40 41 38 36 37 35 31 34 35 36 35 34 33 33 32 32 32 32 32 32 32 34 37
98 100 80 81 88 98 98 92 64 84 80 82 77 66 47 49 49 49 44 41 40 35 34 42 42 40 34 33 34 35 34 34 33 32 31 31 31 31 30 30 33 35 38 40
86 98 87 93 82 93 97 78 88 89 91 84 71 66 48 41 40 43 46 47 40 40 36 35 43 41 40 40 41 41 40 39 39 38 38 38 37 37 37 37 36 37 38 37
92 89 98 92 96 98 98 100 88 80 82 78 75 53 48 44 41 42 45 45 47 45 44 47 52 56 55 53 51 50 47 44 42 44 47 48 50 51 51 50 50 51 50 49
83 88 96 93 88 83 86 84 76 86 94 87 83 58 40 44 50 52 50 55 57 55 54 58 61 64 65 64 62 60 58 57 55 53 53 54 56 57 58 59 60 59 59 60
76 87 96 96 84 89 100 84 77 81 86 92 84 65 45 51 48 54 63 64 63 67 73 71 66 62 61 62 63 64 63 61 59 57 56 56 56 56 58 61 62 62 62 63
67 78 76 83 66 81 99 91 79 79 94 90 85 65 51 50 50 45 54 66 68 67 71 72 72 70 68 66 66 65 64 60 61 58 61 58 57 56 57 61 65 66 66 66
68 94 71 73 69 83 84 89 91 88 77 80 66 69 49 50 50 45 49 72 74 72 69 67 67 69 70 69 66 66 62 62 62 60 58 61 62 63 64 67 68 72 76 74
66 81 69 82 78 75 80 84 88 86 80 79 79 78 54 45 46 48 54 73 73 70 68 69 72 73 69 68 69 67 64 62 64 63 62 64 67 69 70 72 76 79 81 82
70 78 77 79 73 68 66 70 87 86 83 73 83 59 52 50 50 44 48 65 67 63 64 67 67 66 65 67 69 68 66 66 66 66 68 70 72 75 74 73 80 86 88 90
70 70 75 90 70 75 43 59 65 79 76 80 75 66 55 52 45 40 38 43 57 61 63 64 64 66 67 68 71 72 70 70 71 71 72 74 75 75 76 80 94 99 99 98
66 75 87 83 84 60 60 65 68 68 60 64 73 68 61 49 51 45 38 36 43 53 58 62 61 62 65 66 70 71 71 72 73 74 75 78 81 79 80 88 99 100 100 99
73 73 76 87 86 69 50 65 58 58 74 57 66 67 67 61 69 63 45 42 43 46 47 50 54 56 59 63 70 71 72 73 74 75 77 80 80 80 84 92 100 100 100 100
81 78 84 74 77 73 57 56 62 74 66 67 65 63 64 68 57 54 58 54 48 46 47 48 44 48 56 63 70 73 74 73 76 78 81 84 83 84 92 97 100 100 100 100
78 84 88 83 83 83 46 62 68 60 65 68 68 59 60 65 63 65 64 61 60 58 58 57 59 64 67 71 73 74 74 76 79 82 86 88 89 90 94 99 100 100 100 100
72 68 74 74 73 51 44 60 56 60 66 66 66 63 56 63 66 68 69 69 68 68 68 68 68 68 70 72 73 74 76 78 81 86 88 88 89 93 97 100 100 100 100 100
60 60 66 64 53 55 51 50 51 64 66 64 66 67 67 66 71 73 73 74 71 68 69 70 71 72 72 73 74 77 79 82 87 90 90 90 92 96 98 99 100 100 96 77
66 65 69 71 60 53 49 51 58 66 64 65 65 71 75 78 78 77 75 80 83 82 74 72 73 74 75 77 78 78 81 84 88 92 92 93 94 98 100 100 98 94 86 37
69 68 72 68 58 59 56 62 60 64 67 71 72 69 67 67 68 71 72 73 72 73 74 75 75 76 78 86 80 78 81 86 89 92 91 91 93 98 100 100 98 94 60 37

GFSCGP_850_rhum_090.txt.gz
RH
99 100 98 83 83 83 36 41 42 38 49 54 46 43 40 39 44 38 35 41 43 39 35 39 47 55 60 65 58 64 67 81 82 80 83 86 86 86 89 89 87 86 79 80
100 93 66 52 70 91 74 41 50 37 57 54 45 48 41 38 41 38 36 33 37 46 38 42 43 52 65 63 60 60 62 68 70 71 70 75 77 75 77 84 83 87 85 83
94 62 54 67 96 100 69 43 42 52 59 56 50 56 45 38 42 41 43 42 38 47 44 44 46 48 47 62 66 58 51 49 47 51 52 60 66 66 71 72 71 72 69 72
83 84 65 82 85 97 78 37 47 49 55 64 54 48 40 39 42 41 41 44 46 49 44 42 45 45 41 36 34 50 48 49 48 48 51 56 59 54 54 64 76 79 80 80
83 91 81 98 77 94 95 55 47 52 50 56 65 63 34 43 43 41 38 39 42 45 44 46 44 40 42 38 41 35 32 47 48 44 43 56 54 53 58 60 65 75 74 80
75 89 76 66 83 88 95 67 59 55 61 81 42 54 33 37 36 35 34 36 40 40 41 43 46 42 39 39 38 39 36 30 40 45 42 51 50 58 51 50 62 70 63 68
75 81 77 69 97 90 100 80 96 92 84 57 45 59 36 32 36 30 28 31 37 40 40 40 41 42 42 42 37 30 31 32 33 41 44 41 48 52 54 67 63 49 45 45
76 85 78 76 77 99 100 95 60 58 55 43 63 61 35 29 28 31 35 34 37 40 42 41 40 40 38 43 42 34 29 30 32 36 49 62 65 58 52 44 37 35 34 34
83 94 73 68 85 86 97 98 53 64 61 51 46 45 35 31 35 37 37 36 38 38 42 45 45 46 38 39 39 35 31 32 38 41 40 37 35 33 32 32 31 30 30 30
95 98 71 93 85 94 98 86 75 83 76 54 56 45 22 34 32 30 28 32 35 39 40 41 48 54 44 41 38 36 38 38 38 38 37 35 33 33 33 33 32 32 33 34
88 91 100 97 95 88 98 99 69 59 69 47 53 38 32 32 32 33 30 36 39 45 51 49 54 64 62 47 44 44 46 42 42 41 42 41 40 38 39 39 40 41 41 41
62 93 93 97 76 61 90 69 56 68 81 70 60 39 30 32 36 39 37 50 56 61 66 68 68 68 57 50 50 52 52 49 49 49 48 48 51 51 52 52 50 50 52 52
67 88 94 98 92 88 94 81 61 63 73 79 49 38 32 36 38 36 41 50 64 72 78 77 78 76 61 57 56 54 53 52 54 57 58 58 56 57 57 58 57 56 56 57
76 70 73 64 57 69 99 78 63 87 85 63 56 42 35 35 35 34 37 53 63 72 79 77 77 78 69 63 61 62 62 61 60 58 56 57 56 55 54 57 60 60 61 61
69 86 67 67 64 66 72 75 74 86 67 77 47 53 34 29 33 34 44 58 65 74 80 79 75 70 64 64 64 64 64 62 59 59 59 58 58 59 59 59 61 65 67 69
76 81 64 75 64 66 71 69 69 67 62 58 56 53 39 37 37 38 38 58 65 70 77 77 71 65 62 64 64 62 62 61 61 60 62 61 63 64 64 68 66 70 74 77
68 71 70 77 64 58 58 52 67 68 66 58 71 48 40 40 40 40 40 53 63 64 71 73 64 63 64 63 63 66 67 64 64 64 65 66 67 69 70 70 72 74 81 86
59 57 61 64 58 53 44 49 54 58 58 60 56 53 45 44 45 45 42 43 52 65 67 68 63 64 65 65 67 70 71 68 66 67 68 69 71 72 72 73 73 81 91 98
54 56 65 63 56 48 60 59 56 56 56 52 55 50 51 54 53 50 47 42 46 59 65 63 62 63 64 64 66 69 72 70 70 71 72 72 74 75 76 75 79 93 100 99
58 56 58 69 68 52 54 54 55 51 67 56 57 52 53 57 59 41 48 46 42 45 58 61 62 63 63 65 66 68 71 71 70 72 73 75 76 78 79 81 87 100 99 100
64 65 69 61 64 49 44 53 60 66 66 60 66 60 60 55 52 60 61 58 53 53 50 49 48 50 57 62 65 69 72 72 73 75 76 77 79 82 84 89 96 100 99 99
56 59 62 63 64 66 45 60 63 54 61 69 71 61 63 66 66 69 66 64 62 59 57 55 54 53 52 58 65 70 73 76 77 78 79 80 84 87 88 90 98 100 100 100
60 50 50 50 46 43 45 56 58 60 64 68 71 60 59 65 67 69 70 70 69 68 67 66 66 66 67 69 72 75 76 77 77 78 80 84 89 90 91 93 100 100 100 100
52 52 49 54 47 46 50 53 52 58 70 66 69 67 70 72 73 75 77 78 76 72 68 68 68 69 69 70 71 73 74 76 78 80 83 88 90 90 92 96 99 100 100 100
55 56 54 52 49 49 55 60 60 68 71 67 70 73 77 80 80 78 76 74 79 82 81 76 72 72 73 73 74 74 75 76 80 84 88 91 93 94 96 99 100 99 100 100
58 54 53 52 54 56 52 63 63 68 70 74 74 71 69 70 70 71 72 73 73 73 73 73 76 80 76 77 81 85 79 80 82 86 89 91 93 93 97 100 100 100 100 100

GFSCGP_850_rhum_093.txt.gz
RH
93 100 99 94 86 55 73 46 34 27 33 40 43 37 29 33 34 33 29 28 29 32 35 36 47 42 46 61 87 95 79 79 77 83 88 97 91 93 95 97 97 98 99 98
97 97 58 61 64 90 95 68 40 25 36 41 42 40 30 31 33 32 29 26 27 30 32 35 43 54 43 52 61 73 91 77 72 83 81 82 81 89 89 83 85 88 89 88
82 62 49 60 94 100 91 63 44 32 45 44 45 44 36 30 30 32 31 28 27 26 32 33 42 49 54 54 61 64 73 85 68 67 71 86 86 79 80 80 81 84 82 79
76 61 62 77 96 84 86 42 44 36 53 54 42 53 35 32 32 29 32 30 31 29 33 35 42 50 57 65 64 66 64 71 68 61 61 58 60 64 66 64 65 62 72 73
93 75 62 73 74 72 94 74 41 47 48 44 49 48 29 27 34 32 30 29 30 32 37 38 42 53 55 52 59 59 53 54 49 51 54 52 53 60 67 62 65 62 54 54
93 94 72 69 60 63 86 71 75 52 56 84 43 41 26 33 29 27 26 27 28 32 39 38 45 49 53 43 41 41 40 44 54 60 49 60 57 54 57 65 74 55 42 46
83 98 84 82 99 96 98 86 96 94 93 54 31 45 29 25 25 23 25 26 27 30 36 39 42 49 48 46 41 40 38 39 38 40 50 50 59 54 60 53 63 62 59 55
71 92 94 78 84 100 100 98 84 73 70 47 42 43 31 21 21 27 28 26 26 30 32 35 37 42 48 42 42 40 36 32 32 37 40 43 51 51 47 46 57 58 56 52
68 89 84 68 72 78 100 95 58 58 34 42 40 30 28 27 28 30 29 30 32 33 33 34 37 37 42 45 43 43 45 38 33 33 34 40 45 44 45 46 40 47 38 36
97 90 62 80 71 82 97 95 75 79 64 54 40 27 30 32 30 28 28 30 31 31 32 35 38 39 46 55 44 43 47 47 39 37 43 46 49 51 48 41 37 35 32 32
75 88 100 84 77 92 99 100 81 57 64 43 51 33 27 30 29 28 27 28 28 31 35 35 38 42 50 62 50 44 49 51 48 40 40 40 38 38 38 37 38 37 37 38
79 92 93 98 72 52 66 74 54 68 64 60 62 41 27 31 32 32 31 41 43 45 44 45 43 56 65 68 66 58 49 47 44 40 42 45 44 43 44 46 45 46 47 50
79 87 95 99 91 86 86 76 72 52 76 74 59 42 26 32 32 31 32 39 48 54 59 58 59 65 70 75 78 66 54 50 48 47 48 47 50 53 55 54 55 54 56 55
78 95 97 76 66 64 95 76 55 85 77 46 46 38 33 31 32 28 33 38 48 57 63 61 63 65 68 73 77 68 58 53 51 53 56 56 55 54 54 53 53 53 53 55
85 99 61 56 55 56 70 68 61 91 61 71 44 43 29 26 29 29 32 42 49 56 63 64 63 65 70 75 75 64 56 56 58 59 57 55 55 55 55 55 56 57 57 60
69 81 59 70 57 57 65 58 60 59 55 51 49 49 34 33 33 32 31 40 48 56 64 65 66 66 69 72 69 63 61 61 60 58 57 57 58 57 58 60 60 62 64 65
61 60 64 74 56 52 66 58 59 58 54 53 65 48 37 37 33 37 36 40 45 52 60 66 67 67 67 70 72 65 62 61 60 60 59 60 61 62 62 63 65 66 66 68
53 50 52 52 49 57 44 40 45 52 46 48 50 46 42 40 40 43 42 40 40 49 56 62 67 68 70 72 67 65 64 64 64 63 63 64 64 65 66 69 69 69 69 73
48 48 52 57 45 46 57 54 49 53 54 48 50 46 44 47 48 49 47 47 46 43 54 58 64 69 74 68 64 65 65 66 66 65 65 67 70 70 72 72 75 73 74 79
50 49 54 56 61 47 50 47 48 45 63 51 53 49 49 51 57 49 61 56 53 47 63 62 67 72 75 69 66 66 66 66 66 68 69 70 72 73 74 76 77 79 85 91
54 54 60 51 56 43 40 48 52 69 84 58 61 53 50 48 55 64 65 66 56 51 57 68 73 76 75 76 68 69 70 67 70 72 72 74 75 76 77 80 82 83 87 98
50 52 53 52 58 58 40 56 60 52 54 62 63 55 55 62 69 72 71 67 64 62 58 54 52 50 53 58 68 71 72 70 74 75 76 76 77 79 80 84 87 88 95 98
55 46 54 48 47 40 40 44 47 54 54 64 65 63 62 68 72 74 74 73 70 69 68 66 64 63 63 64 66 68 72 74 77 78 77 77 79 79 83 88 87 89 97 100
45 44 46 48 43 41 45 48 52 52 65 70 73 72 72 72 74 77 78 80 77 73 69 67 68 69 69 70 72 75 74 74 74 76 77 79 80 82 87 88 88 91 98 100
53 49 47 45 42 44 52 60 58 66 74 74 76 78 81 80 78 80 77 74 75 78 79 78 74 72 72 71 72 72 73 73 75 77 80 81 84 87 90 92 92 97 99 100
49 52 54 79 52 52 48 55 72 70 76 78 78 74 71 77 78 81 76 74 73 75 76 77 77 79 82 82 80 76 78 81 78 80 82 83 87 90 91 93 97 99 99 99

GFSCGP_850_rhum_096.txt.gz
RH
94 95 97 89 91 84 75 62 56 40 35 42 50 46 37 29 29 31 33 33 30 31 33 37 39 41 84 83 90 80 80 82 95 97 91 89 90 91 93 90 88 84 85 97
87 93 58 68 80 96 99 94 56 45 38 44 50 51 36 32 34 32 31 30 29 28 31 34 40 40 79 75 75 75 68 81 77 74 72 87 88 91 87 91 90 87 86 92
85 63 56 65 84 100 92 91 67 75 45 50 44 55 44 31 32 32 33 30 27 27 29 33 42 42 72 82 85 77 70 74 69 70 79 78 87 92 94 90 81 83 88 86
79 54 70 67 93 92 85 63 65 52 63 100 65 89 76 54 37 37 33 31 29 27 28 31 42 44 66 79 74 71 81 81 70 72 80 73 75 79 82 89 93 89 86 85
90 81 66 97 97 75 80 81 72 79 62 55 65 66 63 46 39 35 33 31 30 29 28 29 40 42 50 71 71 59 68 84 82 75 71 76 74 72 72 74 70 75 73 67
90 88 85 70 72 71 82 77 74 82 85 98 74 55 40 36 35 35 30 29 31 30 31 32 41 46 45 55 71 64 61 67 71 64 63 63 64 65 73 71 67 63 66 72
99 95 83 80 98 91 98 99 99 98 98 88 58 56 40 28 27 29 29 30 30 28 31 35 46 51 51 54 49 63 67 72 63 64 61 55 52 61 60 65 67 66 73 68
86 98 89 88 90 99 99 100 98 86 90 62 46 89 44 27 26 26 27 26 27 27 31 37 44 45 45 48 43 45 46 46 46 50 55 58 56 63 65 56 66 57 60 52
81 98 76 83 84 82 100 100 90 99 52 74 49 30 27 33 35 29 29 29 30 30 30 37 40 47 43 43 46 43 42 40 37 41 42 57 73 68 62 63 65 74 68 64
88 93 71 77 67 82 97 94 97 99 96 91 50 42 40 38 35 35 33 31 31 31 32 35 36 38 45 44 44 43 43 44 42 38 40 44 45 49 59 49 49 59 57 52
68 85 99 75 77 87 98 93 95 79 77 83 70 50 33 40 36 34 31 30 31 31 32 32 35 38 44 48 44 47 48 50 47 44 44 44 40 44 48 50 47 42 38 36
85 98 96 87 62 55 65 71 73 96 73 93 88 57 38 39 36 34 38 38 35 32 36 35 35 41 50 55 54 56 58 56 57 54 49 46 48 42 38 38 38 37 38 39
85 96 99 99 95 81 83 72 72 72 85 82 94 57 37 36 34 32 36 44 48 47 47 45 41 46 51 54 60 64 62 57 60 56 52 49 46 47 41 42 42 43 45 50
82 95 99 98 75 79 94 75 68 90 93 61 95 48 37 38 36 37 35 42 51 57 59 56 56 62 64 67 71 74 64 55 50 47 45 46 49 48 47 51 50 52 51 49
81 100 97 58 55 63 75 82 72 83 72 79 55 46 40 37 34 32 34 41 51 58 61 61 63 66 71 75 77 73 63 57 55 53 54 54 54 54 54 54 53 53 54 54
80 96 63 82 55 58 70 66 64 66 62 58 55 57 38 36 35 36 34 41 47 56 62 64 64 67 71 75 75 72 63 60 60 60 58 58 57 57 57 57 57 57 58 59
70 93 78 91 56 54 78 64 65 60 54 56 70 53 49 48 42 38 40 41 44 51 61 65 66 66 69 72 70 64 61 61 61 60 57 58 58 58 59 60 61 62 63 65
66 60 60 73 56 76 51 43 52 56 50 48 51 50 48 47 43 42 44 44 40 48 55 64 67 67 67 69 68 65 62 61 62 61 61 61 61 62 63 64 65 67 68 67
52 64 67 77 58 56 59 54 51 58 59 50 53 52 48 47 51 54 51 48 45 44 52 58 64 67 68 69 67 64 62 64 65 65 64 64 65 66 67 68 70 70 71 72
52 58 71 75 77 63 61 50 48 47 78 54 57 58 54 53 74 75 61 53 51 48 56 57 62 68 71 70 68 65 64 63 65 67 67 67 68 68 70 71 73 74 75 77
66 63 76 72 74 57 48 50 51 80 91 61 62 54 53 69 68 69 67 64 60 54 62 67 69 72 75 75 71 70 68 67 68 70 72 72 72 73 73 74 75 77 80 81
54 65 67 66 66 72 49 58 69 59 59 62 64 57 57 68 70 72 73 72 70 67 62 68 74 75 77 78 77 72 71 71 72 73 77 77 76 77 76 76 77 80 84 83
64 56 66 59 62 43 42 42 44 48 51 66 67 63 64 70 72 72 73 73 73 73 72 71 67 64 61 61 64 68 69 74 74 78 80 79 79 77 77 78 80 84 86 88
50 45 56 52 49 46 50 50 53 54 67 69 72 72 71 73 76 79 81 82 81 79 74 71 70 70 70 70 73 72 73 74 75 77 78 78 77 77 78 81 85 88 90 92
62 56 55 53 56 55 55 58 65 65 73 71 70 78 81 81 78 76 75 75 74 73 74 76 78 75 73 74 74 73 73 72 72 74 75 75 77 78 81 86 90 93 94 100
54 66 79 92 63 60 54 58 66 71 76 78 73 74 78 78 77 78 74 74 73 73 74 74 76 77 79 79 82 83 81 78 79 81 81 82 82 83 83 88 92 95 98 100

GFSCGP_850_rhum_099.txt.gz
RH
90 96 97 96 90 100 78 90 89 51 43 67 79 66 57 55 76 80 63 45 39 43 42 42 39 43 64 81 85 82 82 83 88 94 96 86 86 88 90 86 86 85 84 85
89 94 65 76 76 92 100 94 74 55 40 44 54 57 45 37 36 44 50 42 33 38 43 42 40 40 63 70 78 77 73 82 83 85 88 90 90 90 87 86 87 87 87 86
86 66 53 70 86 94 96 99 74 61 50 51 54 62 57 41 34 35 34 33 33 31 31 40 42 40 42 74 74 67 61 71 70 82 81 87 90 89 92 92 94 95 90 90
84 74 60 74 91 95 99 93 74 65 78 82 75 88 65 53 43 41 35 34 31 30 28 37 41 41 39 42 72 73 69 61 66 72 74 75 78 81 80 92 90 93 93 89
86 95 77 100 92 82 98 86 77 80 84 76 93 97 69 58 50 48 41 34 33 31 30 31 39 39 45 43 57 73 77 72 74 77 76 78 81 80 84 92 88 80 86 87
88 92 89 76 78 85 84 90 90 88 97 96 91 98 50 58 52 45 38 34 32 31 30 31 39 40 43 64 60 76 91 86 83 76 76 82 75 79 76 78 79 72 68 74
98 100 86 78 97 91 98 99 98 98 98 92 73 79 54 41 39 39 37 33 32 31 30 30 42 46 45 52 65 69 72 81 78 77 77 72 73 71 70 68 68 70 70 75
94 97 91 84 90 98 100 100 97 93 96 76 65 76 58 35 31 31 31 30 30 30 31 30 38 45 43 44 48 63 60 71 75 74 64 63 60 59 61 56 58 57 53 58
95 98 88 81 78 86 100 99 97 90 69 81 75 48 31 38 37 34 33 31 30 29 31 30 39 48 47 46 48 52 61 67 71 65 64 59 57 59 60 61 61 58 52 60
86 96 74 83 74 86 92 88 97 96 92 86 61 42 44 44 40 37 38 34 32 33 30 34 40 47 46 45 44 45 46 51 46 46 46 48 46 52 56 57 60 62 70 81
73 80 96 78 84 90 92 98 95 94 89 86 82 59 45 43 39 39 37 34 32 32 34 40 46 47 46 46 46 46 45 43 42 40 36 38 48 54 58 65 65 65 65 67
93 91 85 85 89 65 74 72 83 95 90 97 89 65 42 43 42 42 42 38 36 34 33 33 36 44 47 48 48 46 44 44 46 44 43 44 46 46 44 43 39 38 40 41
84 96 95 91 86 78 82 78 75 83 86 95 97 66 41 40 39 39 44 44 43 40 38 36 36 45 52 53 51 50 50 49 52 52 52 54 52 50 48 44 48 46 44 43
89 86 98 91 72 82 95 80 77 86 93 98 94 57 46 40 40 40 42 47 49 50 49 44 50 52 58 61 60 60 62 63 62 64 66 64 59 54 50 48 44 46 51 51
86 98 93 83 68 73 80 82 81 85 68 82 73 55 47 39 39 37 40 48 53 57 58 56 58 58 60 63 63 64 65 65 63 62 60 56 53 51 46 45 50 54 54 54
86 94 75 87 57 66 81 79 78 72 65 64 59 57 48 40 39 39 42 46 55 58 59 61 60 63 66 66 64 65 64 64 61 58 57 56 55 52 51 54 55 55 55 56
81 93 90 96 60 60 79 67 72 66 57 58 72 60 51 51 47 46 44 44 48 55 62 63 64 66 68 68 67 62 62 62 60 60 59 58 57 56 57 58 58 60 61 61
85 76 76 85 61 78 55 46 53 62 53 51 51 51 50 49 48 52 49 45 43 50 60 63 65 66 67 68 67 66 65 62 62 61 60 59 60 60 61 62 63 64 65 66
87 73 86 80 76 58 61 57 56 57 67 54 58 60 57 53 53 62 59 55 49 46 51 61 63 66 67 66 65 67 67 66 65 64 63 63 63 64 65 67 68 69 70 69
58 66 81 86 82 70 65 53 50 50 88 66 63 59 56 56 76 77 65 59 54 51 52 57 64 67 68 68 69 69 66 66 66 66 67 67 68 69 70 71 73 74 74 73
77 74 83 80 84 64 52 53 52 72 80 66 60 56 61 73 70 70 69 65 61 56 68 66 66 68 70 72 73 71 69 67 70 70 70 71 72 72 74 74 76 78 77 77
63 77 77 79 74 76 53 57 71 66 61 67 66 58 69 70 72 73 75 74 70 65 63 78 76 74 76 78 79 78 75 75 75 75 76 77 78 77 77 77 78 80 80 81
68 64 71 69 73 46 43 45 48 48 50 69 68 64 66 71 73 72 74 73 73 73 71 68 70 77 81 82 82 82 80 77 77 78 79 80 80 78 78 77 78 80 83 85
69 56 63 58 66 64 61 58 61 64 68 72 73 72 71 74 79 81 83 82 82 81 76 73 71 70 71 72 72 74 76 77 77 79 80 80 78 77 78 78 79 83 87 89
74 63 66 75 69 61 58 62 62 69 75 75 77 81 81 82 82 80 80 79 78 78 78 80 80 79 78 77 75 75 76 77 78 78 78 78 78 78 81 82 82 85 89 93
68 75 87 94 80 80 72 63 68 75 78 79 79 80 82 81 80 78 74 75 75 74 74 75 77 80 80 81 82 84 85 85 81 80 80 81 81 84 87 86 86 87 90 96

GFSCGP_850_rhum_102.txt.gz
RH
89 90 93 86 92 99 100 94 86 65 61 79 79 65 86 90 88 88 82 74 66 64 45 51 74 75 76 77 78 79 82 79 79 75 88 90 84 89 90 86 88 85 81 82
84 94 73 61 92 97 100 88 98 76 54 68 76 74 73 88 86 87 79 78 70 57 54 45 46 58 75 75 76 79 79 80 79 72 78 84 89 88 86 86 88 86 86 84
88 68 58 64 96 98 100 88 87 85 70 72 70 80 77 71 74 84 82 81 61 48 48 47 46 43 54 64 74 82 77 81 79 75 78 80 89 89 87 83 84 86 89 90
82 76 77 68 91 98 95 87 80 78 94 99 82 96 85 85 60 53 68 72 51 53 38 44 42 43 48 45 53 65 68 70 80 84 80 74 72 79 80 84 88 89 90 91
75 91 90 89 75 84 100 89 82 75 86 78 93 81 70 63 60 46 39 47 44 36 32 32 42 42 40 42 43 52 67 65 68 76 78 75 77 77 78 86 89 89 97 100
92 89 98 90 77 79 88 95 84 86 88 96 91 79 61 63 53 43 39 38 35 32 31 30 33 42 42 44 47 52 57 68 76 74 76 78 78 79 80 76 82 94 94 92
95 100 88 78 95 91 99 99 98 98 98 95 95 96 72 49 44 38 39 36 34 34 32 30 35 46 48 47 46 49 50 65 64 72 75 77 80 83 81 77 78 78 72 71
97 98 98 80 88 95 100 100 97 95 96 96 74 90 58 39 35 38 37 34 33 33 32 31 30 41 50 51 48 47 54 58 62 71 73 78 80 79 72 70 72 73 71 69
95 99 82 82 82 89 100 99 95 90 72 90 91 61 39 39 41 40 39 35 34 33 32 31 31 32 43 45 47 50 49 52 57 61 74 79 74 71 70 69 66 64 63 62
86 95 82 86 79 79 95 90 95 94 85 92 74 50 47 40 41 43 43 36 31 30 30 30 31 33 38 41 44 48 48 58 56 68 72 69 57 53 55 57 60 62 64 61
90 76 91 76 84 91 92 95 94 86 90 87 83 60 47 55 38 42 40 37 36 34 30 31 32 36 42 45 47 47 48 54 66 74 71 66 64 61 63 61 60 60 63 64
86 81 98 85 78 70 70 73 88 90 89 98 88 70 42 52 48 47 47 43 38 35 37 34 31 35 47 50 48 48 46 48 51 49 48 50 56 58 61 69 62 50 48 44
83 92 90 84 79 74 85 79 77 83 86 98 90 72 44 46 46 46 49 46 42 43 38 36 44 52 53 50 50 50 50 47 45 43 43 43 47 53 48 48 45 48 45 44
88 91 91 81 67 79 95 85 81 82 92 97 96 81 45 43 45 43 47 50 49 46 47 43 37 39 51 52 53 53 51 48 48 50 50 50 50 51 50 50 51 52 51 46
85 93 94 82 78 78 79 82 84 84 86 96 82 75 51 44 39 38 40 47 51 53 54 53 53 52 56 58 59 57 56 56 57 58 60 59 58 60 58 56 54 52 51 48
87 94 83 87 62 76 84 79 81 78 68 83 80 72 53 47 44 45 44 50 51 54 55 57 61 61 58 58 57 60 62 62 63 65 65 66 64 58 54 55 56 56 53 52
82 92 92 90 66 62 82 78 81 72 61 62 76 60 50 48 48 50 47 46 50 51 55 59 61 62 61 62 64 61 59 60 61 62 62 60 58 58 60 59 58 56 57 57
95 83 82 87 64 77 55 47 56 62 56 56 55 52 52 52 58 56 55 52 48 52 57 61 63 64 65 67 69 69 67 66 64 63 63 63 62 62 60 60 60 61 61 63
91 84 85 84 80 61 63 64 59 58 73 60 65 62 57 54 58 62 62 61 58 52 50 57 62 64 66 67 66 67 68 67 65 65 65 64 63 63 62 63 64 66 68 70
78 77 83 87 85 74 66 54 52 51 89 68 62 58 59 60 76 74 65 64 60 60 55 51 61 66 66 66 68 69 68 67 64 65 66 66 66 66 67 69 70 70 72 74
80 80 84 83 86 67 53 55 54 64 72 67 59 57 62 70 70 72 72 68 64 59 60 60 61 68 68 67 67 69 70 67 68 71 71 71 71 72 74 74 74 76 77 77
70 80 82 83 84 83 55 58 70 65 64 69 64 60 66 68 72 74 74 74 72 68 74 81 72 70 71 71 74 75 74 74 74 74 74 75 76 76 78 77 77 78 78 78
69 68 76 69 71 53 58 57 58 53 52 72 68 63 66 70 73 74 78 78 75 75 72 78 83 80 78 78 79 79 81 81 79 79 79 80 81 80 80 80 80 79 79 77
71 63 66 64 74 72 66 62 66 74 73 75 75 73 73 71 78 81 83 83 82 80 76 74 74 73 74 79 83 85 85 84 83 83 84 85 85 85 84 81 81 81 80 81
76 73 74 81 70 67 63 68 75 73 79 77 80 80 81 83 83 82 80 79 79 79 77 77 77 78 77 76 76 77 80 83 84 85 86 86 86 84 83 83 85 84 84 85
75 79 86 90 80 82 79 80 76 78 82 83 81 81 85 86 84 80 76 77 77 76 76 74 72 73 76 79 82 83 83 84 85 82 82 83 84 84 86 88 89 89 93 94

GFSCGP_850_rhum_105.txt.gz
RH
84 88 92 75 98 95 100 98 91 76 74 85 90 77 83 85 85 94 82 68 64 61 63 69 73 68 80 83 86 79 81 83 88 84 85 86 84 87 84 87 85 85 78 72
84 89 72 66 85 94 100 98 95 81 68 77 84 81 75 84 80 98 92 73 67 60 58 66 71 76 67 76 81 81 80 76 79 82 88 82 83 85 84 86 83 87 88 79
89 68 62 64 100 98 99 90 99 82 86 83 80 92 91 93 88 83 88 77 66 66 56 58 64 70 77 77 80 81 79 76 79 77 80 71 79 85 79 84 86 86 87 84
84 74 82 71 100 89 96 78 79 85 89 100 91 99 95 90 89 86 86 76 62 56 55 51 55 60 66 66 72 77 76 78 75 74 72 72 72 76 53 75 76 87 86 85
74 91 89 86 80 92 100 79 80 92 99 96 98 86 73 84 86 87 78 74 59 56 52 47 46 52 45 55 66 68 71 74 77 73 76 76 75 76 73 81 91 90 86 87
91 87 95 92 80 94 96 93 83 96 100 95 90 80 69 84 63 62 59 66 66 57 47 43 37 47 44 48 50 57 62 67 73 77 78 74 78 78 78 85 92 85 77 80
93 99 97 80 93 96 100 84 97 98 97 93 86 77 58 57 48 46 48 47 53 61 49 36 34 32 42 47 47 48 53 56 66 68 74 77 83 81 75 75 71 70 69 66
97 99 97 82 89 96 100 100 92 95 97 97 90 82 56 43 39 39 38 39 41 39 38 35 30 29 33 44 52 50 49 52 58 65 64 66 73 73 74 75 70 69 68 68
96 97 83 87 89 88 100 98 96 85 78 91 89 71 42 40 43 40 42 38 36 32 34 35 31 31 37 43 49 47 48 50 53 60 64 68 68 69 71 73 70 69 69 68
90 93 77 80 79 80 97 93 96 94 82 94 83 60 53 54 48 47 48 44 36 34 36 34 32 31 32 42 47 51 49 50 51 53 58 59 67 75 79 74 72 71 67 60
89 76 83 75 84 88 90 95 93 84 89 87 85 60 45 58 53 45 49 40 38 35 35 33 32 32 31 35 48 52 56 55 52 60 62 73 81 82 68 68 68 68 64 64
84 82 98 82 70 76 69 74 87 90 90 94 89 75 48 54 55 50 52 49 41 39 36 31 32 32 33 36 50 58 50 47 52 54 63 74 78 69 64 65 66 67 67 70
83 87 92 79 78 72 87 79 79 84 86 94 88 77 45 48 50 53 53 50 48 43 41 41 33 33 34 40 50 51 50 48 48 52 63 74 78 78 77 72 67 74 76 62
86 96 88 84 67 75 94 87 83 82 93 92 94 75 50 47 46 46 52 54 52 47 43 42 48 49 49 50 51 52 49 48 48 50 51 51 53 55 58 65 69 62 51 50
86 99 100 84 74 80 78 81 84 86 86 90 89 74 55 52 48 45 44 54 55 56 51 47 44 47 59 60 59 57 56 53 51 49 50 52 52 54 57 54 53 54 54 53
83 92 90 85 68 78 86 80 81 78 87 85 82 75 54 50 50 51 50 50 53 57 59 57 58 53 56 63 62 61 59 56 56 58 61 62 61 60 60 63 61 56 52 53
82 89 92 83 68 67 81 69 81 75 64 80 80 66 51 52 54 58 55 51 50 51 59 61 60 60 60 60 62 63 64 63 64 64 66 69 69 69 66 58 56 57 56 57
93 87 86 88 64 79 59 53 63 67 64 57 57 56 58 58 63 62 63 58 51 50 54 61 64 63 62 63 65 67 67 65 66 68 65 62 61 60 59 59 59 60 61 62
90 90 85 83 81 60 69 66 74 65 76 70 66 62 57 57 62 66 64 62 60 54 49 52 61 65 66 67 71 72 68 68 66 63 63 63 64 64 62 62 63 64 65 67
91 87 85 88 84 78 64 55 52 54 89 69 61 58 61 60 72 72 72 70 66 61 56 49 52 63 67 68 68 68 67 65 63 64 65 66 65 64 65 66 67 70 71 72
84 84 84 85 90 72 52 58 56 66 66 68 59 58 63 68 67 74 74 71 70 66 60 58 56 64 68 69 69 68 69 68 72 70 69 69 70 70 70 70 72 73 74 74
74 82 86 86 87 84 56 60 70 65 67 74 66 61 67 68 72 74 74 74 73 71 80 82 73 71 71 71 72 73 74 76 75 74 73 73 74 74 75 76 77 78 79 78
73 70 79 72 73 68 77 76 78 73 60 71 72 66 67 72 77 76 80 80 77 75 74 83 85 78 75 74 75 77 79 80 79 78 78 78 79 81 81 81 82 82 81 78
76 71 70 75 76 78 71 69 69 77 76 78 76 75 74 74 78 83 85 83 82 82 78 75 75 78 82 83 82 81 81 82 84 84 82 83 84 84 85 87 86 84 81 81
78 75 79 83 71 71 74 77 73 79 82 80 81 82 80 82 84 84 80 80 79 78 78 79 79 77 76 76 77 78 80 82 83 85 87 88 88 89 90 88 86 83 85 86
75 79 87 84 78 78 78 76 80 69 79 84 84 83 88 88 88 86 78 75 75 75 75 73 71 71 72 75 78 80 81 81 81 81 82 84 85 85 86 86 85 86 91 92

GFSCGP_850_rhum_108.txt.gz
RH
84 91 92 82 76 99 95 96 98 74 72 71 84 78 72 84 95 87 93 90 81 79 84 76 72 89 87 84 80 72 69 74 88 88 94 93 84 80 80 80 80 78 73 65
85 93 66 71 70 96 96 94 95 80 77 70 89 91 90 86 88 91 94 92 82 75 71 80 75 80 80 82 95 96 96 85 89 85 87 84 82 82 91 86 86 85 82 78
93 70 67 75 82 99 91 98 96 86 84 86 90 96 96 91 91 92 82 88 78 72 66 72 80 82 79 79 84 88 97 91 83 80 82 82 79 80 90 84 83 78 76 87
88 71 82 82 95 98 99 90 94 80 92 100 96 98 96 94 93 90 89 91 77 72 60 58 63 77 71 68 78 72 77 98 91 86 86 80 85 79 77 71 71 67 64 77
78 92 85 95 93 97 100 86 89 96 96 100 96 83 99 86 91 85 84 86 75 65 56 51 51 68 76 74 76 80 82 99 99 94 86 61 66 78 82 78 71 69 70 76
87 82 87 92 96 97 96 93 86 88 90 95 99 73 86 93 81 76 73 86 70 64 52 46 43 47 68 73 67 64 82 79 91 90 93 94 83 80 89 77 73 74 65 80
91 96 98 97 99 96 100 88 98 94 95 96 87 77 57 74 64 64 59 71 69 65 48 39 35 40 48 63 76 79 84 84 79 83 87 87 82 83 83 78 73 73 74 71
97 97 98 81 92 99 99 90 92 92 94 92 82 83 59 45 49 54 50 54 70 62 48 36 33 33 38 46 50 56 58 62 66 70 70 64 73 71 70 73 72 73 72 75
96 98 86 79 83 94 100 94 92 84 76 92 92 64 40 46 46 44 46 48 54 53 51 38 35 33 33 34 44 49 49 54 56 60 59 62 62 70 67 72 72 69 68 71
92 89 73 77 82 92 99 95 94 92 84 90 84 63 65 60 56 53 50 47 44 46 41 40 36 32 33 38 44 49 45 51 53 57 59 60 67 69 72 75 76 73 74 75
88 74 74 72 87 93 92 96 90 83 89 92 88 70 49 62 60 57 60 49 44 41 39 37 37 36 32 35 47 50 49 48 50 52 53 60 60 66 73 76 77 75 73 71
85 82 98 83 68 80 73 78 90 90 89 94 90 80 50 58 63 58 60 57 48 43 36 34 36 35 34 31 40 53 53 52 53 53 55 56 66 75 76 79 74 70 68 65
89 89 91 72 64 68 86 85 85 82 86 93 88 76 50 52 55 62 60 53 51 45 41 40 35 35 33 34 39 52 52 55 57 57 55 56 75 80 80 73 69 71 70 70
82 90 86 95 86 76 90 85 90 82 93 95 92 67 60 55 54 51 58 56 51 49 49 45 49 43 40 40 47 57 58 54 54 55 55 60 72 80 80 82 80 76 75 80
85 96 88 83 75 80 83 83 86 92 87 83 78 70 58 58 58 57 57 58 54 53 50 49 48 54 55 56 55 58 57 55 53 53 53 56 58 64 68 66 69 71 59 53
81 92 89 83 71 79 91 87 83 83 84 84 78 74 56 53 53 55 55 53 56 60 58 55 57 58 62 68 69 66 61 59 58 55 53 52 54 56 60 62 58 56 56 57
83 88 90 80 68 73 81 69 81 76 69 77 72 64 54 60 62 68 62 56 55 60 62 61 59 62 67 67 67 66 64 61 59 60 62 63 64 63 62 63 64 64 58 55
90 88 86 88 61 85 61 59 60 70 70 62 59 63 62 62 67 68 66 63 58 56 60 64 62 62 62 65 66 65 65 67 67 65 65 68 72 72 71 69 62 59 58 58
88 90 86 83 82 61 72 69 85 83 84 75 67 62 58 61 66 70 70 67 62 58 59 56 59 65 66 67 67 65 66 66 65 65 67 67 67 67 66 65 63 62 63 64
95 86 86 90 84 81 68 56 54 62 88 70 60 59 64 61 69 75 76 69 65 60 58 56 54 63 68 69 70 70 68 66 67 66 67 67 69 70 68 65 66 67 68 70
85 86 83 86 91 72 54 62 61 67 63 76 62 61 65 70 70 80 79 76 73 69 67 68 63 66 70 73 73 73 73 73 73 73 73 71 69 69 70 69 69 69 71 73
76 84 87 88 89 86 68 62 65 65 67 78 72 65 68 71 76 76 78 78 77 76 85 85 80 77 75 75 75 76 78 77 76 76 77 77 77 75 73 74 74 74 74 74
76 72 81 73 74 75 83 83 84 82 75 79 76 74 71 74 75 77 83 84 82 77 76 85 88 82 77 76 77 78 79 80 79 78 77 78 76 77 79 78 77 76 76 78
79 74 75 81 80 78 76 75 80 82 81 82 84 80 78 76 77 82 81 78 78 80 81 78 78 78 83 83 81 81 82 82 82 84 83 82 83 83 81 81 80 82 83 82
79 75 80 82 75 75 79 76 73 79 83 82 83 86 83 80 76 84 83 80 76 78 78 80 80 80 78 77 78 81 83 85 85 86 84 85 87 87 87 87 88 88 86 82
77 78 88 87 71 72 78 80 81 75 67 75 80 83 88 88 86 90 82 78 78 77 73 71 70 70 72 74 76 79 82 82 82 82 82 84 87 88 88 86 86 85 84 86

GFSCGP_850_rhum_111.txt.gz
RH
85 90 91 73 78 83 91 95 94 73 62 75 83 64 67 90 92 91 90 86 79 97 81 65 77 87 82 81 87 70 52 92 84 78 88 86 72 47 58 52 42 43 50 58
83 95 70 66 72 82 90 97 87 71 64 73 68 68 69 89 85 90 94 91 68 91 87 76 70 81 90 79 80 61 78 99 99 92 92 87 84 62 60 50 59 67 65 64
92 71 68 75 87 92 91 97 93 85 77 74 76 98 96 87 88 94 98 88 73 96 82 95 75 68 77 91 79 78 98 99 99 84 84 87 93 94 85 80 83 82 80 78
89 73 79 83 95 91 97 94 100 79 99 99 96 99 95 91 88 90 91 86 88 98 78 87 76 78 79 76 86 99 98 98 98 98 78 82 84 89 84 77 76 86 84 78
76 77 84 85 94 98 100 100 98 88 100 100 97 84 100 85 92 87 85 92 95 89 69 77 84 77 83 89 87 98 99 76 91 99 86 73 72 69 75 80 82 77 76 75
84 70 86 94 97 98 97 96 95 84 91 97 98 75 87 93 83 77 80 92 96 75 65 59 68 74 79 82 86 88 93 83 72 89 97 92 86 80 77 80 71 67 68 76
92 98 98 98 99 88 100 85 91 90 94 96 95 74 64 69 69 66 74 95 79 70 64 47 50 64 61 71 80 80 86 90 91 80 74 85 85 93 80 76 62 64 72 76
97 97 94 88 99 100 100 86 92 87 92 92 71 86 62 48 47 56 63 71 75 72 61 50 41 41 62 72 75 77 84 80 80 82 83 100 99 89 91 92 74 88 85 84
98 89 77 82 97 99 99 92 96 85 76 81 84 56 45 44 47 50 51 71 78 71 56 42 39 39 44 58 61 56 59 68 73 78 80 89 81 83 88 86 87 87 78 76
93 87 65 76 90 86 90 88 91 90 85 91 73 71 72 61 62 58 54 63 84 73 59 54 39 38 45 49 64 66 63 64 67 72 73 75 77 78 76 76 74 72 70 71
91 75 71 72 91 98 91 93 85 83 84 82 78 93 53 63 65 68 66 54 72 71 62 53 45 38 42 56 60 62 55 58 58 61 64 63 65 66 69 72 78 75 76 76
86 82 96 85 73 84 75 86 90 86 88 90 84 88 52 58 67 67 72 62 59 72 60 50 49 39 39 49 62 59 57 55 52 54 56 59 61 66 72 80 81 79 78 77
88 89 87 70 60 65 84 83 87 81 84 96 88 77 50 52 53 66 72 68 61 60 56 50 50 47 36 38 56 64 59 57 56 57 57 60 60 70 79 87 87 80 77 71
76 90 88 95 88 84 90 83 88 83 87 89 87 68 64 63 62 62 67 64 65 64 61 59 58 46 42 39 45 60 60 53 57 61 59 56 62 77 84 84 76 75 75 72
80 88 96 80 79 81 87 88 87 95 87 83 77 73 69 66 66 66 60 55 57 64 63 65 65 66 54 52 54 65 66 63 58 60 63 59 65 76 79 80 82 82 80 77
82 91 84 81 82 79 81 83 82 83 80 83 76 77 60 59 60 64 67 57 60 65 68 67 69 72 71 68 63 63 63 61 60 58 57 58 59 62 66 67 66 70 70 59
87 87 84 82 69 74 80 70 80 75 78 71 82 69 61 69 74 77 66 66 65 59 63 68 68 68 75 75 72 69 64 61 58 57 58 58 58 57 59 60 61 59 60 61
90 88 85 86 60 85 61 65 60 74 81 72 70 70 66 70 75 72 72 67 64 63 56 55 63 70 68 71 73 72 70 68 67 64 61 61 61 62 65 65 66 66 65 62
90 88 89 80 84 63 72 69 81 71 91 79 72 64 63 64 67 73 77 73 72 68 63 57 52 60 67 70 70 70 71 73 75 76 76 75 74 72 72 72 71 66 62 60
93 84 83 87 82 82 71 60 60 65 94 75 60 65 68 60 70 72 75 72 69 70 67 61 54 53 67 69 72 74 74 73 74 74 74 73 73 72 70 69 67 66 65 68
86 86 82 88 90 73 56 63 64 67 68 82 65 67 68 74 73 77 75 75 74 70 72 79 74 66 71 73 75 76 78 75 73 73 74 74 74 74 72 70 68 67 68 70
78 84 87 89 88 84 73 68 64 62 70 81 75 70 73 75 78 77 80 79 75 73 79 86 82 79 77 78 78 78 78 76 76 74 72 72 74 73 71 70 72 72 74 76
77 71 78 72 72 69 85 82 84 80 81 84 82 79 74 75 77 80 84 82 79 77 75 83 89 84 80 78 80 82 81 81 80 79 79 79 78 77 77 77 77 76 76 76
80 76 78 80 80 79 81 83 85 84 82 84 85 82 81 78 78 78 74 80 78 78 78 77 78 82 87 86 86 86 85 85 84 84 84 83 81 82 81 82 82 84 85 85
81 77 81 83 80 79 81 77 81 86 84 84 83 85 85 80 75 81 86 83 79 79 78 78 79 80 81 82 84 88 91 93 95 96 98 97 97 97 94 94 92 89 88 90
80 82 88 84 70 70 71 80 80 75 70 69 77 85 87 79 87 90 88 81 78 76 73 70 69 69 70 73 76 78 82 85 87 90 91 93 96 100 97 95 98 95 96 96

GFSCGP_850_rhum_114.txt.gz
RH
72 76 70 49 48 63 69 78 75 50 42 51 80 55 48 69 72 67 72 72 76 66 68 68 86 80 100 90 98 100 90 88 97 86 78 82 79 81 95 96 85 57 51 51
73 73 43 49 53 59 68 72 72 52 43 51 60 64 43 52 65 67 72 72 75 71 69 63 91 99 82 97 95 82 99 92 95 86 74 79 87 84 67 67 64 63 66 70
74 47 46 57 64 75 70 84 73 75 74 56 61 69 56 75 74 73 70 69 80 65 68 63 86 99 79 93 94 93 92 100 98 91 72 86 91 81 61 59 54 53 49 56
62 51 61 61 71 84 91 85 99 98 98 97 56 85 83 79 85 75 72 76 83 74 68 72 86 100 93 95 100 99 99 99 99 99 79 74 79 79 50 56 50 52 62 67
63 56 62 76 72 100 97 99 100 99 99 100 87 86 100 93 91 76 65 71 72 84 82 79 85 99 85 94 92 100 96 97 99 81 95 81 95 80 71 67 61 73 80 82
72 60 68 73 72 94 97 100 100 100 100 96 85 71 99 95 71 65 59 70 80 91 82 85 94 96 84 93 74 90 100 99 98 100 96 94 96 87 77 76 76 82 80 75
72 87 82 96 97 78 92 93 82 93 93 95 94 62 74 54 64 66 64 74 97 90 93 71 91 86 86 92 79 72 78 77 85 97 98 100 100 90 80 82 78 82 85 81
87 80 82 92 99 100 99 93 89 90 91 93 73 86 82 45 44 45 71 78 96 93 80 63 77 84 75 85 89 86 78 90 82 72 93 97 97 95 96 88 89 94 93 86
81 80 80 96 98 98 92 89 95 80 63 70 92 65 47 45 49 46 77 88 99 94 79 66 54 76 90 92 86 90 91 86 88 89 95 84 79 87 99 89 82 84 94 86
77 86 56 68 88 74 88 95 90 77 75 88 85 89 90 62 63 56 82 90 99 94 67 53 57 58 87 81 82 74 91 93 90 96 96 79 71 90 76 89 82 87 84 74
74 67 68 62 84 99 85 83 76 66 66 66 76 93 58 64 65 61 72 93 98 86 80 64 47 59 64 82 78 69 80 88 86 88 79 76 72 86 83 82 91 81 84 85
72 69 83 84 61 74 67 77 75 78 71 72 62 91 44 51 61 61 66 94 87 78 74 69 60 49 76 73 68 67 67 67 68 70 79 80 78 81 86 83 80 80 83 83
70 73 75 67 67 61 67 65 72 66 70 86 70 86 44 46 53 60 64 73 91 84 68 55 55 58 50 77 77 67 65 65 68 68 70 72 73 76 78 78 81 84 83 80
70 69 88 81 79 77 88 69 67 81 73 64 68 62 54 54 53 55 60 70 74 80 77 65 48 57 60 58 73 71 64 60 60 62 63 61 60 65 69 86 87 87 83 79
62 88 74 68 67 68 73 71 64 88 65 77 62 64 59 56 54 55 56 63 74 82 80 78 75 61 58 64 76 74 71 61 59 60 61 61 61 65 72 93 97 89 87 82
61 80 70 74 56 53 63 63 57 62 58 58 55 64 51 55 53 56 61 63 68 72 78 75 76 78 76 71 69 77 78 78 74 65 61 63 70 76 91 90 85 85 84 82
67 66 66 75 59 60 65 72 68 63 62 57 65 62 51 55 61 69 68 68 72 75 76 69 74 70 76 78 74 69 69 72 72 75 81 85 89 90 90 91 90 85 80 75
71 69 64 59 50 67 60 58 61 68 68 59 59 56 56 61 70 75 78 76 75 78 73 67 61 69 66 71 73 72 69 68 68 67 63 65 70 74 72 72 72 69 64 60
71 67 60 57 61 63 61 62 75 68 77 62 54 52 57 65 64 69 79 79 83 77 72 67 63 64 66 65 68 71 72 71 70 70 71 71 68 68 68 66 65 65 66 65
69 62 58 62 64 67 58 54 60 57 79 64 56 57 56 54 49 60 83 75 72 78 86 75 66 66 74 73 71 68 71 76 77 75 75 76 78 78 77 75 74 72 69 65
61 59 64 61 65 57 49 55 62 56 71 73 64 67 63 56 67 79 79 79 78 76 82 85 81 77 79 80 80 80 77 73 71 73 77 79 79 78 77 75 73 71 69 69
57 56 57 64 67 70 64 63 54 61 74 78 74 74 75 78 80 82 84 82 79 76 77 86 84 86 86 86 88 86 83 81 77 74 72 73 72 73 75 75 73 70 71 72
58 52 53 52 53 69 83 76 82 76 76 85 83 78 76 77 77 82 81 79 80 81 79 79 85 86 85 87 89 89 87 88 87 86 85 85 84 80 77 75 74 74 75 76
64 67 56 64 68 70 78 87 88 87 88 85 84 82 81 80 81 77 71 72 74 74 76 81 82 81 86 88 87 88 88 89 89 89 89 89 89 89 88 87 86 86 84 84
58 64 59 64 71 75 77 81 87 84 82 81 82 84 82 78 76 77 84 80 76 73 70 68 68 70 77 83 85 87 92 97 94 98 96 97 96 95 95 96 96 96 95 95
65 60 56 52 55 54 59 76 74 74 71 70 76 83 85 79 82 83 79 79 78 74 72 69 68 70 70 71 72 73 77 82 85 87 91 96 98 100 100 98 100 100 98 100

GFSCGP_850_rhum_117.txt.gz
RH
55 70 71 59 41 46 49 55 60 40 30 34 36 46 62 37 41 41 37 42 43 54 57 58 64 51 52 86 73 100 94 97 92 91 99 94 86 80 79 77 80 74 82 78
62 82 44 34 32 42 46 52 50 39 34 40 44 44 35 38 49 56 53 51 61 57 58 58 60 54 72 89 67 100 85 99 92 86 98 96 86 85 76 65 66 50 67 57
62 46 35 39 45 55 54 63 61 60 53 59 66 54 41 39 42 46 56 57 55 56 57 55 59 56 92 75 72 74 95 99 96 93 100 99 99 98 93 89 87 85 84 72
52 39 44 46 54 58 93 55 89 89 94 88 48 74 56 42 48 54 50 56 59 58 57 59 60 58 84 80 72 86 83 99 96 97 99 99 97 94 94 91 96 95 89 88
60 52 50 58 58 93 89 83 100 100 100 98 72 95 71 43 68 65 59 63 61 63 59 67 73 66 98 83 73 85 99 98 90 97 98 97 98 83 74 73 72 68 66 56
62 51 55 63 60 79 92 100 100 100 100 91 68 90 99 99 89 66 66 65 72 82 80 84 78 78 92 83 64 99 98 99 96 89 94 99 99 98 85 82 94 79 64 54
67 74 64 85 99 70 87 98 97 97 97 81 94 92 100 88 72 76 77 86 94 92 90 81 76 94 98 87 67 89 97 99 91 79 96 99 99 91 95 60 64 68 71 73
86 92 85 95 99 100 98 94 97 95 92 80 52 87 99 72 55 73 78 94 97 90 76 69 84 99 92 85 76 75 81 99 93 98 100 99 100 100 100 83 85 80 88 98
82 83 62 75 96 97 86 88 83 96 94 77 94 97 85 62 69 78 85 96 98 83 80 73 79 100 90 81 86 85 91 91 88 90 81 84 92 88 82 88 84 78 85 98
74 88 52 58 80 83 94 86 89 87 93 91 91 89 96 90 89 87 87 97 100 93 88 87 96 100 99 88 81 89 89 73 68 93 81 91 86 80 79 79 78 92 81 91
69 76 87 74 97 100 92 81 70 65 60 93 83 94 94 77 76 89 88 100 100 99 88 90 100 100 100 96 96 91 97 100 99 100 95 89 80 87 71 81 84 96 86 82
59 70 93 75 51 56 68 70 66 93 67 69 61 96 59 59 71 81 89 100 98 100 88 91 100 100 100 80 81 82 99 94 96 88 97 92 89 88 91 100 98 78 81 78
64 70 95 75 52 50 68 54 57 57 66 71 71 94 45 48 60 73 93 99 96 99 98 86 92 100 100 99 82 80 86 82 81 84 84 78 76 92 85 82 80 91 83 87
70 64 84 80 74 73 87 54 59 87 77 75 85 78 55 52 54 57 66 75 86 92 96 91 86 80 99 99 100 100 76 74 72 72 80 75 82 85 88 83 93 96 98 98
55 77 58 54 58 53 56 56 51 69 54 79 65 66 59 52 51 53 55 60 67 76 88 84 85 90 78 89 99 97 84 71 67 64 66 69 83 80 79 95 95 96 100 100
49 67 60 62 48 49 65 58 55 54 50 53 55 64 49 50 52 55 57 61 65 69 75 82 86 78 82 67 78 98 100 98 93 77 70 67 72 82 82 89 97 99 96 89
56 56 60 66 51 50 57 71 62 58 55 52 68 57 44 54 60 63 61 61 68 70 77 79 84 86 86 78 75 78 91 99 91 86 81 84 78 79 91 99 100 100 96 88
58 56 55 50 44 60 59 54 58 62 60 50 50 49 50 55 65 70 71 70 74 78 85 85 85 82 82 83 78 74 74 84 96 100 99 98 90 84 90 98 98 93 90 89
56 54 50 52 54 57 57 56 67 81 69 49 49 45 46 55 51 71 76 78 82 88 92 92 87 83 77 74 76 78 76 73 71 74 82 94 98 100 99 97 96 94 91 84
54 50 52 52 59 59 49 51 53 50 83 54 51 50 48 42 53 71 80 82 84 93 97 90 89 94 89 81 79 79 78 81 81 79 76 75 76 76 75 78 78 75 71 66
46 45 51 49 55 54 45 49 54 63 80 59 57 58 56 62 68 79 84 85 86 82 87 97 88 84 88 90 95 87 83 76 79 80 80 82 81 79 77 75 72 71 70 70
46 45 43 48 50 65 53 55 55 62 68 63 64 66 68 72 76 83 84 79 72 74 77 84 84 85 86 83 85 84 83 87 82 78 78 81 83 83 83 83 81 79 76 73
47 46 46 49 55 62 69 66 73 64 64 73 70 75 73 75 78 82 81 74 74 75 75 79 82 86 87 85 85 83 83 83 87 88 87 84 82 81 82 82 82 80 77 76
49 50 46 53 58 61 68 78 78 76 78 84 85 81 80 75 80 79 76 76 73 66 66 70 74 80 81 86 92 93 90 87 86 86 87 92 92 89 86 85 84 86 86 88
46 52 45 50 56 63 66 69 77 82 80 81 81 88 83 79 80 81 86 80 74 71 67 65 64 64 65 68 72 76 82 88 94 96 97 95 96 98 96 97 96 94 93 92
51 43 46 37 41 42 46 66 79 79 76 69 80 84 84 86 86 91 88 81 80 77 76 76 77 86 88 88 88 88 83 76 77 78 81 88 94 98 99 97 98 99 100 100